[[{"header":{"parameterUnit":"m.s-1","parameterCategory":1,"la1":30.6,"la2":28.766,"lo1":-90.7593,"lo2":-88.6598,"dy":0.0162,"dx":0.0183,"nx":116,"ny":114,"refTime":"2024-04-13T06:00:00:Z","depth":0,"parameterNumber":2,"parameterNumberName":"U-component_of_WINDS"},"data":[0.0,0.0,0.0,0.0,0.0,0.0,0.0,0.0,0.0,0.0,0.0,0.0,0.0,0.0,0.0,0.0,0.0,0.0,0.0,0.0,0.0,0.0,0.0,0.0,0.0,0.0,0.0,0.0,0.0,0.0,0.0,0.0,0.0,0.0,0.0,0.0,0.0,0.0,0.0,0.0,0.0,0.0,0.0,0.0,0.0,0.0,0.0,0.0,0.0,0.0,0.0,0.0,0.0,0.0,0.0,0.0,0.0,0.0,0.0,0.0,0.0,0.0,0.0,0.0,0.0,0.0,0.0,0.0,0.0,0.0,0.0,0.0,0.0,0.0,0.0,0.0,0.0,0.0,0.0,0.0,0.0,0.0,0.0,0.0,0.0,0.0,0.0,0.0,0.0,0.0,0.0,0.0,0.0,0.0,0.0,0.0,0.0,0.0,0.0,0.0,0.0,0.0,0.0,0.0,0.0,0.0,0.0,0.0,0.0,0.0,0.0,0.0,0.0,0.0,0.0,0.0,0.0,0.0,0.0,0.0,0.0,0.0,0.0,0.0,0.0,0.0,0.0,0.0,0.0,0.0,0.0,0.0,0.0,0.0,0.0,0.0,0.0,0.0,0.0,0.0,0.0,0.0,0.0,0.0,0.0,0.0,0.0,0.0,0.0,0.0,0.0,0.0,0.0,0.0,0.0,0.0,0.0,0.0,0.0,0.0,0.0,0.0,0.0,0.0,0.0,0.0,0.0,0.0,0.0,0.0,0.0,0.0,0.0,0.0,0.0,0.0,0.0,0.0,0.0,0.0,0.0,0.0,0.0,0.0,0.0,0.0,0.0,0.0,0.0,0.0,0.0,0.0,0.0,0.0,0.0,0.0,0.0,0.0,0.0,0.0,0.0,0.0,0.0,0.0,0.0,0.0,0.0,0.0,0.0,0.0,0.0,0.0,0.0,0.0,0.0,0.0,0.0,0.0,0.0,0.0,0.0,0.0,0.0,0.0,0.0,0.0,0.0,0.0,0.0,0.0,0.0,0.0,0.0,0.0,0.0,0.0,0.0,0.0,0.0,0.0,0.0,0.0,0.0,0.0,0.0,0.0,0.0,0.0,0.0,0.0,0.0,0.0,0.0,0.0,0.0,0.0,0.0,0.0,0.0,0.0,0.0,0.0,0.0,0.0,0.0,0.0,0.0,0.0,0.0,0.0,0.0,0.0,0.0,0.0,0.0,0.0,0.0,0.0,0.0,0.0,0.0,0.0,0.0,0.0,0.0,0.0,0.0,0.0,0.0,0.0,0.0,0.0,0.0,0.0,0.0,0.0,0.0,0.0,0.0,0.0,0.0,0.0,0.0,0.0,0.0,0.0,0.0,0.0,0.0,0.0,0.0,0.0,0.0,0.0,0.0,0.0,0.0,0.0,0.0,0.0,0.0,0.0,0.0,0.0,0.0,0.0,0.0,0.0,0.0,0.0,0.0,0.0,0.0,0.0,0.0,0.0,0.0,0.0,0.0,0.0,0.0,0.0,0.0,0.0,0.0,0.0,0.0,0.0,0.0,0.0,0.0,0.0,0.0,0.0,0.0,0.0,0.0,0.0,0.0,0.0,0.0,0.0,0.0,0.0,0.0,0.0,0.0,0.0,0.0,0.0,0.0,0.0,0.0,0.0,0.0,0.0,0.0,0.0,0.0,0.0,0.0,0.0,0.0,0.0,0.0,0.0,0.0,0.0,0.0,0.0,0.0,0.0,0.0,0.0,0.0,0.0,0.0,0.0,0.0,0.0,0.0,0.0,0.0,0.0,0.0,0.0,0.0,0.0,0.0,0.0,0.0,0.0,0.0,0.0,0.0,0.0,0.0,0.0,0.0,0.0,0.0,0.0,0.0,0.0,0.0,0.0,0.0,0.0,0.0,0.0,0.0,0.0,0.0,0.0,0.0,0.0,0.0,0.0,0.0,0.0,0.0,0.0,0.0,0.0,0.0,0.0,0.0,0.0,0.0,0.0,0.0,0.0,0.0,0.0,0.0,0.0,0.0,0.0,0.0,0.0,0.0,0.0,0.0,0.0,0.0,0.0,0.0,0.0,0.0,0.0,0.0,0.0,0.0,0.0,0.0,0.0,0.0,0.0,0.0,0.0,0.0,0.0,0.0,0.0,0.0,0.0,0.0,0.0,0.0,0.0,0.0,0.0,0.0,0.0,0.0,0.0,0.0,0.0,0.0,0.0,0.0,0.0,0.0,0.0,0.0,0.0,0.0,0.0,0.0,0.0,0.0,0.0,0.0,0.0,0.0,0.0,0.0,0.0,0.0,0.0,0.0,0.0,0.0,0.0,0.0,0.0,0.0,0.0,0.0,0.0,0.0,0.0,0.0,0.0,0.0,0.0,0.0,0.0,0.0,0.0,0.0,0.0,0.0,0.0,0.0,0.0,0.0,0.0,0.0,0.0,0.0,0.0,0.0,0.0,0.0,0.0,0.0,0.0,0.0,0.0,0.0,0.0,0.0,0.0,0.0,0.0,0.0,0.0,0.0,0.0,0.0,0.0,0.0,0.0,0.0,0.0,0.0,0.0,0.0,0.0,0.0,0.0,0.0,0.0,0.0,0.0,0.0,0.0,0.0,0.0,0.0,0.0,0.0,0.0,0.0,0.0,0.0,0.0,0.0,0.0,0.0,0.0,0.0,0.0,0.0,0.0,0.0,0.0,0.0,0.0,0.0,0.0,0.0,0.0,0.0,0.0,0.0,0.0,0.0,0.0,0.0,0.0,0.0,0.0,0.0,0.0,0.0,0.0,0.0,0.0,0.0,0.0,0.0,0.0,0.0,0.0,0.0,0.0,0.0,0.0,0.0,0.0,0.0,0.0,0.0,0.0,0.0,0.0,0.0,0.0,0.0,0.0,0.0,0.0,0.0,0.0,0.0,0.0,0.0,0.0,0.0,0.0,0.0,0.0,0.0,0.0,0.0,0.0,0.0,0.0,0.0,0.0,0.0,0.0,0.0,0.0,0.0,0.0,0.0,0.0,0.0,0.0,0.0,0.0,0.0,0.0,0.0,0.0,0.0,0.0,0.0,0.0,0.0,0.0,0.0,0.0,0.0,0.0,0.0,0.0,0.0,0.0,0.0,0.0,0.0,0.0,0.0,0.0,0.0,0.0,0.0,0.0,0.0,0.0,0.0,0.0,0.0,0.0,0.0,0.0,0.0,0.0,0.0,0.0,0.0,0.0,0.0,0.0,0.0,0.0,0.0,0.0,0.0,0.0,0.0,0.0,0.0,0.0,0.0,0.0,0.0,0.0,0.0,0.0,0.0,0.0,0.0,0.0,0.0,0.0,0.0,0.0,0.0,0.0,0.0,0.0,0.0,0.0,0.0,0.0,0.0,0.0,0.0,0.0,0.0,0.0,0.0,0.0,0.0,0.0,0.0,0.0,0.0,0.0,0.0,0.0,0.0,0.0,0.0,0.0,0.0,0.0,0.0,0.0,0.0,0.0,0.0,0.0,0.0,0.0,0.0,0.0,0.0,0.0,0.0,0.0,0.0,0.0,0.0,0.0,0.0,0.0,0.0,0.0,0.0,0.0,0.0,0.0,0.0,0.0,0.0,0.0,0.0,0.0,0.0,0.0,0.0,0.0,0.0,0.0,0.0,0.0,0.0,0.0,0.0,0.0,0.0,0.0,0.0,0.0,0.0,0.0,0.0,0.0,0.0,0.0,0.0,0.0,0.0,0.0,0.0,0.0,0.0,0.0,0.0,0.0,0.0,0.0,0.0,0.0,0.0,0.0,0.0,0.0,0.0,0.0,0.0,0.0,0.0,0.0,0.0,0.0,0.0,0.0,0.0,0.0,0.0,0.0,0.0,0.0,0.0,0.0,0.0,0.0,0.0,0.0,0.0,0.0,0.0,0.0,0.0,0.0,0.0,0.0,0.0,0.0,0.0,0.0,0.0,0.0,0.0,0.0,0.0,0.0,0.0,0.0,0.0,0.0,0.0,0.0,0.0,0.0,0.0,0.0,0.0,0.0,0.0,0.0,0.0,0.0,0.0,0.0,0.0,0.0,0.0,0.0,0.0,0.0,0.0,0.0,0.0,0.0,0.0,0.0,0.0,0.0,0.0,0.0,0.0,0.0,0.0,0.0,0.0,0.0,0.0,0.0,0.0,0.0,0.0,0.0,0.0,0.0,0.0,0.0,0.0,0.0,0.0,0.0,0.0,0.0,0.0,0.0,0.0,0.0,0.0,0.0,0.0,0.0,0.0,0.0,0.0,0.0,0.0,0.0,0.0,0.0,0.0,0.0,0.0,0.0,0.0,0.0,0.0,0.0,0.0,0.0,0.0,0.0,0.0,0.0,0.0,0.0,0.0,0.0,0.0,0.0,0.0,0.0,0.0,0.0,0.0,0.0,0.0,0.0,0.0,0.0,0.0,0.0,0.0,0.0,0.0,0.0,0.0,0.0,0.0,0.0,0.0,0.0,0.0,0.0,0.0,0.0,0.0,0.0,0.0,0.0,0.0,0.0,0.0,0.0,0.0,0.0,0.0,0.0,0.0,0.0,0.0,0.0,0.0,0.0,0.0,0.0,0.0,0.0,0.0,0.0,0.0,0.0,0.0,0.0,0.0,0.0,0.0,0.0,0.0,0.0,0.0,0.0,0.0,0.0,0.0,0.0,0.0,0.0,0.0,0.0,0.0,0.0,0.0,0.0,0.0,0.0,0.0,0.0,0.0,0.0,0.0,0.0,0.0,0.0,0.0,0.0,0.0,0.0,0.0,0.0,0.0,0.0,0.0,0.0,0.0,0.0,0.0,0.0,0.0,0.0,0.0,0.0,0.0,0.0,0.0,0.0,0.0,0.0,0.0,0.0,0.0,0.0,0.0,0.0,0.0,0.0,0.0,0.0,0.0,0.0,0.0,0.0,0.0,0.0,0.0,0.0,0.0,0.0,0.0,0.0,0.0,0.0,0.0,0.0,0.0,0.0,0.0,0.0,0.0,0.0,0.0,0.0,0.0,0.0,0.0,0.0,0.0,0.0,0.0,0.0,0.0,0.0,0.0,0.0,0.0,0.0,0.0,0.0,0.0,0.0,0.0,0.0,0.0,0.0,0.0,0.0,0.0,0.0,0.0,0.0,0.0,0.0,0.0,0.0,0.0,0.0,0.0,0.0,0.0,0.0,0.0,0.0,0.0,0.0,0.0,0.0,0.0,0.0,0.0,0.0,0.0,0.0,0.0,0.0,0.0,0.0,0.0,0.0,0.0,0.0,0.0,0.0,0.0,0.0,0.0,0.0,0.0,0.0,0.0,0.0,0.0,0.0,0.0,0.0,0.0,0.0,0.0,0.0,0.0,0.0,0.0,0.0,0.0,0.0,0.0,0.0,0.0,0.0,0.0,0.0,0.0,0.0,0.0,0.0,0.0,0.0,0.0,0.0,0.0,0.0,0.0,0.0,0.0,0.0,0.0,0.0,0.0,0.0,0.0,0.0,0.0,0.0,0.0,0.0,0.0,0.0,0.0,0.0,0.0,0.0,0.0,0.0,0.0,0.0,0.0,0.0,0.0,0.0,0.0,0.0,0.0,0.0,0.0,0.0,0.0,0.0,0.0,0.0,0.0,0.0,0.0,0.0,0.0,0.0,0.0,0.0,0.0,0.0,0.0,0.0,0.0,0.0,0.0,0.0,0.0,0.0,0.0,0.0,0.0,0.0,0.0,0.0,0.0,0.0,0.0,0.0,0.0,0.0,0.0,0.0,0.0,0.0,0.0,0.0,0.0,0.0,0.0,0.0,0.0,0.0,0.0,0.0,0.0,0.0,0.0,0.0,0.0,0.0,0.0,0.0,0.0,0.0,0.0,0.0,0.0,0.0,0.0,0.0,0.0,0.0,0.0,0.0,0.0,0.0,0.0,0.0,0.0,0.0,0.0,0.0,0.0,0.0,0.0,0.0,0.0,0.0,0.0,0.0,0.0,0.0,0.0,0.0,0.0,0.0,0.0,0.0,0.0,0.0,0.0,0.0,0.0,0.0,0.0,0.0,0.0,0.0,0.0,0.0,0.0,0.0,0.0,0.0,0.0,0.0,0.0,0.0,0.0,0.0,0.0,0.0,0.0,0.0,0.0,0.0,-3.935,-3.7979,0.0,0.0,0.0,0.0,0.0,0.0,0.0,0.0,0.0,0.0,0.0,0.0,0.0,0.0,0.0,0.0,0.0,0.0,0.0,0.0,0.0,0.0,0.0,-4.5715,-4.6318,-4.7143,-4.6464,-4.6043,-4.6212,0.0,0.0,0.0,0.0,0.0,-4.4979,-4.5383,-4.5806,-4.622,-4.5715,-4.5381,-4.522,-4.5502,-4.5211,-4.4452,0.0,0.0,0.0,0.0,0.0,0.0,0.0,0.0,0.0,0.0,0.0,0.0,0.0,0.0,0.0,0.0,0.0,0.0,0.0,0.0,0.0,0.0,0.0,0.0,0.0,0.0,0.0,0.0,0.0,0.0,0.0,0.0,0.0,0.0,0.0,0.0,0.0,0.0,0.0,0.0,0.0,0.0,0.0,0.0,0.0,0.0,0.0,0.0,0.0,0.0,0.0,0.0,0.0,0.0,0.0,0.0,0.0,0.0,0.0,0.0,0.0,0.0,0.0,0.0,0.0,0.0,0.0,0.0,0.0,0.0,-4.1718,-4.0578,0.0,0.0,0.0,0.0,0.0,0.0,0.0,0.0,0.0,0.0,0.0,0.0,0.0,0.0,0.0,0.0,0.0,0.0,0.0,0.0,0.0,-4.4033,-4.523,-4.5601,-4.6301,-4.7665,-4.6916,-4.6446,-4.6682,-4.6547,0.0,0.0,0.0,-4.5114,-4.4528,-4.5229,-4.5951,-4.6682,-4.5985,-4.5999,-4.6716,-4.6649,-4.6196,-4.5391,0.0,0.0,0.0,0.0,0.0,0.0,0.0,0.0,0.0,0.0,0.0,0.0,0.0,0.0,0.0,0.0,0.0,0.0,0.0,0.0,0.0,0.0,0.0,0.0,0.0,0.0,0.0,0.0,0.0,0.0,0.0,0.0,0.0,0.0,0.0,0.0,0.0,0.0,0.0,0.0,0.0,0.0,0.0,0.0,0.0,0.0,0.0,0.0,0.0,0.0,0.0,0.0,0.0,0.0,0.0,0.0,0.0,0.0,0.0,0.0,0.0,0.0,0.0,0.0,-4.5658,-4.5644,-4.4779,-4.5568,-4.5127,-4.3767,-4.4637,-4.3838,-4.1861,-4.1004,0.0,0.0,0.0,0.0,0.0,0.0,0.0,0.0,0.0,0.0,0.0,0.0,0.0,0.0,0.0,0.0,0.0,0.0,0.0,-4.5194,-4.4548,-4.6576,-4.7695,-4.7028,-4.6254,-4.5825,-4.5866,-4.5092,-4.4874,-4.5421,-4.4797,-4.4759,-4.5421,-4.5537,-4.5671,-4.5768,-4.6348,-4.7376,-4.8791,-4.8507,-4.8486,-4.8592,-4.6307,0.0,0.0,0.0,0.0,0.0,0.0,0.0,0.0,0.0,0.0,0.0,0.0,0.0,0.0,0.0,0.0,0.0,0.0,0.0,0.0,0.0,0.0,0.0,0.0,0.0,0.0,0.0,0.0,0.0,0.0,0.0,0.0,0.0,0.0,0.0,0.0,0.0,0.0,0.0,0.0,0.0,0.0,0.0,-4.4964,-4.5714,0.0,0.0,0.0,0.0,0.0,0.0,0.0,0.0,0.0,0.0,0.0,0.0,0.0,-4.5175,-4.5567,-4.7361,-4.7906,-4.7237,-4.8742,-4.8879,-4.7831,-4.823,-4.8033,-4.7364,-4.7993,0.0,-4.2323,-4.1036,0.0,0.0,0.0,0.0,0.0,0.0,0.0,0.0,0.0,0.0,0.0,0.0,0.0,0.0,0.0,0.0,0.0,0.0,0.0,0.0,0.0,-4.7523,-4.9119,-4.9043,-5.092,-5.0882,-4.7969,-4.873,-4.7971,-4.4989,-4.4979,-4.4979,-4.4874,-4.5344,-4.6269,-4.7684,-4.9471,-5.0668,-5.1322,-5.1193,-5.1117,-5.105,-4.993,-4.8681,-4.735,-4.5926,0.0,0.0,0.0,0.0,0.0,0.0,0.0,0.0,0.0,0.0,0.0,0.0,0.0,0.0,0.0,0.0,0.0,0.0,0.0,0.0,0.0,0.0,0.0,0.0,0.0,0.0,0.0,0.0,0.0,0.0,0.0,0.0,0.0,0.0,0.0,0.0,0.0,0.0,0.0,-4.507,-4.6596,-4.5579,-4.5771,-4.5624,0.0,0.0,0.0,0.0,0.0,0.0,0.0,0.0,0.0,-4.8218,-4.8495,-4.8827,-4.926,-5.0398,-5.0694,-5.012,-5.1065,-5.0749,-4.9381,-5.0007,-4.9639,-4.8514,-4.8785,-4.773,-4.5673,-4.3918,-4.2247,-4.0673,0.0,0.0,0.0,0.0,-3.7528,-3.7611,0.0,0.0,0.0,0.0,0.0,0.0,0.0,0.0,0.0,0.0,0.0,0.0,-4.6245,-4.8778,-5.0739,-5.1717,-5.4265,-5.415,-5.023,-5.0779,-4.9327,-4.5025,-4.5117,-4.5075,-4.4643,-4.5922,-4.7808,-5.0307,-5.2632,-5.3848,-5.3996,-5.3996,-5.368,-5.3145,-5.3359,-5.1785,-4.8919,-4.7937,-4.6234,0.0,0.0,0.0,0.0,0.0,0.0,0.0,0.0,0.0,0.0,0.0,0.0,0.0,0.0,0.0,0.0,0.0,0.0,0.0,0.0,0.0,0.0,0.0,0.0,0.0,0.0,0.0,0.0,0.0,0.0,0.0,0.0,0.0,0.0,0.0,0.0,0.0,0.0,-4.7004,-4.8143,-4.5571,-4.7323,-4.7921,0.0,0.0,0.0,0.0,0.0,0.0,-4.8677,-4.9526,-5.0292,-5.0972,-5.1417,-5.1833,-5.2249,-5.2704,-5.2775,-5.2511,-5.2447,-5.162,-5.0195,-5.0713,-5.0065,-4.855,-4.851,-4.8291,-4.7849,-4.5942,-4.3931,-4.1897,-4.0803,-3.9543,-3.8398,-3.8944,-3.8925,-3.8765,0.0,0.0,0.0,0.0,0.0,0.0,0.0,0.0,0.0,0.0,0.0,-4.5483,-4.8005,-5.0538,-5.2727,-5.4359,-5.3173,-5.2107,-5.1537,-4.802,-4.6081,-4.629,-4.5054,-4.472,-4.5518,-4.7952,-5.0452,-5.3,-5.4741,-5.5959,-5.6691,-5.6691,-5.6045,-5.4922,-5.567,-5.5101,-5.3329,-4.9486,-4.8032,-4.7959,0.0,0.0,0.0,0.0,0.0,0.0,0.0,0.0,0.0,0.0,0.0,0.0,0.0,0.0,0.0,0.0,0.0,0.0,0.0,0.0,0.0,0.0,0.0,0.0,0.0,0.0,0.0,0.0,0.0,0.0,0.0,0.0,0.0,0.0,0.0,0.0,0.0,0.0,0.0,-4.684,-5.1191,0.0,0.0,0.0,0.0,-4.9082,-4.9172,-4.9871,-5.1424,-5.085,-5.1386,-5.3353,-5.3046,-5.3028,-5.3504,-5.3658,-5.378,-5.3888,-5.2577,-5.1383,-5.0376,-4.9886,-4.8899,-4.7563,-4.7442,-4.7187,-4.6756,-4.5386,-4.4562,-4.3944,-4.1934,-4.0914,-4.0479,-4.0026,-4.0164,-4.0387,0.0,0.0,0.0,0.0,0.0,-4.0797,-4.0797,-4.0752,-4.1248,-4.2641,-4.4812,-4.7182,-4.9738,-5.3285,-5.5687,-5.6194,-5.7679,-5.7126,-5.3686,-5.2114,-5.0673,-4.9229,-4.7607,-4.7663,-4.9606,-5.1087,-5.2818,-5.4799,-5.653,-5.7231,-5.697,-5.697,-5.6698,-5.6262,-5.7111,-5.7005,-5.5974,-5.2437,-4.9691,-4.75,-4.4441,-4.2926,0.0,0.0,0.0,0.0,0.0,0.0,0.0,0.0,0.0,0.0,0.0,0.0,0.0,0.0,0.0,0.0,0.0,0.0,0.0,0.0,0.0,0.0,0.0,0.0,0.0,0.0,0.0,0.0,0.0,0.0,0.0,0.0,0.0,0.0,0.0,0.0,0.0,-5.1764,-5.3823,0.0,-5.1604,-5.1067,-5.1263,-5.2139,-5.2682,-5.3273,-5.3995,-5.4136,-5.4385,-5.4737,-5.5,-5.5134,-5.5082,-5.4894,-5.4474,-5.3789,-5.299,-5.2,-5.082,-5.0339,-4.9653,-4.8826,-4.8477,-4.8144,-4.77,-4.6012,-4.4837,-4.3989,-4.2668,-4.1868,-4.1485,-4.165,-4.1737,-4.1702,0.0,0.0,0.0,0.0,0.0,-4.0797,-4.0797,-4.0752,-4.1345,-4.3066,-4.5527,-4.8284,-5.1439,-5.5335,-5.8036,-5.876,-6.011,-5.9284,-5.5462,-5.368,-5.1845,-4.9776,-4.8952,-4.9586,-5.1846,-5.3606,-5.503,-5.6145,-5.7857,-5.8127,-5.7003,-5.7003,-5.6816,-5.6541,-5.7689,-5.78,-5.7006,-5.5107,-5.2197,-4.8667,-4.6032,-4.5036,-4.4716,0.0,0.0,0.0,0.0,0.0,0.0,0.0,0.0,0.0,0.0,0.0,0.0,0.0,0.0,0.0,0.0,0.0,0.0,0.0,0.0,0.0,0.0,0.0,0.0,0.0,0.0,0.0,0.0,0.0,0.0,0.0,0.0,0.0,0.0,-5.1524,-5.409,-5.3711,-5.6084,-5.6779,-5.4218,-5.39,-5.4011,-5.4369,-5.492,-5.5151,-5.5044,-5.5443,-5.5502,-5.5122,-5.5507,-5.5652,-5.542,-5.4861,-5.4225,-5.353,-5.2745,-5.1842,-5.0782,-5.02,-4.964,-4.9088,-4.8248,-4.7663,-4.7162,-4.5558,-4.4305,-4.3368,-4.2889,-4.2425,-4.2102,-4.2532,-4.2394,-4.1866,0.0,0.0,0.0,0.0,0.0,-4.0797,-4.0797,-4.0797,-4.139,-4.3073,-4.5587,-4.8836,-5.3072,-5.6611,-5.963,-6.2011,-5.984,-5.7863,-5.6697,-5.2088,-4.8941,-4.7868,-4.8941,-5.0375,-5.2096,-5.5357,-5.703,-5.7038,-5.8665,-5.8588,-5.6964,-5.6964,-5.6522,-5.5761,-5.7443,-5.7538,-5.6521,-5.7324,-5.555,-5.1979,-4.8989,-4.7789,-4.7478,0.0,0.0,0.0,0.0,0.0,0.0,0.0,0.0,0.0,0.0,0.0,0.0,0.0,0.0,0.0,0.0,0.0,0.0,0.0,0.0,0.0,0.0,0.0,0.0,0.0,0.0,0.0,0.0,0.0,0.0,0.0,0.0,0.0,-4.7932,-5.3335,-5.5932,-5.2495,-5.8092,-6.0233,-5.5162,-5.6684,-5.734,-5.5805,-5.5635,-5.5339,-5.4615,-5.4529,-5.4512,-5.4512,-5.4512,-5.4512,-5.4512,-5.3514,-5.3085,-5.3155,-5.182,-5.0846,-5.014,-4.9341,-4.8704,-4.8095,-4.6601,-4.5641,-4.5093,-4.4005,-4.3072,-4.2382,-4.2593,-4.2534,-4.2331,-4.2595,-4.1993,-4.086,0.0,0.0,0.0,-3.981,-4.0371,-4.0797,-4.0797,-4.0797,-4.139,-4.3073,-4.7134,-5.1041,-5.4116,-5.8023,-6.0916,-6.216,-5.9369,-5.7369,-5.6981,-5.2222,-4.9769,-5.0645,0.0,0.0,-5.7271,-5.7739,-5.7934,-5.7942,-5.8396,-5.7742,-5.6049,-5.6049,-5.5934,-5.578,-5.7489,-5.8089,-5.7827,-5.8572,-5.8317,-5.6906,-5.1613,-4.9707,-4.9658,0.0,0.0,0.0,0.0,0.0,0.0,0.0,0.0,0.0,0.0,0.0,0.0,0.0,0.0,0.0,0.0,0.0,0.0,0.0,0.0,0.0,0.0,0.0,0.0,0.0,0.0,0.0,0.0,0.0,0.0,0.0,-4.8976,-5.0893,-5.1579,-5.3754,-5.609,-5.8262,-5.9863,-6.022,-5.8788,-5.9202,-5.8926,-5.7391,-5.6771,-5.6391,-5.6184,-5.5115,-5.4512,-5.4512,-5.4512,-5.4512,-5.4512,-5.37,-5.3025,-5.2466,-5.157,-5.0575,-4.9511,-4.8974,-4.8438,-4.7944,-4.7377,-4.6924,-4.6464,-4.5183,-4.4393,-4.3857,-4.2818,-4.2474,-4.2593,-4.2434,-4.1475,-4.0091,0.0,0.0,0.0,-3.9443,-4.0216,-4.0797,-4.0797,-4.0797,-4.1525,-4.3576,-4.7669,-5.1389,-5.3962,-5.7404,-5.9552,-5.965,-5.7487,-5.5644,-5.4487,-5.1578,-5.0623,0.0,0.0,-5.6518,-5.8842,-5.9188,-5.9165,-5.88,-5.8473,-5.7588,-5.6252,-5.5857,-5.5703,-5.5761,-5.7146,-5.7953,-5.8357,-5.9131,-5.9566,-5.9415,-5.529,-5.373,-5.3442,-4.951,-4.8798,-4.9645,-4.7418,-4.7393,-4.8148,-4.631,0.0,0.0,0.0,0.0,0.0,0.0,0.0,0.0,0.0,0.0,0.0,0.0,0.0,0.0,0.0,0.0,0.0,0.0,0.0,0.0,0.0,0.0,0.0,0.0,-5.1761,-5.3739,-5.5322,-5.603,-5.7455,-6.0386,-6.0687,-6.0651,-6.0651,-6.0375,-5.9564,-5.803,-5.7219,-5.665,-5.6322,-5.5167,-5.4512,-5.4512,-5.4512,-5.4512,-5.4512,-5.3442,-5.2666,-5.217,-5.1149,-5.027,-4.9569,-4.8641,-4.8137,-4.7925,-4.7186,-4.6425,-4.5716,-4.5029,-4.4193,0.0,0.0,0.0,0.0,0.0,-4.0699,-3.9734,0.0,0.0,0.0,-3.921,-4.0062,-4.07,-4.0777,-4.0797,-4.168,-4.413,-4.7424,-5.0442,-5.2801,-5.5432,-5.671,-5.5931,-5.492,-5.332,-5.0981,-5.0951,0.0,-5.3607,-5.6007,-5.7735,-5.8611,-6.015,-6.0473,-5.9492,-5.8781,-5.7992,-5.7137,-5.6357,-5.5934,-5.5895,-5.6849,-5.7665,-5.8357,-5.9261,-5.9919,-6.025,-5.9052,-5.8329,-5.7487,-5.3029,-5.2451,-5.3675,-5.0817,-4.9742,-4.9643,-4.9513,0.0,0.0,0.0,0.0,0.0,0.0,0.0,0.0,0.0,0.0,0.0,0.0,0.0,0.0,0.0,0.0,0.0,0.0,0.0,0.0,0.0,0.0,0.0,0.0,-5.4213,-5.5824,-5.8633,-5.9012,-5.934,-6.022,-6.0892,-6.1272,-6.1185,-6.0582,-5.9564,-5.803,-5.7219,-5.646,-5.565,-5.4908,0.0,0.0,0.0,-5.4512,-5.4512,-5.2977,-5.2188,-5.217,-5.0718,-4.9907,-4.97,-4.831,-4.7724,-4.7725,-4.6369,-4.5117,-4.4003,-4.4165,-4.3208,-4.1648,-4.2082,-4.2267,-4.2129,-4.061,-3.9966,-3.9681,0.0,0.0,0.0,-3.8295,-3.9166,-3.9984,-4.07,-4.0797,-4.1448,-4.3305,-4.6535,-4.9107,-5.0306,-5.3343,-5.521,-5.5047,-5.3528,-5.2318,-5.1722,-5.2867,-5.4676,-5.7102,-5.8928,-6.0328,-6.1242,-6.1661,-6.1069,-5.9492,-5.9338,-5.8858,-5.805,-5.7877,-5.7415,-5.6808,-5.8338,-5.8742,-5.8396,-5.9915,-6.0604,-6.0634,-5.9855,-5.8859,-5.7567,-5.4896,-5.4062,-5.4154,-5.2804,-5.2974,-5.3553,-5.1667,-5.1558,-5.1627,-4.8211,0.0,0.0,0.0,0.0,0.0,0.0,0.0,0.0,0.0,0.0,0.0,0.0,0.0,0.0,0.0,0.0,0.0,0.0,0.0,0.0,-5.4465,-5.6126,-5.7482,-5.8806,-5.9012,-5.953,-6.0927,-6.122,-6.1065,-6.0461,-6.0271,-5.9564,-5.803,-5.7219,-5.646,-5.565,-5.4908,-5.4512,-5.4512,-5.4512,-5.4512,-5.4512,-5.2977,-5.2188,-5.217,0.0,0.0,-4.812,-4.7855,-4.7044,-4.5934,-4.5822,-4.5331,-4.4516,-4.4126,-4.3037,-4.1626,-4.187,-4.2103,-4.2183,-4.1217,-4.0467,-3.977,0.0,0.0,0.0,-3.7458,-3.8624,-3.9655,-4.0081,-4.0526,-4.1564,-4.3672,-4.578,-4.7599,-4.8914,-5.0577,-5.1254,-5.0364,-4.984,-5.041,0.0,-5.4474,-5.6944,-5.9975,-6.1256,-6.1927,-6.201,-6.2065,-6.1466,-6.0146,-5.9704,-5.93,-5.8896,-5.8492,-5.8069,-5.7692,-5.8531,-5.8896,-5.8954,-5.9781,-6.0396,-6.0757,-6.0251,-5.9292,-5.7948,-5.608,-5.5441,-5.5427,-5.4151,-5.4003,-5.4226,-5.3045,-5.2599,-5.2137,-4.9724,-4.8211,-4.6877,0.0,0.0,0.0,0.0,0.0,0.0,0.0,0.0,0.0,0.0,0.0,0.0,0.0,0.0,-4.7861,-5.09,0.0,-5.419,-5.6918,-5.7826,-5.8617,-5.9821,-5.9771,-5.9892,-6.0651,-6.0392,-6.0168,-6.0202,-5.984,-5.9288,-5.8512,-5.7426,-5.6615,-5.6219,-5.5132,-5.4512,-5.4512,-5.4512,-5.4512,-5.4512,-5.2977,-5.2188,-5.217,-5.0718,-4.939,-4.8224,-4.7862,-4.7069,-4.5975,-4.5321,-4.4636,-4.388,-4.2838,-4.2084,-4.1604,-4.1547,-4.1766,-4.2015,-4.1233,-4.076,-4.0323,0.0,0.0,0.0,-3.6845,-3.8199,-3.9307,-3.9462,-4.0371,-4.1777,-4.3827,-4.4949,-4.6032,-4.727,-4.756,-4.7154,-4.5909,-4.6839,-4.9273,0.0,-5.6055,-5.8918,-6.2349,-6.329,-6.3329,-6.2522,-6.2565,-6.2147,-6.1281,-6.0589,-6.0242,-6.0223,-5.9415,-5.8954,-5.8792,-5.8781,-5.905,-5.9523,-5.9685,-6.0165,-6.0777,-6.0349,-5.9509,-5.8324,-5.6742,-5.6253,-5.625,-5.4902,-5.3877,-5.3226,-5.3326,-5.2454,-5.1199,-5.0546,-4.9376,-4.7884,-4.591,-4.4607,0.0,0.0,0.0,0.0,0.0,0.0,0.0,0.0,-4.4231,-4.484,-4.7716,-4.89,-5.0728,-5.5124,-5.5687,-5.6317,-5.8865,-5.9189,-5.9455,-6.0436,-6.032,-6.0116,-5.9978,-5.953,-5.9426,-5.9926,-5.9392,-5.8961,-5.8806,-5.7547,-5.6736,-5.6581,-5.5253,-5.4512,-5.4512,-5.4512,-5.4512,-5.4512,-5.3149,-5.2343,-5.217,-5.0856,-4.9648,-4.8568,-4.7965,-4.7207,-4.6286,-4.476,-4.3655,-4.2861,-4.1481,-4.1129,-4.1448,-4.1226,-4.1391,-4.1696,-4.116,-4.0949,-4.0735,0.0,0.0,0.0,0.0,0.0,-3.8605,-3.9385,-4.0855,-4.197,-4.2241,-4.373,-4.4504,-4.3924,-4.4562,-4.5218,-4.5742,-4.7896,0.0,-5.5237,-5.7774,-6.0659,-6.4154,-6.5071,-6.5128,-6.4327,-6.432,-6.3897,-6.3031,-6.2923,-6.2878,-6.2846,-6.205,-6.1297,-6.0611,-6.0554,-6.0181,-5.9648,-6.0342,-6.0704,-6.0746,-6.0102,-5.9308,-5.834,-5.6836,-5.5793,-5.5077,-5.463,-5.301,-5.1138,-5.1682,-5.1639,-5.1357,-5.1199,-5.0591,-4.9752,-4.8915,-4.6679,-4.4345,-4.3677,-4.2823,-4.263,-4.4788,-4.4784,-4.5647,0.0,-5.12,-5.0879,-5.323,-5.4313,-5.5226,-5.6461,-5.7173,-5.7957,-5.912,-5.984,-5.9952,-5.9165,-5.956,-5.9734,-5.9202,-5.9685,-5.9823,-5.9202,-5.9064,-5.8737,-5.8081,-5.7253,-5.6495,-5.5788,-5.496,-5.4512,-5.4512,-5.4512,-5.4512,-5.4512,-5.3684,-5.2925,-5.217,-5.136,-4.989,-4.781,-4.7724,-4.6896,-4.5449,-4.3958,-4.2879,-4.2085,-4.124,-4.0918,-4.0982,-4.0942,-4.1065,-4.1283,-4.1455,-4.1068,-4.0366,0.0,0.0,0.0,0.0,0.0,-3.8309,-3.8682,-4.0191,-4.1467,-4.1932,-4.2628,-4.2957,-4.2589,-4.2454,-4.2718,-4.351,-4.6322,0.0,-5.4063,-5.7541,-6.0995,-6.4455,-6.541,-6.5468,-6.4628,-6.4609,-6.4166,-6.3288,-6.3288,-6.3288,-6.3269,-6.2474,-6.1913,-6.1604,-6.1566,-6.1374,-6.1111,-6.1901,-6.1973,-6.1538,-6.1255,-5.9798,-5.7668,-5.6602,-5.4516,-5.2196,-5.2448,-5.1126,0.0,0.0,-4.879,-4.8602,-4.8581,-4.7998,-4.7311,-4.7146,-4.5934,-4.4766,-4.5233,-4.4695,-4.4475,-4.6378,-4.7021,-4.8037,-5.1403,-5.1995,-5.2503,-5.4786,-5.6173,-5.7205,-5.7949,-5.8676,-5.9323,-5.9702,-5.978,-5.9791,-5.9895,-5.9147,-5.8496,-5.8375,-5.8288,-5.8254,-5.8357,-5.8374,-5.8064,-5.7322,-5.6546,-5.596,-5.5632,-5.4908,-5.4512,-5.4512,-5.4512,-5.4512,-5.4512,-5.377,-5.3011,-5.2188,-5.1459,-4.9924,-4.7689,-4.7689,-4.6631,-4.4699,-4.3655,-4.2741,-4.1947,-4.1205,-4.0912,-4.0912,-4.0912,-4.0942,-4.1041,-4.1295,-4.1051,-4.0489,0.0,0.0,0.0,0.0,0.0,-3.7922,-3.8168,-3.9682,-4.1003,-4.1571,-4.1848,-4.1912,-4.168,-4.1145,-4.1126,-4.1932,-4.4858,0.0,0.0,-5.6652,-6.0446,-6.4089,-6.5301,-6.559,-6.4974,-6.5186,-6.4878,-6.4032,-6.4032,-6.4032,-6.4012,-6.3166,-6.2798,-6.2806,-6.2548,-6.2432,-6.249,-6.2825,-6.2627,-6.205,-6.1478,-5.9707,-5.7289,-5.5834,-5.3059,-4.9996,-5.0101,-4.868,0.0,0.0,-4.5732,-4.5432,-4.5867,-4.5555,-4.5154,-4.5802,-4.5456,-4.5039,-4.5829,-4.5899,-4.609,-4.748,-4.8736,-5.0022,-5.1534,-5.2434,-5.3518,-5.5598,-5.685,-5.7763,-5.8304,-5.8998,-5.9556,-5.9759,-5.9838,-5.999,-6.033,-5.9109,-5.8101,-5.7927,-5.7253,-5.6926,-5.7253,-5.7478,-5.7374,-5.684,-5.6064,-5.5615,-5.5615,-5.4908,-5.4512,-5.4512,-5.4512,-5.4512,-5.4512,-5.377,-5.3011,-5.2188,-5.1459,-4.9924,-4.77,-4.7241,-4.6061,-4.4259,-4.3517,-4.2741,-4.1947,-4.1205,-4.0912,-4.0912,-4.0912,-4.0912,-4.0935,-4.1065,-4.0974,-4.0643,0.0,0.0,0.0,0.0,0.0,-3.722,-3.806,-3.967,-4.0784,-4.0745,-4.1487,-4.1699,-4.0913,-4.0816,-4.1126,-4.1932,-4.4346,-4.7603,-5.1778,-5.5267,-5.9018,-6.3166,-6.4974,-6.5878,-6.5859,-6.6609,-6.6628,-6.582,-6.582,-6.582,-6.5801,-6.4936,-6.4556,-6.4578,-6.3671,-6.3298,-6.3319,-6.249,-6.212,-6.1923,-5.99,-5.8574,-5.745,-5.4346,-5.1625,-4.9271,-4.8107,0.0,0.0,-4.3403,-4.299,-4.2483,-4.4017,-4.4453,-4.4763,-4.6447,-4.6165,-4.5254,-4.5172,-4.5896,-4.6891,-4.7849,-4.9663,-5.1635,-5.3236,-5.4093,-5.4955,-5.6461,-5.6799,-5.685,-5.6867,-5.7459,-5.8203,-5.893,-6.0283,-6.0876,-5.9784,-5.9564,-5.9109,-5.8014,-5.7253,-5.6512,-5.5753,-5.6391,-5.6822,-5.6805,-5.6064,-5.5615,-5.5615,-5.4908,-5.4512,-5.4512,-5.4512,-5.4512,-5.4512,-5.377,-5.3011,-5.2188,-5.1459,-4.9924,-4.7638,-4.6138,-4.5044,-4.4259,-4.3517,-4.2741,-4.1947,-4.1205,-4.0912,-4.0912,-4.0912,-4.0912,-4.0912,-4.0912,-4.0901,-4.0676,0.0,0.0,0.0,0.0,0.0,0.0,-3.721,-3.8781,-3.9863,-3.9831,-4.0636,0.0,0.0,0.0,0.0,0.0,-4.3264,-4.5615,-4.9241,-5.2478,-5.5825,-5.9434,-6.1816,-6.3573,-6.467,-6.4616,-6.4724,-6.5032,-6.4455,-6.4166,-6.4166,-6.3878,-6.346,-6.2999,-6.3806,-6.3568,-6.2587,-6.3402,-6.3416,-6.2692,-6.0282,-5.8616,-5.7177,-5.3834,-5.0447,-4.7287,0.0,0.0,0.0,-4.1317,-4.0877,-4.0598,-4.1113,-4.1244,-4.1555,-4.3303,-4.4711,-4.6064,-4.7653,-4.9151,-5.0534,-5.1493,-5.1966,-5.2562,-5.4086,-5.4228,-5.4245,-5.5159,-5.4955,-5.4448,-5.3907,-5.4448,-5.5378,-5.663,-5.8068,-5.918,-5.9562,-5.9598,-5.8801,-5.6619,-5.6633,-5.6098,-5.4322,-5.5288,-5.5805,-5.5322,-5.5029,-5.4874,-5.4874,-5.4632,-5.4512,-5.4512,-5.4512,-5.427,-5.377,-5.3529,-5.2753,-5.1459,-4.97,-4.82,-4.6941,-4.588,-4.4734,-4.3552,-4.331,-4.2741,-4.1947,-4.1205,-4.0912,-4.0912,-4.0912,-4.0912,-4.0912,-4.0912,-4.0567,-3.9957,0.0,0.0,0.0,0.0,0.0,0.0,0.0,0.0,0.0,0.0,0.0,0.0,0.0,0.0,0.0,0.0,0.0,-4.3924,-4.6656,0.0,-5.2591,-5.5804,-5.7869,-5.9565,-6.0933,-6.0642,-6.0798,-6.1416,-6.1781,-6.2108,-6.2416,-6.3031,-6.3024,-6.2571,-6.3363,-6.3267,-6.2552,-6.2716,-6.23,-6.13,-5.8742,-5.6628,-5.465,-5.1329,-4.8154,0.0,0.0,0.0,0.0,-3.981,-3.9488,-3.9383,-3.9676,-4.0321,-4.1273,-4.2644,-4.4802,-4.7297,-4.9794,-5.1648,-5.3101,-5.3846,-5.3734,-5.369,-5.4687,-5.3861,-5.3106,-5.3737,-5.2807,-5.1742,-5.1217,-5.1336,-5.2164,-5.4177,-5.553,-5.6974,-5.8859,-5.8878,-5.8218,-5.6863,-5.6706,-5.6153,-5.4753,-5.5477,-5.5615,-5.4581,-5.4512,-5.4512,-5.4512,-5.4512,-5.4512,-5.4512,-5.4512,-5.4149,-5.3408,-5.3115,-5.208,-5.024,-4.8517,-4.7155,-4.6121,-4.5372,-4.4337,-4.3172,-4.2896,-4.2482,-4.1947,-4.1205,-4.0912,-4.0912,-4.0912,-4.0912,-4.0912,-4.0912,-4.0388,-3.9577,0.0,0.0,0.0,0.0,0.0,0.0,0.0,0.0,0.0,0.0,0.0,0.0,0.0,0.0,0.0,0.0,0.0,0.0,0.0,0.0,0.0,-5.2332,-5.3369,-5.4287,-5.5199,-5.53,-5.5458,-5.5703,-5.8127,-5.9704,-6.0512,-6.2185,-6.2954,-6.2878,-6.2166,-6.2224,-6.2692,-6.0281,-5.8781,-5.7819,-5.5318,-5.2818,-5.0287,-4.7266,0.0,0.0,0.0,0.0,-3.8939,-3.8947,-3.8936,-3.9019,-3.9772,-4.1607,-4.3645,-4.4473,-4.6469,-4.8967,-5.1444,-5.3335,-5.462,-5.482,-5.4874,-5.4861,-5.491,-5.3097,-5.1573,-5.2204,-5.0464,-4.8815,-4.8731,-4.8223,-4.8765,-5.1708,-5.2959,-5.4652,-5.7795,-5.7712,-5.7683,-5.8632,-5.7569,-5.6761,-5.6841,-5.6822,-5.6184,-5.4684,-5.4563,-5.4546,-5.4512,-5.4512,-5.4512,-5.4512,-5.4512,-5.4132,-5.3356,-5.2528,-5.0964,-4.8792,-4.8034,-4.6862,-4.5311,-4.4613,-4.3845,-4.3034,-4.2327,-4.1999,-4.1895,-4.1205,-4.0912,-4.0912,-4.0912,-4.0912,-4.0912,-4.0912,-4.0388,-3.9595,0.0,0.0,0.0,0.0,0.0,0.0,0.0,0.0,0.0,0.0,0.0,0.0,0.0,0.0,0.0,0.0,0.0,0.0,0.0,0.0,0.0,0.0,0.0,0.0,0.0,0.0,0.0,0.0,0.0,-5.6472,-5.6145,-5.7819,-5.8261,-5.7665,-5.8107,-5.7723,-5.6703,-5.6049,-5.528,-5.4337,0.0,-5.0765,-4.9204,0.0,0.0,0.0,0.0,0.0,-3.933,-3.9678,-4.0501,-4.1407,-4.1524,-4.2369,-4.376,-4.5791,-4.8115,-5.0572,-5.3093,-5.539,-5.6855,-5.5868,-5.4932,-5.3922,-5.2765,-5.1279,-4.9838,-4.8677,-4.7517,-4.6309,-4.506,-4.5618,-4.7242,-5.0168,-5.2706,-5.5414,-5.8577,-5.9837,-6.024,-5.9661,-5.9748,-5.9252,-5.7755,-5.7116,-5.6391,-5.5408,-5.5339,-5.5098,-5.4546,-5.4512,-5.4512,-5.4512,-5.4512,-5.3873,-5.2528,-5.1218,-4.9976,-4.8792,-4.8034,-4.6613,-4.4561,-4.4397,-4.3276,-4.1516,-4.1861,-4.1705,-4.117,-4.0981,-4.0912,-4.0912,-4.0912,-4.0912,-4.0912,-4.0912,-4.0388,-3.9664,0.0,0.0,0.0,0.0,0.0,0.0,0.0,0.0,0.0,0.0,0.0,0.0,0.0,0.0,0.0,0.0,0.0,0.0,0.0,0.0,0.0,0.0,0.0,0.0,0.0,0.0,0.0,0.0,0.0,0.0,0.0,-5.3799,-5.4299,-5.353,-5.401,-5.3703,-5.2779,0.0,0.0,0.0,0.0,0.0,0.0,0.0,0.0,0.0,0.0,0.0,-4.1599,-4.2032,-4.268,-4.3462,-4.407,-4.4821,-4.6029,-4.8829,-5.0625,-5.2278,-5.4781,-5.6693,-5.7799,-5.7023,-5.5824,-5.4269,-5.2121,-5.0332,-4.8342,-4.5685,-4.4552,-4.3613,-4.2274,-4.3281,-4.5162,-4.7776,-5.0691,-5.3924,-5.7688,-5.9234,-6.018,-6.0684,-6.0532,-5.9868,-5.8513,-5.7719,-5.6822,-5.5701,-5.5322,-5.496,-5.4529,-5.4512,-5.4512,-5.4512,-5.4512,-5.377,-5.2205,-5.0378,-4.9097,-4.8293,-4.7551,-4.6027,-4.3828,-4.3828,-4.2758,-4.0946,-4.1688,-4.1585,-4.0929,-4.1257,-4.1205,-4.0912,-4.0912,-4.0912,-4.0912,-4.0912,-4.0618,-4.0239,0.0,0.0,0.0,0.0,0.0,0.0,0.0,0.0,0.0,0.0,-3.9467,-4.0068,0.0,0.0,0.0,0.0,0.0,0.0,0.0,0.0,0.0,0.0,0.0,0.0,0.0,0.0,0.0,0.0,0.0,0.0,0.0,0.0,0.0,0.0,0.0,0.0,0.0,0.0,0.0,0.0,0.0,0.0,0.0,0.0,0.0,0.0,0.0,0.0,0.0,-4.4807,-4.5272,-4.5773,-4.7202,-4.8375,-4.9808,-5.2639,-5.3634,-5.4304,-5.6506,-5.7629,-5.8107,-5.7886,-5.6708,-5.4845,-5.1884,-4.95,-4.6812,-4.3134,-4.1783,-4.1067,-4.032,-4.1376,-4.3158,-4.5677,-4.8335,-5.1657,-5.6208,-5.7376,-5.8637,-6.1047,-6.0213,-5.9228,-5.8841,-5.8134,-5.7101,-5.5671,-5.4879,-5.4448,-5.4512,-5.4463,-5.4428,-5.4374,-5.4253,-5.3529,-5.205,-4.9878,-4.843,-4.7672,-4.6958,-4.5406,-4.3189,-4.3264,-4.2417,-4.0946,-4.176,-4.1633,-4.0963,-4.1705,-4.1585,-4.0912,-4.0912,-4.0918,-4.0965,-4.0918,-4.0918,-4.0989,0.0,0.0,0.0,0.0,0.0,0.0,0.0,0.0,0.0,0.0,-4.2645,-4.1812,0.0,0.0,0.0,0.0,0.0,0.0,0.0,0.0,0.0,0.0,0.0,0.0,0.0,0.0,0.0,0.0,0.0,0.0,0.0,0.0,0.0,0.0,0.0,0.0,0.0,0.0,0.0,0.0,0.0,0.0,0.0,0.0,0.0,0.0,0.0,0.0,0.0,0.0,-4.7913,-4.9963,-5.0739,-5.2435,-5.4393,-5.5619,-5.6466,-5.7258,-5.8445,-5.8872,-5.8676,-5.7354,-5.5486,-5.3074,-4.9595,-4.7122,-4.4519,-4.0827,-3.9925,-3.9734,-3.9573,-4.0569,-4.2797,-4.7012,-4.906,-5.1739,-5.6384,-5.7025,-5.7501,-5.8916,-5.8689,-5.8229,-5.7723,-5.7004,-5.625,-5.5491,-5.4588,-5.4224,-5.448,-5.4335,-5.406,-5.3615,-5.2959,-5.2201,-5.1321,-4.962,-4.843,-4.7672,-4.6958,-4.5406,-4.3214,-4.353,-4.2671,-4.097,-4.2073,0.0,-4.0963,-4.1705,-4.1585,-4.0912,-4.0912,-4.1094,-4.1373,-4.1018,-4.1094,-4.1401,0.0,0.0,0.0,0.0,0.0,0.0,0.0,-4.1397,-4.3717,-4.718,-4.7349,-4.6667,-4.5379,-4.3703,-4.2492,0.0,0.0,0.0,0.0,0.0,0.0,0.0,0.0,0.0,0.0,0.0,-4.1852,-4.2095,0.0,-4.295,-4.267,-4.3326,-4.3374,-4.2959,0.0,0.0,0.0,0.0,0.0,0.0,0.0,0.0,0.0,0.0,0.0,0.0,0.0,0.0,0.0,0.0,-4.806,-5.0861,-5.2651,-5.4268,-5.5723,-5.6974,-5.7597,-5.8092,-5.8964,-5.9184,-5.9001,-5.823,-5.604,-5.2957,-4.8916,-4.6364,-4.3549,-3.8973,-3.8537,-3.8769,-3.8072,-3.9833,-4.2184,-4.4546,-4.6924,-4.9938,-5.4025,-5.4958,-5.5959,-5.8074,-5.7919,-5.7427,-5.6884,-5.6132,-5.5414,-5.4727,-5.4153,-5.398,-5.4335,-5.3894,-5.3358,-5.2774,-5.2046,-5.1447,-5.1114,-4.9172,-4.8034,-4.77,-4.6517,-4.5105,-4.3506,-4.3704,-4.3075,-4.1859,-4.2456,-4.2219,-4.1516,-4.2124,-4.1905,-4.1255,-4.1485,-4.1687,-4.1842,-4.1644,-4.1709,-4.1864,0.0,0.0,0.0,0.0,0.0,0.0,-4.1309,-4.3544,-4.618,-4.9807,-5.1279,-5.1067,-4.8617,-4.5966,-4.3871,0.0,0.0,0.0,0.0,0.0,0.0,0.0,0.0,0.0,0.0,0.0,0.0,-4.0868,-4.1208,0.0,0.0,0.0,0.0,0.0,-4.1296,-4.1143,-4.0516,0.0,0.0,0.0,0.0,-4.3951,0.0,0.0,0.0,0.0,0.0,0.0,0.0,0.0,-4.7136,-4.9403,-5.2192,-5.4349,-5.6033,-5.695,-5.7831,-5.8621,-5.9074,-5.9441,-5.9648,-5.9276,-5.6785,-5.3231,-4.88,-4.6001,-4.2869,-3.78,-3.7534,-3.7919,-3.6964,-3.9015,-4.1157,-4.2046,-4.4629,-4.7793,-5.1415,-5.2634,-5.4177,-5.6913,-5.6691,-5.6148,-5.5741,-5.5127,-5.4546,-5.3966,-5.3783,-5.3764,-5.3886,-5.3384,-5.2771,-5.1981,-5.1407,-5.1028,-5.0873,-4.8769,-4.7689,-4.7672,-4.6138,-4.4938,-4.4032,-4.3991,-4.3499,-4.271,-4.2801,-4.2468,-4.1925,-4.2474,-4.2299,-4.1692,-4.2053,-4.2259,-4.2338,-4.2257,-4.2259,-4.2358,0.0,0.0,0.0,0.0,0.0,0.0,-4.1393,-4.4566,-4.8144,-5.2318,-5.2358,-5.2175,-5.2676,-4.9789,-4.6889,0.0,0.0,0.0,0.0,0.0,0.0,0.0,0.0,0.0,0.0,0.0,0.0,-4.1423,-4.1946,0.0,0.0,0.0,0.0,0.0,0.0,-4.0573,-4.0554,-4.1335,0.0,0.0,0.0,0.0,0.0,0.0,0.0,0.0,0.0,-4.4364,-4.3291,-4.5551,-4.5621,-4.5166,-4.7648,-5.2228,-5.6436,-5.5115,-5.7317,-6.0052,-5.9368,-6.0272,-6.1025,-5.9551,-5.6785,-5.3231,-4.88,-4.5334,-4.1897,-3.7727,-3.6869,-3.7004,-3.7335,-3.8019,-3.945,-4.2354,-4.4002,-4.6272,-5.0199,-5.1155,-5.2094,-5.3888,-5.3957,-5.3822,-5.3754,-5.3703,-5.3652,-5.3717,-5.37,-5.346,-5.2955,-5.3029,-5.253,-5.1222,-5.1149,-5.0787,-5.0114,-4.851,-4.7689,-4.7672,-4.6138,-4.5224,-4.4876,-4.4564,-4.3798,-4.2725,-4.3101,-4.2585,0.0,-4.2384,-4.2476,-4.2136,-4.2177,-4.2458,-4.2769,-4.2358,-4.2458,-4.2844,0.0,0.0,0.0,0.0,0.0,0.0,-4.2104,-4.4586,-4.7817,-5.2587,-5.3367,-5.3455,-5.3301,-5.1644,-4.9106,-4.5565,0.0,0.0,0.0,0.0,0.0,0.0,0.0,0.0,0.0,0.0,-4.1588,-4.2952,-4.2782,0.0,0.0,0.0,0.0,0.0,0.0,-4.1051,-4.1126,-4.1594,0.0,0.0,0.0,0.0,0.0,0.0,0.0,0.0,0.0,0.0,-4.3712,-4.4066,-4.3969,-4.378,-4.4049,-4.6637,-5.0017,-5.2291,-5.5464,-5.8272,-5.8437,-6.0015,-6.1208,-5.9588,-5.6436,-5.2705,-4.8936,-4.5036,-4.1233,-3.7929,-3.7018,-3.6869,-3.7053,-3.7404,-3.8344,-4.0461,-4.1213,-4.2714,-4.6186,-4.7033,-4.8331,-5.1178,-5.1876,-5.2486,-5.3416,-5.3501,-5.3534,-5.3584,-5.3127,-5.2665,-5.2155,-5.2215,-5.1703,-5.0464,-5.0442,-5.0304,-5.0011,-4.8476,-4.7689,-4.7672,-4.6138,-4.5411,-4.542,-4.5281,-4.4711,-4.3784,-4.3781,-4.3194,0.0,-4.2664,-4.2725,-4.2653,-4.2902,-4.3105,-4.325,-4.305,-4.3087,-4.3268,0.0,0.0,0.0,0.0,0.0,-3.9065,-4.2239,-4.4586,-4.7528,-5.1895,-5.3433,-5.3905,-5.332,-5.229,-5.0413,-4.7444,-4.4911,0.0,0.0,0.0,0.0,0.0,0.0,0.0,0.0,0.0,-4.2767,-4.4219,-4.414,-4.4458,0.0,0.0,-4.2749,-4.2174,0.0,0.0,0.0,0.0,0.0,0.0,0.0,0.0,0.0,0.0,0.0,0.0,0.0,0.0,0.0,0.0,0.0,-4.256,-4.1643,0.0,0.0,-4.8656,-5.2472,-5.5611,-5.6657,-5.8694,-6.0217,-5.8817,-5.5647,-5.1922,-4.8398,-4.4638,-4.107,-3.8259,-3.7358,-3.7017,-3.6858,-3.7408,-3.817,-3.9021,-3.9782,-4.1209,-4.395,-4.4726,-4.6179,-4.9373,-5.005,-5.0898,-5.2655,-5.323,-5.3501,-5.3501,-5.2976,-5.2363,-5.1682,-5.1631,-5.1032,-4.9689,-4.9666,-4.9545,-4.9338,-4.8045,-4.7389,-4.7372,-4.6035,-4.5616,-4.6047,-4.5815,-4.535,-4.4716,-4.4285,-4.3596,0.0,-4.2868,-4.2957,-4.3123,-4.3392,-4.3515,-4.3515,-4.3515,-4.3515,-4.3515,0.0,0.0,0.0,0.0,0.0,-3.8854,-4.1423,-4.4692,-4.7817,-5.0385,-5.2183,-5.3222,-5.3203,-5.1702,-5.0693,-5.0654,-4.6803,0.0,0.0,0.0,0.0,0.0,0.0,0.0,0.0,0.0,-4.4173,-4.4986,-4.6118,-4.6724,-4.6828,-4.5443,-4.4776,-4.4662,0.0,0.0,0.0,0.0,0.0,0.0,0.0,0.0,0.0,0.0,0.0,0.0,0.0,0.0,0.0,0.0,0.0,0.0,0.0,-4.0899,-4.1796,0.0,-4.8233,-5.2399,-5.3995,-5.6198,-5.7831,-5.7042,-5.4399,-5.093,-4.6856,-4.4048,-4.1489,-3.8658,-3.7756,-3.7377,-3.6978,-3.8199,-3.9126,-3.8666,-4.0666,-4.2888,-4.4629,-4.5348,-4.6532,-4.8748,-4.8392,-4.8785,-5.0999,-5.2604,-5.3501,-5.3501,-5.3501,-5.2907,-5.1558,-5.1522,-5.067,-4.8879,-4.881,-4.8448,-4.7724,-4.6993,-4.6613,-4.6613,-4.5776,-4.592,-4.6873,-4.6047,-4.5541,-4.5238,-4.4459,-4.3643,0.0,-4.29,-4.3124,-4.3479,-4.3515,-4.3515,-4.3515,-4.3515,-4.3515,-4.3515,0.0,0.0,0.0,0.0,0.0,0.0,-4.0604,-4.2335,-4.4538,-4.7682,-4.8567,-4.9769,-5.2058,-5.0818,-5.0048,-5.0654,-4.7334,0.0,0.0,0.0,0.0,0.0,0.0,0.0,0.0,-4.3763,-4.5126,-4.6578,-4.7529,-4.8057,-4.8161,-4.6663,-4.5357,-4.4213,-4.3119,-4.2903,0.0,0.0,0.0,0.0,0.0,0.0,-4.5558,0.0,0.0,0.0,0.0,0.0,0.0,0.0,0.0,0.0,0.0,0.0,0.0,-4.1052,-4.4856,-4.8893,-4.9939,-5.2032,-5.3427,-5.1481,-4.9407,-4.7205,-4.48,-4.2378,-4.0087,-3.8096,-3.7809,-3.7614,-3.6658,-3.712,-3.7945,-3.8802,-3.9663,-4.0717,-4.2053,-4.3805,-4.5568,-4.7276,-4.9999,-5.2012,-5.2706,-5.3213,-5.3501,-5.3501,-5.2536,-5.179,-5.1507,-5.0504,-4.9534,-4.8701,-4.865,-4.8363,-4.7707,-4.6975,-4.6613,-4.6596,-4.616,-4.6291,-4.6873,-4.6396,-4.5874,-4.5258,-4.4746,-4.3907,-4.292,-4.3196,-4.3375,-4.3515,-4.3515,-4.3515,-4.3515,-4.3515,-4.3515,-4.3497,0.0,0.0,0.0,0.0,0.0,0.0,-4.0246,-4.1527,-4.3162,-4.5605,-4.649,-4.7942,-5.0664,-5.0029,-4.9865,-5.1049,-4.8624,0.0,0.0,0.0,0.0,0.0,0.0,0.0,-4.34,-4.4576,-4.6158,-4.8218,-4.8753,-4.9418,-5.012,-4.8247,-4.6665,-4.534,-4.4175,-4.3785,0.0,0.0,0.0,0.0,0.0,0.0,-4.4863,0.0,0.0,0.0,0.0,0.0,0.0,0.0,0.0,0.0,0.0,0.0,0.0,0.0,-4.2029,-4.4746,-4.6489,-4.8288,-4.9334,-4.7792,-4.6177,-4.4562,-4.2965,-4.1084,-3.9351,-3.8197,-3.7913,-3.7685,-3.7094,-3.7304,-3.7901,-3.8898,-3.9339,-4.0029,-4.1395,-4.3053,-4.4807,-4.6583,-5.0253,-5.252,-5.2232,-5.2993,-5.3382,-5.3078,-5.2164,-5.13,-5.058,-4.9664,-4.8634,-4.7603,-4.7986,-4.7711,-4.6773,-4.6362,-4.6165,-4.6165,-4.6182,-4.6276,-4.6444,-4.6401,-4.5914,-4.5054,-4.4803,-4.4089,0.0,-4.3392,-4.3515,-4.3515,-4.3515,-4.3515,-4.3515,-4.3515,-4.348,-4.3464,0.0,0.0,0.0,0.0,0.0,0.0,0.0,-4.1835,-4.3201,-4.4028,-4.5586,-4.7298,-4.9029,-4.926,-4.9952,-5.1587,-5.0356,0.0,0.0,0.0,0.0,0.0,0.0,0.0,-4.4967,-4.5588,-4.715,-4.969,-4.982,-5.0764,-5.2416,-5.0139,-4.8637,-4.7776,-4.5548,-4.4643,-4.4881,-4.6223,-4.6167,-4.5258,-4.6003,-4.5314,0.0,0.0,0.0,0.0,0.0,0.0,0.0,0.0,0.0,0.0,0.0,0.0,0.0,0.0,0.0,0.0,0.0,-4.4856,-4.5461,-4.5406,-4.425,-4.2745,-4.1203,-3.9986,0.0,-3.8651,-3.7977,-3.7578,-3.802,-3.8403,-3.8722,-3.8996,-3.9621,-4.0631,-4.2193,-4.3179,-4.4536,-4.6701,-4.9509,-5.098,-5.0168,-5.2063,-5.3044,-5.2283,-5.2181,-5.1217,-4.912,-4.8951,-4.7996,-4.5954,-4.6851,-4.6677,-4.522,-4.5327,-4.5397,-4.5397,-4.598,-4.6077,-4.5713,-4.6155,-4.5745,0.0,-4.4636,-4.4177,-4.3497,-4.3497,-4.3497,-4.3515,-4.3515,-4.3515,-4.3515,-4.3515,-4.3464,-4.3394,0.0,0.0,0.0,0.0,0.0,0.0,0.0,0.0,0.0,0.0,-4.3316,-4.4893,-4.724,-4.8048,-4.8846,0.0,0.0,0.0,0.0,0.0,0.0,0.0,0.0,0.0,-4.4967,-4.5588,-4.7113,-4.9612,-5.0923,-5.2088,-5.3066,-5.2043,-5.0806,-4.936,-4.7029,-4.555,-4.4831,-4.5369,-4.5444,-4.5152,-4.4532,-4.4034,0.0,0.0,0.0,0.0,-4.1119,-4.0936,0.0,0.0,0.0,0.0,0.0,0.0,0.0,0.0,-3.8982,-3.9148,-3.99,0.0,-4.1148,-4.0543,-4.0102,-3.957,0.0,-3.8129,0.0,0.0,0.0,-3.7252,-3.7956,-3.8093,-3.837,-3.9243,-4.034,-4.1204,-4.1605,-4.4654,-4.7259,-4.8359,-5.0591,-5.1522,-5.0219,-5.1099,-5.1674,-5.1488,-5.0947,-5.0135,-4.9069,-4.8477,-4.7411,-4.5811,-4.6085,-4.5935,-4.522,-4.523,-4.53,-4.5397,-4.6315,-4.6384,-4.5695,-4.5919,-4.5517,-4.4583,-4.3979,-4.3594,-4.3411,-4.3411,-4.3464,-4.3515,-4.3515,-4.3515,-4.3515,-4.3515,-4.3464,-4.3394,0.0,0.0,0.0,0.0,0.0,0.0,0.0,0.0,0.0,0.0,-4.2566,-4.3912,-4.6067,-4.7375,-4.8461,0.0,0.0,0.0,0.0,0.0,0.0,0.0,0.0,-4.4618,-4.5523,-4.6139,-4.7847,-5.0712,-5.123,-5.232,-5.3815,-5.2447,-5.0972,-4.9324,-4.6701,-4.5247,-4.4831,-4.5505,-4.5491,-4.4969,-4.4429,0.0,0.0,0.0,0.0,0.0,-4.0227,-4.0282,0.0,-4.0817,-4.0763,-4.0467,0.0,0.0,0.0,0.0,-3.8138,-3.8065,-3.7616,-3.8951,-4.0359,-3.9918,-3.9808,-3.9588,-3.8796,0.0,0.0,0.0,0.0,-3.7363,-3.8299,-3.8116,-3.8187,-3.9399,-4.0339,-4.1367,-4.2673,-4.4897,-4.7039,-4.8798,-5.0067,-5.0744,-5.0625,-5.098,-5.1065,-5.0727,-5.0321,-4.9475,-4.8071,-4.7614,-4.6718,-4.5229,-4.5264,-4.5228,-4.5005,-4.5354,-4.5537,-4.5615,-4.6707,-4.6571,-4.5376,-4.5709,-4.5187,-4.4016,-4.3505,-4.3323,-4.3323,-4.3358,-4.3394,-4.3357,-4.3444,-4.348,-4.3464,-4.3497,-4.341,-4.3305,0.0,0.0,0.0,0.0,0.0,0.0,0.0,0.0,0.0,0.0,0.0,0.0,0.0,0.0,0.0,0.0,0.0,0.0,0.0,0.0,0.0,0.0,-4.6106,-4.6131,-4.6373,-4.6728,-4.8545,-5.1811,-5.1371,-5.2293,-5.4457,-5.2644,-5.073,-4.8694,-4.6078,-4.4837,-4.4808,-4.5769,-4.562,-4.472,-4.453,0.0,0.0,0.0,0.0,0.0,0.0,0.0,0.0,-4.072,-4.0956,-4.0969,-4.0797,0.0,0.0,0.0,0.0,0.0,-3.6622,-3.8813,-4.117,-4.0769,-4.0879,-4.0806,-3.9903,0.0,0.0,0.0,0.0,-3.7539,-3.8685,-3.8317,-3.833,-3.9738,-4.051,-4.1927,-4.4699,-4.5207,-4.6143,-4.8562,-4.9035,-4.9576,-5.0608,-5.0779,-5.0608,-4.9965,-4.9813,-4.8883,-4.6904,-4.6684,-4.6007,-4.4649,-4.4615,-4.4654,-4.4776,-4.5494,-4.5852,-4.5811,-4.6986,-4.6654,-4.4996,-4.5526,-4.4894,-4.3359,0.0,0.0,-4.3196,-4.3305,-4.3305,-4.3251,-4.3428,-4.3464,-4.3412,-4.3463,-4.3358,-4.3178,0.0,0.0,0.0,0.0,0.0,0.0,0.0,0.0,0.0,0.0,0.0,0.0,0.0,0.0,0.0,0.0,0.0,0.0,0.0,0.0,0.0,-4.7188,-4.5879,-4.5818,-4.7203,-4.647,-4.7682,-5.0986,-5.2234,-5.3371,-5.4421,-5.4859,-5.283,-4.875,-4.7664,-4.6171,-4.4484,-4.4657,-4.4619,-4.4339,-4.2993,0.0,0.0,0.0,0.0,0.0,0.0,0.0,0.0,-3.9224,-3.9636,-3.9971,-3.9294,0.0,0.0,0.0,0.0,0.0,-3.7833,-3.9993,-4.1438,-3.9341,-3.9838,-4.0475,-3.9026,-3.7995,0.0,0.0,0.0,-3.7148,-3.8558,-3.8677,-3.9112,-4.0853,-4.27,-4.475,-4.7073,-4.7936,-4.8257,-4.8075,-4.9171,-4.9526,-4.8528,-4.8984,-4.9289,-4.9187,-4.8595,-4.7834,-4.6836,-4.621,-4.5483,-4.4632,-4.4615,-4.4598,-4.4626,-4.531,-4.5709,-4.5811,-4.684,-4.6496,-4.4946,-4.5411,-4.4727,-4.3141,0.0,-4.3123,-4.3123,-4.3141,-4.3215,-4.3358,-4.3394,-4.3412,-4.3394,-4.3394,-4.3305,-4.3086,0.0,0.0,0.0,0.0,0.0,0.0,0.0,0.0,0.0,0.0,0.0,0.0,0.0,0.0,0.0,0.0,0.0,0.0,0.0,0.0,-4.9404,-4.8061,-4.7076,-4.6613,-4.676,-4.7941,-4.9499,-5.1444,-5.35,-5.4454,-5.4363,-5.3109,-5.091,-4.7994,-4.6822,-4.5565,-4.4346,-4.4369,-4.4397,-4.4266,0.0,0.0,0.0,0.0,0.0,0.0,0.0,0.0,0.0,0.0,-3.8711,-3.9231,-3.8833,0.0,0.0,0.0,0.0,0.0,-3.5813,-3.7938,-3.9913,-3.914,-4.0866,-4.2339,-4.075,-3.973,-3.8828,0.0,-3.7523,-3.776,-3.8793,-3.891,-3.9805,-4.2656,-4.3948,-4.5241,-4.7056,-4.6904,-4.6938,-4.7787,-4.8156,-4.8206,-4.7922,-4.8193,-4.824,-4.7834,-4.7496,-4.6989,-4.6244,-4.5889,-4.5348,-4.4632,-4.4615,-4.4615,-4.4615,-4.5433,-4.5885,-4.596,-4.6681,-4.6393,-4.5231,-4.4993,-4.4251,-4.3086,0.0,-4.2994,-4.2994,-4.3068,-4.3105,-4.3142,-4.3251,-4.3269,-4.3233,-4.3233,-4.3178,-4.3086,0.0,0.0,0.0,0.0,0.0,0.0,0.0,0.0,0.0,0.0,0.0,0.0,0.0,0.0,0.0,0.0,0.0,0.0,0.0,-5.0112,-4.9527,-4.8649,-4.8318,-4.782,-4.7055,-4.9137,-5.0802,-5.1995,-5.4032,-5.4821,-5.4344,-5.1746,-4.9508,-4.7591,-4.6255,-4.5119,-4.4206,-4.4265,-4.4289,-4.4172,0.0,0.0,0.0,0.0,0.0,0.0,0.0,0.0,0.0,0.0,0.0,0.0,0.0,0.0,0.0,-3.7,-3.5844,-3.4921,-3.4542,-3.638,-3.8554,-3.924,-4.1451,-4.3324,-4.265,-4.1594,-4.045,-3.9458,-3.9188,-3.9191,-3.9472,-3.9667,-4.0764,-4.3809,-4.4784,-4.5551,-4.687,-4.6227,-4.6244,-4.797,-4.7513,-4.7293,-4.7838,-4.772,-4.7411,-4.6836,-4.6633,-4.6295,-4.5737,-4.5551,-4.5094,-4.4333,-4.4316,-4.4298,-4.4221,-4.5119,-4.5659,-4.5835,-4.6431,-4.6179,-4.5157,-4.4539,-4.3812,-4.3049,-4.2938,-4.2901,-4.2919,-4.3012,-4.3012,-4.2957,-4.3123,-4.3142,-4.3086,-4.3049,-4.3049,-4.303,0.0,0.0,0.0,0.0,0.0,0.0,0.0,0.0,0.0,0.0,0.0,0.0,0.0,0.0,0.0,0.0,0.0,0.0,0.0,-4.9239,-4.8943,-4.8611,-4.8882,-4.9179,-4.9529,-4.8842,-4.9646,-5.1995,-5.2931,-5.3739,-5.4381,-5.3458,-5.1385,-4.8384,-4.7591,-4.5996,-4.3929,-4.3945,-4.3974,-4.3943,-4.3103,0.0,0.0,0.0,0.0,0.0,0.0,0.0,0.0,0.0,0.0,0.0,0.0,0.0,-3.8524,-3.7676,-3.6266,-3.5274,-3.659,-3.7656,-3.8554,-3.924,-4.0093,-4.1361,-4.3539,-4.2214,-4.0818,-4.1889,-4.1955,-4.1595,-4.0891,-4.1484,-4.2371,-4.3325,-4.5263,-4.6921,-4.7733,-4.8325,-4.8748,-4.89,-4.8291,-4.7821,-4.7889,-4.7293,-4.6853,-4.6786,-4.616,-4.5771,-4.5703,-4.5043,-4.4299,-4.3494,-4.3504,-4.3365,-4.3107,-4.3666,-4.4302,-4.5003,-4.6047,-4.5709,-4.4205,-4.4133,-4.368,-4.2901,-4.2901,-4.2901,-4.2901,-4.2901,-4.2975,-4.3086,-4.3104,-4.3104,-4.3086,-4.2957,-4.2901,-4.2901,0.0,0.0,0.0,0.0,0.0,0.0,0.0,0.0,0.0,0.0,0.0,-4.8317,-4.8856,0.0,0.0,0.0,0.0,0.0,0.0,-4.851,-4.8245,-4.7801,-4.8348,-4.8546,-4.831,-5.0295,-5.1811,-5.2747,-5.3555,-5.4106,-5.4363,-5.2587,-5.0274,-4.761,-4.6911,-4.5803,-4.4435,-4.4071,-4.4209,-4.4575,-4.3321,-4.2314,0.0,0.0,0.0,0.0,0.0,0.0,0.0,0.0,-3.6279,-3.727,-3.6607,-3.711,-3.7679,-3.634,-3.55,-3.4995,-3.5005,-3.6681,-3.8443,-3.8672,-3.9621,-4.1017,-4.2938,-4.2666,-4.2139,-4.2604,-4.2853,-4.2697,-4.1771,-4.2339,-4.325,-4.4012,-4.5635,-4.6887,-4.7175,-4.7462,-4.7631,-4.7631,-4.7394,-4.7039,-4.6599,-4.5855,-4.5213,-4.4722,-4.3995,-4.3792,-4.4237,-4.3572,-4.3234,-4.3392,-4.2963,-4.2796,-4.3011,-4.3533,-4.3826,-4.3908,-4.4643,-4.4693,-4.4077,-4.357,-4.3191,-4.2901,-4.2901,-4.2901,-4.2901,-4.2901,-4.2938,-4.2975,-4.2975,-4.2975,-4.2975,-4.2919,-4.2901,-4.2901,0.0,0.0,0.0,0.0,0.0,0.0,0.0,0.0,-4.4633,0.0,0.0,0.0,0.0,-4.8759,0.0,0.0,0.0,0.0,-4.7317,-4.7567,-4.7602,-4.7308,-4.7753,-4.7834,-4.7404,-5.048,-5.2071,-5.2068,-5.2876,-5.3261,-5.3225,-5.1316,-4.9499,-4.7829,-4.6856,-4.6102,-4.553,-4.4581,-4.4552,-4.499,-4.3664,-4.2541,0.0,0.0,0.0,0.0,0.0,0.0,0.0,0.0,-3.5193,-3.6025,-3.5588,-3.6207,-3.6905,-3.5752,-3.5224,-3.488,-3.4257,-3.582,-3.7694,-3.7869,-3.9221,-4.0981,-4.2846,-4.3063,-4.3191,-4.4204,-4.4001,-4.3426,-4.2694,-4.2646,-4.2932,-4.363,-4.5055,-4.6092,-4.6092,-4.6498,-4.6701,-4.6481,-4.6447,-4.6058,-4.5077,-4.4519,-4.3893,-4.3115,-4.2591,-4.2523,-4.3031,-4.2574,-4.2422,-4.2709,-4.236,-4.2295,-4.2514,-4.3033,-4.3261,-4.3187,-4.3561,-4.3715,-4.3697,-4.3155,-4.2901,-4.2901,-4.2901,-4.2901,-4.2901,-4.2901,-4.2901,-4.2901,-4.2901,-4.2901,-4.2901,-4.2901,-4.2901,-4.2901,0.0,0.0,0.0,0.0,0.0,0.0,0.0,0.0,-4.4003,-4.5398,-4.6128,0.0,0.0,0.0,0.0,0.0,0.0,0.0,-4.5594,-4.6394,-4.697,-4.7252,-4.7218,-4.7233,-4.7349,-4.8882,-4.9652,-4.9629,-5.0398,-5.0802,-5.0765,-4.9978,-4.9555,-4.9407,-4.781,-4.7169,-4.7187,-4.5513,-4.4915,-4.5027,-4.423,-4.2981,-4.1423,0.0,0.0,0.0,0.0,0.0,0.0,0.0,-3.5349,-3.543,-3.6155,-3.6342,-3.6303,-3.6266,-3.5665,-3.499,-3.4916,-3.5451,-3.6185,-3.6924,-3.8839,-4.1126,-4.3552,-4.348,-4.3806,-4.7029,-4.5681,-4.3886,-4.3816,-4.2383,-4.1367,-4.1825,-4.3396,-4.4581,-4.4581,-4.5821,-4.6481,-4.5754,-4.5669,-4.5077,-4.3527,-4.3375,-4.3081,-4.2337,-4.2269,-4.2269,-4.2286,-4.2269,-4.1948,-4.1221,-4.1669,-4.1764,-4.1521,-4.1973,-4.2438,-4.2901,-4.2901,-4.2901,-4.2901,-4.2901,-4.2901,-4.2901,-4.2901,-4.2901,-4.2901,-4.2901,-4.2901,-4.2901,-4.2901,-4.2901,-4.2901,-4.2901,-4.2901,-4.2901,0.0,0.0,0.0,0.0,0.0,0.0,0.0,0.0,-4.4552,-4.4981,-4.5726,0.0,0.0,0.0,0.0,0.0,0.0,0.0,-4.4682,-4.4393,-4.4346,-4.463,-4.5199,-4.5322,-4.4873,-4.5716,-4.7848,-5.13,-5.038,-4.9978,-4.9941,-4.9077,-4.8379,-4.7791,-4.7314,-4.6801,-4.625,-4.5237,-4.4829,-4.4843,-4.4118,-4.2905,-4.1482,0.0,0.0,0.0,0.0,0.0,0.0,0.0,0.0,0.0,-3.4787,-3.579,-3.6795,-3.5055,-3.5183,-3.5646,-3.444,-3.5462,-3.7036,-3.7824,-3.969,-4.1976,-4.4385,-4.4313,-4.4331,-4.6432,-4.5541,-4.4427,-4.4607,-4.3408,-4.2322,-4.2079,-4.2416,-4.2707,-4.2707,-4.3076,-4.3278,-4.306,-4.3126,-4.2985,-4.253,-4.2088,-4.1762,-4.1542,-4.106,-4.0993,-4.1508,-4.1018,-4.1027,-4.1677,-4.1309,-4.1406,-4.199,-4.2136,-4.2438,-4.2901,-4.2901,-4.2901,-4.2901,-4.2901,-4.2901,-4.2901,-4.2901,-4.2901,-4.2901,-4.2901,-4.2901,-4.2901,-4.2901,-4.2901,-4.2901,-4.2901,-4.2901,-4.2901,0.0,0.0,0.0,0.0,0.0,0.0,-4.2575,-4.3455,-4.4088,-4.4302,-4.4688,-4.5174,0.0,0.0,0.0,0.0,0.0,0.0,-4.3835,-4.3662,-4.3561,-4.35,-4.434,-4.464,-4.4282,-4.487,-4.6617,-4.9572,-4.8619,-4.8142,-4.8142,-4.7921,-4.7736,-4.7571,-4.7571,-4.7296,-4.6783,-4.5699,-4.5072,-4.4739,-4.4016,-4.2807,-4.1351,0.0,0.0,0.0,0.0,0.0,0.0,0.0,0.0,0.0,-3.4125,-3.4926,-3.5703,-3.3857,-3.4045,-3.4688,-3.399,-3.5249,-3.7174,-3.8913,-4.1051,-4.3174,-4.4892,-4.5417,-4.5777,-4.6713,-4.5469,-4.443,-4.5023,-4.321,-4.1682,-4.1848,-4.1651,-4.1462,-4.1462,-4.1714,-4.1781,-4.1496,-4.1785,-4.1789,-4.1201,-4.1131,-4.1008,-4.0721,-4.0316,-4.0299,-4.073,-4.035,-4.0508,-4.1433,-4.1197,-4.1432,-4.2177,-4.2378,-4.2614,-4.2901,-4.2901,-4.2901,-4.2901,-4.2901,-4.2901,-4.2901,-4.2901,-4.2901,-4.2901,-4.2901,-4.2901,-4.2901,-4.2901,-4.2901,-4.2901,-4.2901,-4.2901,-4.2901,0.0,0.0,-3.9271,-4.0159,0.0,0.0,-4.1809,-4.2445,-4.2967,-4.3466,-4.3308,-4.3557,0.0,0.0,0.0,-4.3875,0.0,0.0,0.0,-4.3585,-4.38,-4.344,-4.4347,-4.4932,-4.5114,-4.5551,-4.5792,-4.5792,-4.5718,-4.5755,-4.5902,-4.6562,-4.7351,-4.8196,-4.8196,-4.8122,-4.7884,-4.6324,-4.5221,-4.4408,-4.3655,-4.2488,-4.1015,-3.9468,0.0,0.0,0.0,0.0,0.0,0.0,0.0,0.0,-3.4023,-3.4015,-3.3845,-3.2957,-3.2706,-3.2876,-3.3697,-3.4926,-3.6778,-4.0096,-4.2723,-4.4648,-4.5166,-4.6432,-4.7422,-4.7165,-4.532,-4.4027,-4.49,-4.2221,-4.0213,-4.124,-4.0989,-4.0672,-4.0672,-4.1251,-4.1418,-4.0739,-4.1268,-4.1151,-3.9811,-4.0411,-4.0634,-3.9951,-4.0037,-4.0096,-4.0096,-4.0045,-4.026,-4.0849,-4.1206,-4.169,-4.2259,-4.262,-4.2792,-4.2792,-4.272,-4.2665,-4.2702,-4.2829,-4.2901,-4.2901,-4.2756,-4.2719,-4.2792,-4.2792,-4.2792,-4.2792,-4.2883,-4.2901,-4.2901,-4.2901,-4.2901,-4.2901,0.0,0.0,-3.9474,-4.0955,0.0,0.0,-4.1543,-4.2322,-4.2824,-4.2953,-4.2909,-4.3052,-4.3519,-4.3035,0.0,-4.2966,-4.2598,0.0,0.0,-4.1604,-4.1792,-4.2827,-4.4403,-4.5475,-4.5945,-4.5293,-4.4966,-4.4966,-4.4323,-4.4654,-4.5883,-4.5443,-4.5975,-4.7351,-4.7351,-4.6654,-4.5424,-4.4433,-4.3203,-4.1881,-4.1715,-4.1084,-4.017,-3.919,-3.787,0.0,0.0,0.0,0.0,0.0,0.0,0.0,-3.4086,-3.4478,-3.4746,-3.3868,-3.3571,-3.3715,-3.4527,-3.4944,-3.6223,-4.0691,-4.4016,-4.6028,-4.5437,-4.5562,-4.5495,-4.4357,-4.4209,-4.4041,-4.3383,-4.2039,-4.0985,-4.0838,-4.0137,-3.9611,-3.9611,-3.9771,-3.9794,-3.9628,-3.9867,-3.9887,-3.9571,-3.9906,-4.0069,-3.9918,-4.0037,-4.0096,-4.0096,-3.9554,-3.9884,-4.1286,-4.0898,-4.1328,-4.2731,-4.221,-4.1958,-4.194,-4.1325,-4.1017,-4.1071,-4.2321,-4.2901,-4.2829,-4.156,-4.1379,-4.1958,-4.1958,-4.1958,-4.2012,-4.2647,-4.2901,-4.2901,-4.2901,-4.2901,-4.2901,0.0,0.0,0.0,0.0,0.0,0.0,0.0,0.0,-4.3098,-4.2273,-4.2225,-4.2277,-4.2431,-4.1913,0.0,0.0,-4.1647,0.0,0.0,0.0,-4.1609,-4.3017,-4.4175,-4.4678,-4.4485,-4.4262,-4.3754,-4.2966,-4.2176,-4.2983,-4.5333,-4.5296,-4.5938,-4.7076,-4.6691,-4.5865,-4.4618,-4.3424,-4.2213,-4.1095,-4.1095,-4.0632,-3.9816,-3.8636,-3.7466,-3.6307,-3.5106,0.0,0.0,0.0,0.0,0.0,0.0,0.0,-3.445,-3.3594,-3.3272,-3.3403,-3.4197,-3.499,-3.6813,-4.2004,-4.5001,-4.6464,-4.5608,-4.504,-4.4337,-4.2926,-4.3202,-4.357,-4.3039,-4.174,-4.0688,-4.0544,-3.9833,-3.9299,-3.9299,-3.9299,-3.9299,-3.9299,-3.9352,-3.9405,-3.9405,-3.959,-3.9595,-3.9294,-3.9724,-3.9733,-3.9073,-3.919,-3.9635,-4.0393,-4.0217,-4.0644,-4.1741,-4.1325,-4.1126,-4.1126,-4.0691,-4.0492,-4.0528,-4.1379,-4.1959,-4.2266,-4.1017,-4.0727,-4.1126,-4.1126,-4.1343,-4.1741,-4.2158,-4.2556,-4.2901,-4.2901,-4.2901,-4.2901,0.0,0.0,0.0,0.0,0.0,0.0,0.0,0.0,0.0,-4.1674,-4.1564,-4.1609,-4.1575,-4.0977,-4.0583,0.0,0.0,0.0,0.0,0.0,0.0,-4.3182,-4.3685,-4.3505,-4.2617,-4.3065,-4.2578,-4.1095,-4.0432,-4.168,-4.4727,-4.5241,-4.6067,-4.7058,-4.6122,-4.5259,-4.4378,-4.2635,-4.1423,-4.0691,-4.0691,-4.0304,-3.9533,-3.8062,-3.7118,-3.6366,-3.4723,-3.4212,-3.4265,-3.4142,0.0,0.0,0.0,0.0,-3.3843,-3.3116,-3.2757,-3.2803,-3.3752,-3.5532,-3.8218,-4.2826,-4.5166,-4.6124,-4.5286,-4.4482,-4.3582,-4.2387,-4.2449,-4.2695,-4.2687,-4.117,-3.9984,-4.0192,-3.9696,-3.9265,-3.9133,-3.9116,-3.9067,-3.895,-3.8934,-3.8984,-3.91,-3.9106,-3.897,-3.8614,-3.9169,-3.9042,-3.7949,-3.8744,-3.9205,-3.9217,-3.9465,-3.9889,-4.0492,-4.0365,-4.0311,-4.0311,-4.0166,-4.0166,-4.0311,-4.0184,-4.0601,-4.1433,-4.051,-4.0166,-4.0311,-4.0438,-4.089,-4.1524,-4.1795,-4.2321,-4.2901,-4.2901,-4.2901,-4.2901,0.0,0.0,0.0,0.0,0.0,0.0,0.0,0.0,0.0,0.0,-4.1564,-4.1579,-4.1504,-4.04,-3.9395,-3.8729,-3.946,-3.9686,-3.9017,0.0,0.0,-4.2076,-4.2819,-4.3021,-4.2617,-4.258,-4.2077,-4.1095,-4.0985,-4.2214,-4.469,-4.4103,-4.4984,-4.7039,-4.5517,-4.4415,-4.3497,-4.1201,-3.9753,-3.9019,-3.9019,-3.8964,-3.8762,-3.786,-3.7437,-3.714,-3.5598,-3.5036,-3.4952,-3.4244,-3.4023,0.0,0.0,0.0,-3.3889,-3.3766,-3.3198,-3.2931,-3.4435,-3.7591,-4.0602,-4.1234,-4.3157,-4.462,-4.3651,-4.3322,-4.3139,-4.2843,-4.2107,-4.1342,-4.073,-4.0045,-3.9544,-3.9458,-3.9365,-3.9083,-3.8444,-3.8361,-3.8112,-3.7466,-3.74,-3.7649,-3.8295,-3.7893,-3.7878,-3.8556,-3.8228,-3.7964,-3.7898,-3.7775,-3.8157,-3.9182,-3.897,-3.937,-4.0492,-3.9876,-3.955,-3.9532,-3.8826,-3.8862,-3.9514,-3.8826,-3.9297,-4.0583,-3.9134,-3.8898,-3.9604,-4.0256,-4.0564,-4.08,-4.2194,-4.281,-4.2901,-4.2901,-4.2901,-4.2901,0.0,0.0,0.0,0.0,0.0,0.0,0.0,0.0,0.0,0.0,0.0,-4.0752,-4.077,-3.9835,-3.9149,-3.8995,-3.8832,-3.8437,-3.775,-3.9278,-4.0301,-4.0534,-4.0825,-4.0831,-4.0532,-4.0412,-3.9913,-3.9074,-3.9533,-4.1222,-4.4011,-4.3663,-4.5021,-4.7681,-4.5608,-4.425,-4.3349,-4.091,-3.9441,-3.8707,-3.8707,-3.8432,-3.7988,-3.7639,-3.7217,-3.674,-3.607,-3.5528,-3.5096,-3.4787,-3.4365,-3.3998,-3.3998,0.0,0.0,0.0,-3.3603,-3.3532,-3.4692,-3.6986,-3.9405,-4.0696,-4.2148,-4.3249,-4.3269,-4.3196,-4.2869,-4.1869,-4.1432,-4.1127,-4.0764,-4.0463,-4.007,-3.9415,-3.8941,-3.8576,-3.8261,-3.7847,-3.7466,-3.7152,-3.7102,-3.7235,-3.7566,-3.7335,-3.722,-3.7244,-3.7475,-3.7295,-3.6588,-3.7309,-3.7801,-3.7918,-3.8237,-3.8471,-3.8536,-3.8227,-3.8064,-3.8064,-3.8154,-3.839,-3.8734,-3.8372,-3.8808,-3.9822,-3.8681,-3.8408,-3.8752,-3.9079,-3.9731,-4.0564,-4.1289,-4.2103,-4.2901,-4.2901,-4.2901,-4.2901,0.0,0.0,0.0,0.0,0.0,0.0,0.0,0.0,0.0,0.0,0.0,-3.9885,-4.0119,0.0,0.0,0.0,-3.8508,-3.8011,-3.7566,-3.8696,-3.9389,-3.9401,-3.9285,-3.8924,-3.8297,-3.839,-3.8006,-3.7199,-3.7991,-4.0139,-4.3515,-4.3515,-4.5223,-4.8214,-4.5993,-4.4562,-4.3644,-4.1222,-3.9863,-3.9258,-3.8634,-3.8043,-3.7474,-3.7272,-3.6831,-3.6303,-3.6303,-3.5909,-3.5381,-3.5216,-3.476,-3.4223,-3.4002,-3.3908,0.0,0.0,0.0,-3.3935,-3.4527,-3.6064,-3.7878,-3.9478,-4.0899,-4.2021,-4.237,-4.2537,-4.2248,-4.0976,-4.0908,-4.0974,-4.0657,-4.0533,-4.0148,-3.9237,-3.8586,-3.8053,-3.7673,-3.7168,-3.6754,-3.6572,-3.6539,-3.6622,-3.6804,-3.6655,-3.6456,-3.6213,-3.6658,-3.6535,-3.5559,-3.6717,-3.7161,-3.6619,-3.7255,-3.7286,-3.6705,-3.6705,-3.6796,-3.7013,-3.7611,-3.8009,-3.8209,-3.8209,-3.8535,-3.9061,-3.8462,-3.8209,-3.8227,-3.8426,-3.9297,-4.051,-4.0727,-4.1669,-4.2901,-4.2901,-4.2901,-4.2901,0.0,0.0,0.0,0.0,0.0,0.0,0.0,0.0,0.0,0.0,0.0,0.0,-3.993,-3.9346,-3.8611,-3.7867,-3.8502,-3.8961,-3.8985,-3.9008,-3.9045,-3.9129,-3.9045,0.0,-3.6666,-3.7307,-3.722,-3.6358,-3.718,-3.9604,-4.3515,-4.3515,-4.5223,-4.8233,-4.6562,-4.5388,-4.4471,-4.2049,-4.1003,-4.0783,-3.8484,-3.7547,-3.7419,-3.6652,-3.634,-3.6303,-3.6303,-3.6266,-3.6115,-3.5279,-3.4986,-3.4816,-3.4059,-3.382,-3.382,0.0,0.0,0.0,-3.3844,-3.5624,-3.7345,-3.6707,-3.8872,-4.0934,-4.0083,-4.0487,-4.0982,-4.0826,-4.0758,-4.0402,-3.94,-3.9254,-3.9101,-3.8538,-3.8306,-3.7715,-3.6307,-3.6075,-3.5794,-3.5098,-3.5015,-3.5297,-3.5992,-3.5413,-3.5328,-3.613,-3.5706,-3.5444,-3.5492,-3.5693,-3.5791,-3.5756,-3.5876,-3.5894,-3.5858,-3.5858,-3.6254,-3.6995,-3.7049,-3.7466,-3.8209,-3.8209,-3.8227,-3.8263,-3.8227,-3.8209,-3.8263,-3.9024,-3.9804,-4.0583,-4.1343,-4.2158,-4.2901,-4.2901,-4.2901,-4.2957,0.0,0.0,0.0,0.0,0.0,0.0,0.0,0.0,0.0,0.0,0.0,0.0,0.0,-3.8988,-3.8737,-3.8489,-3.8759,-3.851,-3.7498,-3.8423,-3.8785,-3.8294,-3.8206,-3.7646,-3.6505,-3.6675,-3.6607,-3.6303,-3.7107,-3.9035,-4.1974,-4.2488,-4.3626,-4.5223,-4.5168,-4.469,-4.3773,-4.135,-4.0029,-3.9441,-3.8062,-3.7199,-3.6703,-3.6413,-3.5954,-3.5536,-3.6101,-3.6303,-3.6248,-3.5936,-3.5844,-3.5697,-3.4839,-3.4564,-3.4472,-3.3954,-3.3807,-3.3807,-3.3807,-3.4449,-3.5312,-3.6101,-3.7165,-3.8068,-3.8255,-3.9302,-3.9928,-3.8791,-3.9312,-3.9678,-3.8653,-3.8789,-3.8786,-3.7844,-3.7253,-3.6803,-3.6501,-3.5795,-3.53,-3.535,-3.4662,-3.4485,-3.5214,-3.4618,-3.4525,-3.5319,-3.5325,-3.5113,-3.4684,-3.5307,-3.5475,-3.5003,-3.5517,-3.555,-3.5025,-3.5025,-3.5186,-3.5457,-3.5983,-3.6653,-3.7412,-3.6888,-3.6942,-3.743,-3.743,-3.772,-3.8227,-3.8517,-3.9079,-3.9822,-4.0111,-4.0999,-4.214,-4.214,-4.2596,-4.3249,0.0,0.0,0.0,-4.1334,0.0,-3.9937,-3.8872,-3.8707,-3.8707,-3.8707,0.0,0.0,0.0,0.0,-3.8792,-3.8866,-3.8851,-3.8409,-3.7363,-3.8334,-3.8695,-3.8192,-3.8116,-3.7571,-3.6482,-3.6613,-3.656,-3.6303,-3.7107,-3.8726,-4.1113,-4.1662,-4.2453,-4.3463,-4.3205,-4.324,-4.3386,-4.1497,-4.0249,-3.9368,-3.7734,-3.6942,-3.6684,-3.6395,-3.5936,-3.5555,-3.6395,-3.6523,-3.6266,-3.5973,-3.5862,-3.5716,-3.4857,-3.4601,-3.4491,-3.3972,-3.3807,-3.3807,-3.3807,-3.4009,-3.4468,-3.5587,-3.6083,-3.6358,-3.6597,-3.7918,-3.8692,-3.7256,-3.8167,-3.8948,-3.7972,-3.8081,-3.8057,-3.7211,-3.6569,-3.6248,-3.6366,-3.5434,-3.5002,-3.5737,-3.4868,-3.4466,-3.5081,-3.4674,-3.4539,-3.4873,-3.5152,-3.509,-3.4599,-3.5045,-3.4955,-3.4233,-3.4717,-3.4736,-3.4208,-3.4208,-3.4335,-3.4624,-3.5134,-3.582,-3.658,-3.6055,-3.6091,-3.6598,-3.6886,-3.7303,-3.7828,-3.81,-3.8663,-3.9387,-3.9387,-4.0184,-4.1325,-4.1596,-4.2178,-4.2901,-4.447,-4.3369,-4.2047,-4.126,-4.1113,-4.0563,-3.9019,-3.8762,-3.8744,-3.8781,0.0,0.0,0.0,0.0,0.0,-3.8865,-3.879,-3.8787,-3.8896,-3.8837,-3.8837,-3.8877,-3.8837,-3.807,-3.6472,-3.7099,-3.7088,-3.6303,-3.7088,-3.867,-4.0985,-4.104,-4.1851,-4.3138,-4.0914,-4.1185,-4.3296,-4.2506,-4.1717,-4.0747,-3.7606,-3.6813,-3.7419,-3.6593,-3.6266,-3.638,-3.7147,-3.6945,-3.6178,-3.5302,-3.5064,-3.4954,-3.411,-3.3817,-3.3812,-3.378,-3.3793,-3.3793,0.0,0.0,0.0,-3.4954,-3.5591,-3.6009,-3.5151,-3.6248,-3.7199,-3.6413,-3.7418,-3.816,-3.7306,-3.7026,-3.6838,-3.6598,-3.6346,-3.6095,-3.5863,-3.5028,-3.4873,-3.6048,-3.5518,-3.5193,-3.5537,-3.552,-3.5334,-3.493,-3.5135,-3.5291,-3.5281,-3.4766,-3.4145,-3.3418,-3.3393,-3.3393,-3.3393,-3.3393,-3.3791,-3.4555,-3.4555,-3.4989,-3.575,-3.5731,-3.5731,-3.5804,-3.6633,-3.6959,-3.7031,-3.7865,-3.8662,-3.9369,-3.9387,-3.9858,-4.0601,-4.1397,-4.1705,-4.1942,-4.2818,-4.2616,-4.2231,-4.2011,-4.148,-4.0948,-4.049,-3.9937,-3.9772,0.0,0.0,0.0,-4.0359,-4.0435,-4.0432,-4.0464,-3.9916,-3.9328,-3.8787,-3.8777,-3.8807,-3.8837,-3.8822,-3.8328,-3.7282,-3.6842,-3.6505,-3.6303,-3.6505,-3.7228,-3.8379,-3.9603,-4.0012,-3.9781,-3.9705,-3.9739,-3.9776,-3.9101,-3.9038,-3.9239,-3.7768,-3.7309,-3.7345,-3.5917,-3.5557,-3.5817,-3.5457,-3.5926,-3.6614,-3.5766,-3.6274,-3.6951,-3.5335,-3.4581,-3.4134,-3.3331,-3.3243,-3.3437,-3.3437,0.0,0.0,0.0,0.0,0.0,-3.4192,-3.4931,-3.5628,-3.5408,-3.6102,-3.6521,-3.574,-3.5454,-3.5306,-3.5248,-3.5487,-3.5853,-3.6305,-3.5818,-3.5544,-3.5935,-3.4726,-3.4092,-3.4687,-3.3979,-3.3883,0.0,-3.5065,-3.5092,-3.4958,-3.4434,-3.3914,-3.3414,-3.3393,-3.3393,-3.3393,-3.3393,-3.352,-3.3737,-3.3737,-3.4154,-3.4899,-3.4335,-3.4389,-3.4971,-3.5783,-3.6127,-3.6236,-3.7631,-3.8336,-3.8589,-3.917,-3.9858,-4.0601,-4.1397,-4.2214,-4.2991,-4.2213,-4.2304,-4.2415,-4.2745,-4.2415,-4.2103,-4.2103,-4.1699,-4.1442,0.0,0.0,0.0,-4.104,-4.1389,-4.1315,-4.0671,-4.0175,-3.9551,-3.8762,-3.8735,-3.8765,-3.8765,-3.8765,-3.8379,-3.757,-3.7397,-3.7129,-3.6813,-3.7129,-3.7469,-3.7817,-3.8802,-3.894,-3.8352,-3.8182,-3.82,-3.8296,-3.729,-3.7549,-3.8535,-3.7744,-3.7555,-3.7645,-3.6635,-3.634,-3.6387,-3.5921,-3.6154,-3.6531,-3.5705,-3.6082,-3.6641,-3.5506,-3.4982,-3.4557,-3.3593,-3.344,-3.351,-3.3183,-3.335,-3.367,-3.4012,0.0,0.0,-3.3385,-3.3922,-3.4307,-3.3628,-3.4371,-3.4954,-3.4316,-3.4085,-3.397,-3.3954,-3.4603,-3.5456,-3.6531,-3.6197,-3.6055,-3.6589,-3.5472,-3.4789,-3.513,-3.4549,-3.4376,-3.4857,-3.5081,-3.5037,-3.4697,-3.4552,-3.4119,-3.3414,-3.3393,-3.3393,-3.3393,-3.3393,-3.3393,-3.3393,-3.3393,-3.3647,-3.4081,-3.361,-3.3665,-3.4172,-3.5297,-3.5804,-3.5912,-3.754,-3.8209,-3.8263,-3.8717,-3.9369,-4.0148,-4.0908,-4.1814,-4.2757,0.0,-4.2378,-4.269,-4.3479,-4.3626,-4.3644,-4.3736,-4.3698,-4.3406,0.0,-4.2084,-4.1627,-4.1627,-4.2194,-4.1956,-4.043,-4.0139,-3.968,-3.8891,-3.8762,-3.8707,-3.8707,-3.8707,-3.8377,-3.7658,-3.8248,-3.8212,-3.7492,-3.8212,-3.8496,-3.8366,-3.8457,-3.8362,-3.8091,-3.6625,-3.6789,-3.8054,-3.6604,-3.6866,-3.823,-3.7609,-3.763,-3.8033,-3.784,-3.7631,-3.7414,-3.7307,-3.6897,-3.6257,-3.5545,-3.526,-3.5207,-3.5137,-3.5137,-3.5029,-3.4248,-3.4034,-3.3907,-3.3194,0.0,0.0,-3.4335,-3.4251,0.0,-3.2931,-3.3293,-3.3366,-3.1856,-3.2596,-3.341,-3.3051,-3.2919,-3.2907,-3.2976,-3.382,-3.4968,-3.6486,-3.6324,-3.6448,-3.7471,-3.6863,-3.6304,-3.6187,-3.6073,-3.5718,-3.5031,-3.5258,-3.5202,-3.4701,-3.4995,-3.4672,-3.3559,-3.3447,-3.3393,-3.3393,-3.3393,-3.3393,-3.3393,-3.3393,-3.3393,-3.3393,-3.3393,-3.3393,-3.3502,-3.5098,-3.5804,-3.5912,-3.754,-3.8209,-3.8209,-3.8299,-3.8808,-3.9604,-4.0365,-4.1144,-4.1977,-4.2304,-4.2818,-4.3516,-4.4342,-4.447,-4.469,-4.5333,-4.4874,-4.4635,-4.5131,-4.5057,-4.4966,-4.4966,-4.4525,-4.3846,-4.289,-4.1607,-4.0524,-3.9717,-3.9056,-3.8707,-3.8707,-3.8707,-3.8634,-3.8469,-3.7988,-3.7658,-3.7492,-3.7658,-3.7641,-3.7468,-3.8123,-3.8006,-3.721,-3.625,-3.6359,-3.7209,-3.6308,-3.6304,-3.6941,-3.7479,-3.7769,-3.7754,-3.6702,-3.6531,-3.6757,-3.6104,-3.6268,-3.6751,-3.6592,-3.6341,-3.5954,-3.5374,-3.5395,-3.5446,-3.4391,-3.4258,-3.4462,-3.4286,-3.4499,-3.4713,-3.4553,-3.493,0.0,-3.3844,-3.3697,-3.3532,-3.2559,-3.21,-3.1955,-3.223,-3.2227,-3.2486,-3.3388,-3.3896,-3.4603,-3.5814,-3.6637,-3.7058,-3.6997,-3.6435,-3.6054,-3.5969,-3.5291,-3.5011,-3.5425,-3.5959,-3.6087,-3.5734,-3.5679,-3.527,-3.4392,-3.3737,-3.3393,-3.3393,-3.3393,-3.3393,-3.3393,-3.3393,-3.3393,-3.3393,-3.3393,-3.3393,-3.3502,-3.5098,-3.5804,-3.5912,-3.754,-3.8209,-3.8263,-3.8898,-3.9623,-4.0383,-4.1162,-4.1995,-4.2702,-4.2378,-4.3277,-4.4342,-4.5168,-4.5296,-4.5718,-4.6911,-4.6416,-4.603,-4.6452,-4.6159,-4.5902,-4.5902,-4.5186,-4.4213,-4.3002,-4.2158,-4.102,-3.9405,-3.9294,-3.9129,-3.8726,-3.8707,-3.8707,-3.8707,-3.8303,-3.8102,-3.8102,-3.8034,-3.7828,-3.7504,-3.7887,-3.7334,-3.6047,-3.6048,-3.6048,-3.6064,-3.6347,-3.6548,-3.6771,-3.7471,-3.7309,-3.6624,-3.6285,-3.6235,-3.6298,-3.5897,-3.6101,-3.6533,-3.6533,-3.6434,-3.6241,-3.5876,-3.5896,-3.5844,-3.4933,-3.4768,-3.482,-3.4455,-3.4616,-3.4854,-3.4855,-3.4993,0.0,0.0,-3.3495,-3.3091,-3.2674,-3.1641,-3.0998,-3.1644,-3.1369,-3.146,-3.2657,-3.305,-3.3764,-3.5367,-3.6114,-3.6429,-3.6235,-3.593,-3.5794,-3.5892,-3.5468,-3.5439,-3.6032,-3.6548,-3.6648,-3.6185,-3.6316,-3.5856,-3.4643,-3.4208,-3.381,-3.3393,-3.3393,-3.3393,-3.3393,-3.3393,-3.3393,-3.3393,-3.3393,-3.3393,-3.3502,-3.5098,-3.5804,-3.5912,-3.754,-3.8209,-3.8245,-3.8627,-3.926,-4.0039,-4.0818,-4.1596,-4.2357,-4.2231,-4.324,-4.4488,-4.5296,-4.5681,-4.6397,-4.7865,-4.7645,-4.7333,-4.7333,-4.6783,-4.6305,-4.6159,-4.5278,-4.425,-4.3094,-4.2286,-4.1203,-3.9717,-3.9643,-3.9386,-3.8726,-3.8707,-3.8634,-3.8469,-3.8615,-3.8658,-3.8596,-3.8446,-3.8132,-3.7685,-3.7596,-3.6809,-3.5456,-3.583,-3.5776,-3.5492,-3.623,-3.656,-3.6611,-3.721,-3.6722,-3.5702,-3.6087,-3.6135,-3.5954,-3.5997,-3.6079,-3.6182,-3.6187,-3.6251,-3.628,-3.6301,-3.6301,-3.618,-3.5576,-3.5404,-3.5266,-3.47,-3.4727,-3.5,-3.5226,-3.5021,-3.4612,0.0,0.0,0.0,-3.2625,-3.1439,-3.0687,-3.1476,-3.0925,-3.0775,-3.2107,-3.2309,-3.2962,-3.4796,-3.5135,-3.5363,-3.5816,-3.5519,-3.55,-3.6023,-3.5842,-3.5851,-3.6232,-3.6719,-3.6824,-3.6416,-3.6777,-3.6415,-3.5095,-3.4769,-3.4298,-3.3647,-3.3484,-3.3393,-3.3393,-3.3556,-3.3556,-3.3411,-3.3556,-3.3556,-3.3484,-3.4935,-3.5569,-3.5677,-3.7321,-3.7973,-3.7991,-3.8136,-3.8698,-3.946,-4.0075,-4.0782,-4.1596,-4.1389,-4.1974,-4.2837,-4.3626,-4.4947,-4.6195,-4.7094,-4.7755,-4.8159,-4.8159,-4.8086,-4.7774,-4.7039,-4.5608,-4.4911,-4.5443,-4.2231,-4.0946,-4.2835,-4.0377,-3.8799,-3.8707,-3.8707,-3.8377,-3.7658,-3.834,-3.8515,-3.8186,-3.8032,-3.772,-3.7266,-3.7152,-3.6932,-3.6642,-3.5358,-3.5499,-3.6607,-3.5396,-3.5066,-3.5457,-3.6173,-3.6357,-3.618,-3.5815,-3.5756,-3.5839,-3.5971,-3.5997,-3.6041,-3.6144,-3.6225,-3.6229,-3.628,-3.6301,-3.6284,-3.6197,-3.618,-3.6163,-3.6077,-3.6084,-3.6035,-3.5715,-3.5658,-3.5438,-3.4612,0.0,-3.311,-3.2695,0.0,-3.1513,-3.232,0.0,0.0,-3.3255,-3.289,-3.2707,-3.3676,-3.3764,-3.4504,-3.658,-3.5471,-3.5103,-3.6566,-3.5634,-3.4959,-3.4993,-3.5828,-3.6453,-3.6727,-3.6895,-3.6922,-3.6741,-3.5349,-3.457,-3.4461,-3.3755,-3.3393,-3.3411,-3.4117,-3.4099,-3.3429,-3.4154,-3.4081,-3.3447,-3.4353,-3.4736,-3.486,-3.6469,-3.714,-3.7212,-3.7919,-3.8698,-3.9405,-3.9478,-4.0003,-4.0781,-4.0967,-4.2121,-4.3094,-4.3441,-4.4433,-4.5645,-4.6911,-4.8196,-4.8819,-4.832,-4.7882,-4.7645,-4.7773,-4.5938,-4.5021,-4.5828,-4.3938,-4.2727,-4.28,-4.1534,-4.0579,-4.0104,-3.9662,-3.9239,-3.8906,-3.8762,-3.8465,-3.7981,-3.7877,-3.747,-3.6724,-3.6641,-3.607,-3.5159,-3.5007,-3.5025,-3.5179,-3.5259,-3.5355,-3.5493,-3.6057,-3.6131,-3.5871,-3.5689,-3.5622,-3.5689,-3.5756,-3.5822,-3.5905,-3.5949,-3.6014,-3.6101,-3.6127,-3.6127,-3.6148,-3.6212,-3.6233,-3.6255,-3.628,-3.6301,-3.6319,-3.6376,-3.6054,-3.5769,-3.5861,-3.476,-3.3831,-3.4306,0.0,0.0,0.0,0.0,0.0,0.0,-3.2326,-3.2036,-3.2858,-3.211,-3.2338,-3.4682,-3.4311,0.0,-3.5297,-3.5284,-3.522,-3.5271,-3.6055,-3.6659,-3.6895,-3.7397,-3.7484,-3.7013,-3.6343,-3.553,-3.4624,-3.4733,-3.457,-3.4099,-3.4443,-3.441,-3.4099,-3.3954,-3.3719,-3.3447,-3.4262,-3.4606,-3.4718,-3.6343,-3.6995,-3.7085,-3.7901,-3.8408,-3.877,-3.9224,-3.9604,-4.0057,-4.0824,-4.1996,-4.2858,-4.3096,-4.3995,-4.5132,-4.6525,-4.7697,-4.8283,-4.7855,-4.7212,-4.7192,-4.8176,-4.6371,-4.5402,-4.6286,-4.502,-4.3743,-4.2775,-4.2134,-4.138,-4.0471,-4.0304,-3.9868,-3.9095,-3.8949,-3.8436,-3.756,-3.7506,-3.7057,-3.6224,-3.6135,-3.5467,-3.4381,-3.4823,-3.4772,-3.4418,-3.5131,-3.5494,-3.5644,-3.598,-3.5893,-3.56,-3.56,-3.56,-3.56,-3.56,-3.5667,-3.5751,-3.5795,-3.5861,-3.5954,-3.5997,-3.5997,-3.6019,-3.6122,-3.6144,-3.6165,-3.6195,-3.6237,-3.6343,-3.6635,-3.614,-3.574,-3.6433,-3.531,-3.4422,-3.5341,-3.4127,0.0,0.0,0.0,-3.3109,-3.3109,0.0,-3.2161,-3.276,-3.1788,-3.1636,-3.3306,-3.3695,-3.3876,0.0,-3.4614,-3.4941,-3.4986,-3.5744,-3.6336,-3.6653,-3.743,-3.7701,-3.7339,-3.7104,-3.6451,-3.5276,-3.5623,-3.5514,-3.4917,-3.515,-3.5041,-3.4588,-3.4226,-3.3828,-3.3447,-3.4262,-3.4606,-3.4718,-3.6343,-3.6995,-3.7085,-3.7901,-3.8209,-3.8281,-3.8861,-3.9078,-3.9296,-4.0906,-4.0943,-4.1254,-4.2095,-4.3559,-4.4876,-4.5718,-4.577,-4.5986,-4.6752,-4.637,-4.6618,-4.8142,-4.6884,-4.6408,-4.7434,-4.4596,-4.3053,-4.37,-4.1685,-3.996,-3.8839,-4.0233,-3.9792,-3.7065,-3.8497,-3.8438,-3.6746,-3.6664,-3.635,-3.5817,-3.5689,-3.5588,-3.552,-3.4832,-3.49,-3.5504,-3.4837,-3.495,-3.56,-3.5622,-3.5622,-3.56,-3.56,-3.56,-3.56,-3.56,-3.56,-3.5622,-3.5751,-3.5795,0.0,0.0,0.0,-3.5997,-3.5997,-3.5997,-3.5997,-3.6019,-3.6101,-3.6225,-3.6225,-3.5725,-3.5302,-3.5661,-3.5142,-3.4673,-3.5047,-3.5045,-3.501,-3.5027,-3.4718,-3.4434,-3.4434,-3.3985,0.0,0.0,-3.3666,-3.357,-3.3506,-3.4126,-3.428,-3.352,-3.3451,-3.3469,0.0,-3.4211,-3.5007,-3.5804,-3.6598,-3.7375,-3.8136,-3.7412,-3.6977,-3.6922,-3.6182,-3.5786,-3.5768,-3.6544,-3.6109,-3.4643,-3.5369,-3.4878,-3.3447,-3.4262,-3.4606,-3.4718,-3.6343,-3.6995,-3.7085,-3.7901,-3.8209,-3.8209,-3.8227,-3.8245,-3.8513,-4.1533,-4.1592,-4.1684,-4.201,-4.2958,-4.3979,-4.4917,-4.5827,-4.6767,-4.7806,-4.7683,-4.7974,-4.9152,-4.834,-4.7884,-4.8293,-4.6365,-4.5045,-4.4747,-4.3063,-4.1877,-4.1499,-4.1112,-4.0578,-3.9896,-3.9193,-3.8236,-3.702,-3.6744,-3.6287,-3.5667,-3.5622,-3.56,-3.5566,-3.4827,-3.4912,-3.5549,-3.481,-3.4928,-3.56,-3.56,-3.56,-3.56,-3.56,-3.56,-3.56,-3.56,-3.56,0.0,-3.5644,-3.5667,-3.5667,-3.5711,-3.5734,-3.5756,-3.5822,-3.5883,-3.5883,0.0,0.0,-3.6079,-3.6079,-3.5976,-3.5959,-3.6297,-3.5643,-3.5101,-3.5485,-3.5134,-3.4764,-3.4764,-3.5056,-3.4956,-3.3891,-3.3694,-3.3346,0.0,-3.2502,-3.2952,-3.3437,-3.3717,-3.376,-3.3429,-3.2922,0.0,0.0,-3.3357,0.0,-3.4953,-3.627,-3.7375,-3.8172,-3.7937,-3.7538,-3.7013,-3.7267,-3.7105,-3.6598,-3.6868,-3.6435,-3.5388,-3.5116,-3.4425,-3.3447,-3.4262,-3.4606,-3.4718,-3.6343,-3.6995,-3.7085,-3.7901,-3.8209,-3.8209,-3.8209,-3.8553,-3.924,-4.2141,-4.2084,-4.2102,-4.2359,-4.2631,-4.3074,-4.3781,-4.5341,-4.673,-4.7495,-4.8024,-4.871,-4.9678,-4.9117,-4.8592,-4.8423,-4.7482,-4.6189,-4.4565,-4.3857,-4.2929,-4.1711,-4.1584,-4.1103,-4.0121,-3.9689,-3.8564,-3.6704,-3.6953,-3.6585,-3.56,-3.56,-3.56,-3.5583,-3.5115,-3.5165,-3.5566,-3.5098,-3.5182,-3.56,-3.56,-3.56,-3.5566,-3.5318,-3.5363,-3.56,0.0,-3.543,-3.5216,-3.5216,-3.5025,-3.4856,-3.5126,-3.5047,-3.4895,-3.5237,-3.5157,-3.4975,-3.5044,-3.5126,0.0,-3.5471,-3.5626,0.0,-3.6343,-3.6004,-3.5635,-3.5901,-3.556,-3.5192,-3.517,-3.5491,-3.532,-3.4028,-3.3906,-3.3518,0.0,-3.2484,-3.2942,-3.3437,-3.3481,-3.3343,-3.3013,-3.2759,-3.2506,0.0,0.0,0.0,0.0,-3.6019,-3.7069,-3.8172,-3.8209,-3.7955,-3.743,-3.7937,-3.7937,-3.743,-3.743,-3.6852,-3.5786,-3.5566,-3.486,-3.39,-3.4987,-3.5457,-3.5566,-3.6886,-3.743,-3.7484,-3.8009,-3.8209,-3.8209,-3.8209,-3.888,-3.9967,-4.26,-4.2274,-4.2391,-4.2936,-4.2607,-4.2323,-4.2445,-4.4353,-4.5858,-4.6067,-4.7444,-4.8801,-4.9729,-4.9263,-4.8632,-4.8,-4.7843,-4.6462,-4.3423,-4.3988,-4.2979,-3.9696,-4.17,-4.1315,-3.7982,-3.9998,-3.9399,-3.5992,-3.7296,-3.7159,-3.565,-3.5616,-3.56,-3.56,-3.56,-3.56,-3.56,-3.56,-3.56,-3.56,-3.56,-3.56,-3.5515,-3.481,-3.4996,-3.56,-3.5549,-3.5115,-3.4489,-3.4489,-3.4015,-3.3525,-3.4218,-3.3964,-3.3541,-3.4235,-3.3947,-3.3406,-3.3406,-3.349,-3.376,-3.4457,-3.4751,0.0,0.0,0.0,-3.6152,-3.6187,-3.6233,-3.6276,-3.6187,-3.6,-3.5622,-3.4941,-3.4574,-3.4217,-3.3694,-3.3609,-3.3599,-3.3619,-3.3491,-3.3103,-3.2325,-3.2922,-3.3013,-3.2252,0.0,0.0,0.0,-3.5768,-3.6544,-3.8154,-3.8209,-3.8209,-3.8209,-3.8209,-3.8209,-3.8209,-3.8209,-3.7377,-3.5876,-3.6651,-3.6127,-3.4751,-3.6325,-3.6995,-3.7067,-3.7865,-3.8209,-3.8209,-3.8209,-3.8209,-3.8209,-3.8299,-3.9242,-4.0619,-4.1923,-4.2154,-4.2366,-4.1995,-4.2675,-4.3321,-4.3366,-4.4707,-4.6064,-4.6984,-4.8328,-4.9413,-4.995,-4.9875,-4.9474,-4.8781,-4.7691,-4.6482,-4.5116,-4.4201,-4.3055,-4.1629,-4.2226,-4.2073,-4.0919,-4.0741,-4.0017,-3.8699,-3.7678,-3.6938,-3.6468,-3.5893,-3.56,-3.56,-3.56,-3.56,-3.56,-3.56,-3.56,-3.56,-3.56,-3.56,-3.5583,0.0,-3.543,-3.5515,-3.4979,-3.4658,-3.4489,-3.4489,-3.4015,-3.344,-3.3626,-3.3558,-3.344,-3.3626,-3.3558,-3.3406,-3.3406,-3.3427,-3.3499,-3.3685,-3.382,-3.4129,0.0,0.0,0.0,0.0,0.0,0.0,0.0,0.0,-3.614,-3.5372,-3.4641,-3.41,-3.3916,-3.3647,-3.389,-3.5072,-3.4151,-3.3321,-3.3103,-3.2741,-3.2415,-3.2216,0.0,0.0,-3.4824,0.0,-3.6544,-3.8154,-3.8209,-3.8209,-3.8209,-3.8209,-3.8209,-3.8209,-3.8209,-3.7683,-3.6705,-3.6904,-3.6435,-3.555,-3.6544,-3.6995,-3.7067,-3.7865,-3.8209,-3.8209,-3.8209,-3.8209,-3.8354,-3.9496,-4.0166,-4.0691,-4.1876,-4.2365,-4.2714,-4.1978,-4.3352,-4.4301,-4.351,-4.4377,-4.5505,-4.6576,-4.8145,-4.9186,-4.9128,-4.9424,-4.9458,-4.9035,-4.7953,-4.6836,-4.5771,-4.4908,-4.3639,-4.188,-4.2213,-4.1724,-4.0257,-4.0292,-3.9518,-3.7917,-3.7506,-3.6977,-3.6265,-3.5802,-3.56,-3.56,-3.56,-3.56,-3.56,-3.56,-3.56,-3.56,-3.56,-3.56,0.0,-3.525,-3.5312,-3.5498,-3.4759,-3.4286,-3.4066,-3.4387,-3.3575,-3.256,-3.3203,-3.2966,-3.251,-3.2814,-3.2696,-3.2442,-3.2442,-3.2442,-3.251,-3.2831,-3.3211,-3.3714,-3.4444,-3.4972,-3.5416,0.0,-3.5954,-3.5975,0.0,0.0,-3.5645,-3.4946,-3.4676,-3.4524,-3.449,-3.4461,-3.479,-3.5695,-3.4989,-3.4317,-3.3954,-3.3194,-3.2578,-3.2234,-3.285,0.0,0.0,0.0,-3.6888,-3.8172,-3.8553,-3.8571,-3.8209,-3.8553,-3.8553,-3.8209,-3.8209,-3.7774,-3.7013,-3.7357,-3.7104,-3.6363,-3.7194,-3.752,-3.7557,-3.8009,-3.8209,-3.8209,-3.8209,-3.8209,-3.839,-3.993,-4.0492,-4.0727,-4.2053,-4.2585,-4.2997,-4.2151,-4.3893,-4.4896,-4.3434,-4.4207,-4.5198,-4.5841,-4.7677,-4.8718,-4.8115,-4.8545,-4.8866,-4.8866,-4.8075,-4.709,-4.5788,-4.5517,-4.4198,-4.1457,-4.1948,-4.1001,-3.8261,-3.9428,-3.8768,-3.6039,-3.7195,-3.7077,-3.5752,-3.565,-3.56,-3.56,-3.56,-3.56,-3.56,-3.56,-3.56,-3.56,-3.56,-3.56,-3.5532,-3.4895,-3.5047,-3.5515,-3.4878,-3.4167,-3.3643,-3.4269,-3.3085,-3.1562,-3.2848,-3.2307,-3.1326,-3.1972,-3.1701,-3.119,-3.119,-3.119,-3.1343,-3.2005,-3.2628,-3.3305,-3.4032,-3.4813,-3.5399,-3.5586,-3.573,-3.5774,0.0,0.0,-3.4706,-3.4226,-3.4686,-3.5101,-3.5101,-3.5461,-3.5794,-3.5993,-3.5881,0.0,-3.4969,-3.4099,-3.323,-3.2415,-3.3647,0.0,0.0,0.0,-3.7267,-3.8172,-3.8879,-3.8952,-3.8372,-3.8952,-3.8934,-3.8372,-3.8263,-3.7828,-3.7176,-3.7883,-3.7828,-3.7194,-3.7901,-3.8209,-3.8209,-3.8209,-3.8209,-3.8209,-3.8209,-3.8209,-3.839,-3.9822,-4.042,-4.0727,-4.1613,-4.1933,-4.2066,-4.0722,-4.232,-4.3921,-4.4268,-4.6426,-4.7827,-4.726,-4.8667,-4.9497,-4.886,-4.8392,-4.8075,-4.8075,-4.687,-4.5991,-4.572,-4.4519,-4.3301,-4.2151,-4.2219,-4.1491,-3.9741,-3.9961,-3.9546,-3.8396,-3.7472,-3.6863,-3.6592,-3.5904,-3.56,-3.56,-3.56,-3.56,-3.56,-3.56,-3.56,-3.56,-3.56,-3.56,-3.5583,-3.5447,-3.5481,-3.5583,-3.5447,-3.4928,-3.432,-3.4455,-3.3444,-3.2158,-3.2412,-3.1904,-3.1224,-3.1343,-3.1292,-3.119,-3.119,-3.119,-3.1224,-3.136,-3.1478,-3.1765,-3.253,-3.2805,-3.3262,-3.4481,-3.4757,-3.4757,-3.4735,0.0,0.0,-3.4449,-3.4816,-3.5119,-3.5161,-3.5207,-3.5736,-3.7041,-3.6366,-3.6019,-3.6542,-3.5258,-3.4063,-3.3248,-3.3447,-3.4262,-3.5713,0.0,-3.6689,0.0,-3.8354,0.0,0.0,0.0,-3.8663,-3.917,-3.8517,-3.8136,-3.7991,-3.8136,-3.8118,-3.8009,-3.8136,-3.8209,-3.8209,-3.8209,-3.8209,-3.8209,-3.8209,-3.8209,-3.8317,-3.9242,-3.9985,-4.0727,-4.3014,-4.2912,-4.2777,-4.2499,-4.3623,-4.4857,-4.5602,-4.7525,-4.8485,-4.7283,-4.7477,-4.7612,-4.7323,-4.731,-4.7344,-4.7344,-4.5974,-4.5128,-4.5128,-4.369,-4.2506,-4.1762,-4.1728,-4.0865,-3.8997,-3.8946,-3.8396,-3.7246,-3.6535,-3.618,-3.6163,-3.5769,-3.56,-3.56,-3.56,-3.56,-3.56,-3.56,0.0,-3.56,-3.56,-3.56,-3.56,-3.56,-3.56,-3.56,-3.56,-3.5363,-3.5081,-3.5081,-3.4083,-3.2933,-3.3326,-3.2933,-3.2273,-3.1887,-3.1769,-3.1701,-3.1292,-3.119,-3.119,-3.119,-3.1478,-3.187,-3.2226,-3.2886,-3.3647,-3.4336,-3.4793,-3.5081,-3.5081,-3.5081,0.0,0.0,-3.5433,-3.5728,-3.577,-3.61,-3.6631,-3.7416,-3.6871,-3.6562,-3.6959,-3.591,-3.4881,-3.4081,-3.4407,-3.4971,-3.575,0.0,-3.6961,0.0,0.0,0.0,-3.8788,0.0,0.0,-3.8753,-3.839,-3.8209,-3.8209,-3.8209,-3.8209,-3.8227,-3.8644,-3.8808,-3.8808,-3.8808,-3.8589,-3.8245,-3.8662,-3.8808,-3.897,-4.0166,-4.0818,-4.1234,-4.4496,-4.4079,-4.3859,-4.4496,-4.5331,-4.6126,-4.6701,-4.8054,-4.8578,-4.7411,-4.6633,-4.6177,-4.6177,-4.6413,-4.6566,-4.6566,-4.5196,-4.4333,-4.4333,-4.2912,-4.1813,-4.1238,-4.1052,-4.0003,-3.7956,-3.7905,-3.7121,-3.56,-3.56,-3.56,-3.56,-3.56,-3.56,-3.56,0.0,0.0,0.0,0.0,-3.5594,-3.5594,-3.5594,-3.5594,-3.5594,-3.56,-3.56,-3.56,-3.56,-3.5577,-3.5594,-3.56,-3.4721,-3.3744,-3.432,-3.3981,-3.3288,-3.2696,-3.2429,-3.2175,-3.1599,-3.1309,-3.119,-3.119,-3.165,-3.2073,-3.2073,-3.3089,-3.4087,-3.4218,-3.4861,-3.5397,-3.5566,-3.5464,0.0,0.0,0.0,-3.6152,-3.6152,-3.686,-3.7306,-3.7145,-3.7198,-3.7122,-3.6777,-3.6472,-3.591,-3.4917,-3.5116,-3.5496,-3.6037,-3.6327,-3.7031,0.0,0.0,-3.8933,-3.8462,0.0,-3.8898,-3.8462,-3.8281,-3.8209,-3.8209,-3.8209,-3.8209,-3.8245,-3.906,-3.9478,-3.9623,-3.946,-3.9115,-3.8753,-3.9387,-3.9623,-3.9786,-4.0999,-4.1542,-4.1705,-4.4598,-4.4547,-4.4513,-4.4598,-4.5754,-4.6718,-4.6786,-4.8054,-4.8951,-4.8815,-4.8156,-4.7686,-4.7686,-4.6566,-4.5805,-4.5805,-4.4418,-4.3494,-4.3494,-4.2134,-4.1271,-4.1204,-4.0544,-3.9462,-3.7939,-3.7905,-3.7121,-3.56,-3.56,-3.56,-3.56,-3.56,-3.56,0.0,0.0,0.0,0.0,-3.5543,-3.5514,-3.5514,-3.5514,-3.5514,-3.5514,-3.5594,-3.56,-3.56,-3.56,-3.5549,-3.5537,-3.5594,-3.5064,-3.4404,-3.4472,-3.3981,-3.3389,-3.3322,-3.2814,-3.2276,-3.2226,-3.1718,-3.119,-3.119,-3.1241,-3.1292,-3.1292,-3.1938,-3.2699,-3.3372,-3.4083,-3.481,-3.5481,-3.5064,-3.481,0.0,0.0,-3.5667,-3.5667,-3.6395,-3.6695,-3.5972,-3.7166,-3.7504,-3.6039,-3.716,-3.7341,-3.5804,-3.4407,-3.457,-3.6777,-3.5584,-3.5856,-3.8136,-3.8281,-3.8644,-3.9278,-3.8644,-3.8644,-3.9278,-3.8553,-3.8209,-3.8209,-3.8209,-3.8209,-3.8245,-3.906,-3.9786,-4.0347,-3.9677,-3.9749,-4.0275,-4.0365,-4.0383,-4.0401,-4.0546,-4.1071,-4.1705,-4.5906,-4.5551,-4.5534,-4.643,-4.6701,-4.709,-4.7986,-4.8629,-4.8849,-4.8409,-4.7699,-4.7242,-4.7242,-4.5923,-4.5026,-4.5026,-4.3623,-4.2743,-4.2743,-4.1356,-4.0527,-4.0527,-4.0265,-3.9622,-3.8582,-3.8125,-3.7381,-3.6315,-3.5836,-3.56,-3.56,-3.5549,0.0,0.0,0.0,-3.5543,-3.5543,-3.5514,-3.5446,-3.5377,-3.5377,-3.5377,-3.5383,-3.5406,-3.5412,-3.5435,-3.552,-3.5475,-3.5406,-3.5532,-3.5369,-3.511,-3.516,-3.4957,-3.4619,-3.4184,-3.3846,-3.3508,-3.3068,-3.2408,-3.187,-3.187,-3.187,-3.187,-3.187,-3.2784,-3.3715,-3.3998,-3.4658,-3.5245,-3.5549,-3.5346,-3.5267,-3.5549,0.0,0.0,-3.56,-3.6135,-3.6258,-3.5476,-3.5971,-3.6104,-3.5494,-3.625,-3.6689,-3.6526,-3.591,-3.598,-3.6941,-3.6397,0.0,-3.8154,0.0,-3.8354,-3.868,-3.8372,-3.8372,-3.868,-3.8354,-3.8209,-3.8209,-3.8209,-3.8462,-3.8952,-3.9731,-4.022,-4.051,-4.0691,-4.0655,-4.0546,-4.1035,-4.1216,-4.127,-4.1759,-4.214,-4.2411,-4.7073,-4.6701,-4.6752,-4.799,-4.78,-4.78,-4.8849,-4.8832,-4.8494,-4.7956,-4.7073,-4.6481,-4.6481,-4.5331,-4.4513,-4.4265,-4.3047,-4.2202,-4.1982,-4.0807,-4.0087,-4.0037,-4.0087,-3.9707,-3.8906,-3.8205,-3.7462,-3.6696,-3.5897,-3.5526,0.0,0.0,0.0,0.0,-3.5446,-3.5446,-3.5446,-3.54,-3.5331,-3.5245,-3.5245,-3.5245,-3.5245,-3.5291,-3.5291,-3.5314,-3.5423,-3.5354,-3.5268,-3.5458,-3.5435,-3.5406,-3.5554,-3.5577,-3.5453,-3.4957,-3.4675,-3.4387,-3.3863,-3.3186,-3.2611,-3.2611,-3.2611,-3.2611,-3.2611,-3.3613,-3.4556,-3.4776,-3.525,-3.56,-3.56,-3.56,-3.56,-3.56,0.0,0.0,-3.5783,-3.5882,-3.5852,-3.556,-3.5508,-3.5452,-3.539,-3.6055,-3.6635,-3.6977,-3.7212,-3.7357,-3.7357,-3.6904,0.0,0.0,0.0,0.0,-3.8209,-3.8209,-3.8209,-3.8209,-3.8209,-3.8209,-3.8209,-3.8209,-3.8753,-3.9731,-4.0039,-4.0582,-4.1234,-4.156,-4.1488,-4.127,-4.1813,-4.2049,-4.2122,-4.2683,-4.2901,-4.2901,-4.772,-4.7872,-4.8122,-4.8866,-4.8984,-4.8984,-4.9001,-4.8392,-4.7906,-4.7889,-4.6604,-4.572,-4.572,-4.5043,-4.4265,-4.3477,-4.2726,-4.1982,-4.1271,-4.0493,-4.0037,-3.9901,-4.0037,-3.9632,-3.8623,-3.801,-3.7271,-3.6413,-3.5659,0.0,-3.5291,0.0,-3.5291,-3.5291,-3.5291,-3.5291,-3.5291,-3.5175,-3.5088,-3.5088,-3.5088,-3.5088,-3.5128,-3.5245,-3.5291,-3.5291,-3.5291,-3.5222,-3.5128,-3.5268,-3.5222,-3.5158,-3.5487,-3.5549,-3.5514,-3.5577,-3.5081,-3.4489,-3.4472,-3.3947,-3.3389,-3.3389,-3.3389,-3.3389,-3.3389,-3.3964,-3.4709,-3.543,-3.5583,-3.56,-3.56,-3.56,-3.56,-3.56,0.0,0.0,0.0,-3.5666,-3.5468,-3.6203,-3.6345,-3.6233,-3.5826,-3.7232,-3.7846,-3.7049,0.0,0.0,0.0,0.0,0.0,-3.8154,-3.8209,0.0,-3.8209,-3.8209,-3.8209,-3.8209,-3.8209,-3.8209,-3.8209,-3.8209,-3.9043,-4.0438,-3.9731,-4.0745,-4.281,-4.2012,-4.2158,-4.2883,-4.2883,-4.2901,-4.2901,-4.2901,-4.2901,-4.2901,-4.8612,-4.8663,-4.8578,-4.8308,-4.868,-4.8663,-4.7648,-4.7733,-4.7534,-4.6549,-4.5857,-4.5293,-4.4788,-4.4547,-4.4092,-4.3333,-4.2499,-4.1705,-4.0983,-4.0253,-3.9807,-3.9755,-3.9807,-3.968,-3.9368,-3.817,-3.7433,-3.7149,0.0,0.0,0.0,-3.5158,-3.5158,-3.5158,-3.5158,-3.5158,-3.5175,-3.5128,-3.5041,-3.497,-3.497,-3.497,-3.497,-3.5018,-3.5018,-3.5041,-3.5111,-3.5065,-3.4994,-3.5222,-3.5152,-3.5018,-3.5297,-3.5383,-3.536,-3.5383,-3.5221,-3.5076,-3.5166,-3.4616,-3.4026,-3.4129,-3.415,-3.415,-3.415,-3.4726,-3.529,-3.5492,-3.5571,-3.5577,-3.5543,-3.5571,-3.56,-3.56,-3.56,0.0,-3.5783,-3.5202,-3.4939,-3.5471,-3.5322,-3.5226,-3.5374,-3.6611,-3.7285,-3.7013,0.0,0.0,0.0,0.0,0.0,0.0,-3.8209,0.0,-3.8209,-3.8209,-3.8209,-3.8209,-3.8209,-3.8209,-3.8227,-3.8753,-3.9278,-3.9804,-4.0619,-4.1379,-4.2103,-4.2393,-4.2665,-4.2901,-4.2901,-4.2901,-4.2901,-4.2901,-4.2901,-4.2901,-4.8909,-4.8909,-4.8773,-4.8318,-4.8385,-4.8166,-4.7254,-4.7035,-4.6617,-4.5718,-4.5202,-4.4745,-4.4275,-4.4184,0.0,-4.2797,-4.221,-4.1469,-4.0431,-3.9971,-3.9677,-3.9642,-3.9677,-3.9651,-3.9547,-3.843,0.0,-3.7336,-3.5869,-3.5105,-3.5018,-3.5018,-3.5018,-3.5018,-3.5018,-3.5018,-3.5018,-3.5018,-3.497,-3.4899,-3.4899,-3.4899,-3.4899,-3.4899,-3.4899,-3.4923,-3.4994,-3.497,-3.4923,-3.5088,-3.5041,-3.4923,-3.5088,-3.5152,-3.5175,-3.5268,-3.5291,-3.5314,-3.54,-3.5054,-3.4706,-3.4773,-3.4796,-3.4863,-3.515,-3.5369,-3.5565,-3.5799,-3.5637,-3.5481,-3.5429,-3.5498,-3.5549,-3.5503,-3.5526,-3.5515,-3.5387,-3.4556,-3.4334,-3.5312,-3.4787,-3.4791,0.0,-3.6751,-3.7262,0.0,0.0,0.0,0.0,0.0,0.0,-3.8191,-3.8499,-3.8517,-3.8209,-3.8499,-3.8499,-3.8209,-3.8517,-3.8662,-3.868,-3.946,-3.9985,-4.0329,-4.127,-4.1868,-4.2194,-4.2683,-4.2901,-4.2901,-4.2901,-4.2901,-4.2901,-4.2901,-4.2901,-4.2901,-4.8786,-4.8786,-4.8753,-4.8635,-4.8032,-4.7544,-4.7393,-4.6249,-4.5375,-4.5324,-4.462,-4.4085,-4.4085,-4.3969,-4.3327,-4.1983,0.0,0.0,-3.9778,-3.9677,-3.9616,-3.9501,-3.9616,-3.9547,-3.9299,-3.8716,-3.7959,-3.7102,-3.5628,-3.4932,-3.4982,-3.4916,-3.4899,-3.4899,-3.4899,-3.4899,-3.4899,-3.4899,-3.4899,-3.4899,-3.4899,-3.4899,-3.4899,-3.4899,-3.4899,-3.4899,-3.4899,-3.4899,-3.4899,-3.4899,-3.4899,-3.4899,-3.4899,-3.4899,-3.4947,-3.5198,-3.5268,-3.5268,-3.5291,-3.5291,-3.5291,-3.5291,-3.5341,-3.5576,-3.6312,-3.5961,-3.5643,-3.6322,-3.5904,-3.5442,-3.5459,-3.5518,-3.5513,-3.5398,-3.5434,-3.5357,-3.4993,-3.3931,-3.3808,-3.5535,0.0,0.0,-3.7253,-3.7487,-3.7685,0.0,0.0,0.0,0.0,0.0,-3.7375,-3.8172,-3.8933,-3.8971,-3.8299,-3.9042,-3.9043,-3.8372,-3.9115,-3.9478,-3.9496,-4.0256,-4.0981,-4.1705,-4.1759,-4.2212,-4.2901,-4.2901,-4.2901,-4.2901,-4.2901,-4.2901,-4.2901,-4.2901,-4.2901,-4.2901,0.0,0.0,-4.8212,-4.7072,-4.7206,-4.6887,-4.5194,-4.511,-4.5043,-4.449,-4.4144,-4.3956,-4.3956,-4.3793,-4.309,-4.1642,-4.151,-4.0923,-3.9505,-3.9388,-3.9379,-3.9352,-3.9379,-3.9352,-3.9299,-3.8602,-3.7873,-3.7102,-3.5628,-3.5181,-3.5727,-3.5164,-3.4899,-3.4899,-3.4899,-3.4899,-3.4899,-3.4899,-3.4899,-3.4899,-3.4899,-3.4899,-3.4899,-3.4899,-3.4899,-3.4899,-3.4899,-3.4899,-3.4899,-3.4899,-3.4899,-3.4899,-3.4899,-3.4899,-3.4923,-3.497,-3.4994,-3.5018,-3.5128,-3.5152,-3.5175,-3.5268,-3.5726,-3.6322,-3.7075,-3.7108,-3.7,-3.7069,-3.7018,-3.695,-3.6852,-3.6482,-3.6185,-3.6145,-3.5683,-3.5115,-3.447,-3.4124,-3.4211,0.0,-3.4772,-3.5319,-3.716,-3.736,-3.7578,0.0,0.0,-3.7557,-3.8172,-3.7448,-3.7375,-3.8172,-3.839,-3.8698,-3.9097,-3.9297,-3.9586,-3.9967,-4.0148,-4.0256,-4.0274,-4.1053,-4.1524,-4.1723,-4.2357,-4.2719,-4.2901,-4.2901,-4.2901,-4.2901,-4.2901,-4.2901,-4.2901,-4.2901,-4.2901,-4.2901,-4.8356,-4.8356,-4.8005,-4.6917,-4.6736,-4.6235,-4.4699,-4.4532,-4.4461,-4.4048,-4.3852,-4.3763,-4.3763,-4.3658,-4.3002,-4.1541,-4.1409,-4.0796,-3.9398,-3.9299,-3.9299,-3.9299,-3.9299,-3.9299,-3.9299,-3.8907,-3.8179,-3.7102,-3.5959,-3.5446,-3.5479,-3.5081,-3.4899,-3.4899,-3.4899,-3.4899,-3.4899,-3.4899,-3.4899,-3.4899,-3.4899,-3.4899,-3.4899,-3.4899,-3.4899,-3.4899,-3.4899,-3.4899,-3.4949,-3.5297,-3.5181,-3.4965,-3.5297,-3.5164,-3.4899,-3.4899,-3.4899,-3.4989,-3.5409,-3.5509,-3.5616,-3.6021,-3.642,-3.6903,-3.7653,-3.7569,-3.7394,-3.7651,-3.7502,-3.7295,-3.7219,-3.672,-3.6293,-3.6228,-3.5659,-3.4954,-3.4196,-3.4068,-3.4264,-3.4912,-3.4653,-3.5143,-3.6986,-3.7097,-3.7248,-3.7739,-3.7639,0.0,-3.8191,-3.8136,-3.8136,-3.8209,-3.888,-3.9297,-3.9387,-3.9731,-4.0111,-4.0492,-4.0872,-4.1053,-4.1071,-4.1886,-4.2248,-4.2266,-4.2701,-4.2901,-4.2901,-4.2901,-4.2901,-4.2901,-4.2901,-4.2901,-4.2901,-4.2901,-4.2901,-4.2901,-4.8146,-4.8163,-4.7913,-4.713,-4.6431,-4.5668,-4.4837,-4.4221,-4.3868,-4.3868,-4.3704,-4.3598,-4.3598,-4.3598,-4.3002,-4.1541,-4.1409,-4.0796,-3.9398,-3.9299,-3.9299,-3.9299,-3.9299,-3.9299,-3.9299,-3.9199,-3.856,-3.7433,-3.6589,-3.5909,-3.5396,-3.528,-3.5164,-3.5065,-3.5065,-3.5065,-3.5065,-3.5065,-3.5065,-3.5065,-3.5065,-3.4998,-3.4899,-3.4899,-3.4899,-3.4899,-3.4899,-3.4899,-3.4998,-3.5628,-3.5413,-3.5015,-3.5644,-3.5479,-3.5065,-3.5065,-3.5148,-3.5346,-3.586,-3.6075,-3.634,-3.7085,-3.7284,-3.7466,-3.8212,-3.788,-3.7615,-3.8245,-3.788,-3.7433,-3.7433,-3.6813,-3.6297,-3.6199,-3.5559,-3.4815,-3.4076,0.0,-3.4257,-3.5065,-3.4551,-3.4935,-3.6979,-3.6984,-3.7095,-3.7641,-3.8204,-3.8553,-3.8553,-3.9188,-3.9242,-3.8554,-3.9822,-4.0274,-3.9749,-4.0492,-4.0854,-4.0854,-4.1542,-4.1868,-4.1904,-4.2592,-4.2901,-4.2901,-4.2901,-4.2901,-4.2901,-4.2901,-4.2901,-4.2901,-4.2901,-4.2901,-4.2901,-4.2901,-4.2901,-4.2901,-4.7901,-4.8033,-4.7602,-4.6243,-4.5895,-4.5365,-4.3992,-4.3694,-4.3658,-4.3658,-4.3628,-4.3598,-4.3598,-4.3598,-4.3002,-4.1541,-4.1409,-4.0796,-3.9398,-3.9299,-3.9299,-3.9299,-3.9299,-3.9299,-3.9299,-3.8692,-3.856,-3.8967,-3.7599,-3.7201,-3.7656,-3.7052,-3.6439,-3.5827,-3.5827,-3.5827,-3.5827,-3.5827,-3.5827,-3.5827,-3.5827,-3.5462,-3.4899,-3.4899,-3.4899,-3.4899,-3.4899,-3.4899,-3.4916,-3.5032,-3.4982,-3.4916,-3.5032,-3.5413,-3.5827,-3.5827,-3.6274,-3.6655,-3.6141,-3.6456,-3.7119,-3.7864,-3.8046,-3.8228,-3.8967,-3.905,-3.9,-3.9116,-3.905,-3.8967,-3.8967,-3.7857,-3.6962,-3.6936,-3.5818,-3.4658,-3.3928,0.0,-3.479,-3.493,-3.4847,-3.5596,-3.7729,-3.7681,-3.8055,-3.9318,-3.9878,-4.0148,-4.0148,-4.0274,-4.0257,-4.0148,-4.0383,-4.0764,-4.1343,-4.2122,-4.252,-4.252,-4.2647,-4.2701,-4.2719,-4.2847,-4.2901,-4.2901,-4.2901,-4.2901,-4.2901,-4.2901,-4.2901,-4.2901,-4.2901,-4.2901,-4.2901,-4.2901,-4.2901,-4.2901,-4.7338,-4.7404,-4.7073,-4.598,-4.5467,-4.4837,-4.3747,-4.3598,-4.3598,-4.3598,-4.3598,-4.3598,-4.3598,-4.3598,-4.3002,-4.1541,-4.1409,-4.0796,-3.9398,-3.9299,-3.9299,-3.9299,-3.9299,-3.9299,-3.9299,-3.8984,-3.8758,-3.8709,-3.803,-3.7665,-3.7615,-3.7268,-3.692,-3.6605,-3.6605,-3.6373,-3.6025,-3.6423,-3.6141,-3.5446,-3.5843,-3.5562,-3.4899,-3.4899,-3.4899,-3.4899,-3.4899,-3.5148,-3.5545,-3.5959,-3.5827,-3.5628,-3.6439,-3.6373,-3.6075,-3.6489,-3.7119,-3.7632,-3.7284,-3.7715,-3.8361,-3.8709,-3.8775,-3.8874,-3.9232,-3.9299,-3.9299,-3.9299,-3.9299,-3.9299,-3.9299,-3.8079,-3.7235,-3.7649,-3.6125,0.0,-3.4982,-3.528,-3.5644,-3.6042,-3.6075,-3.6768,-3.8452,-3.8432,-3.8594,-3.9315,-4.0071,-4.0384,-4.0127,-4.0781,-4.0945,-4.051,-4.0926,-4.1524,-4.2339,-4.2701,-4.2901,-4.2901,-4.2901,-4.2901,-4.2901,-4.2901,-4.2901,-4.2901,-4.2901,-4.2901,-4.2901,-4.2901,-4.2901,-4.2901,-4.2901,-4.2901,-4.2901,-4.2901,-4.2901,-4.2901,-4.6609,-4.6643,-4.6411,-4.5665,-4.5069,-4.444,-4.3698,-4.3598,-4.3598,-4.3598,-4.3598,-4.3598,-4.3598,-4.3598,-4.3069,-4.1761,-4.1508,-4.0878,-3.9647,-3.9398,-3.9299,-3.9299,-3.9299,-3.9299,-3.9299,-3.9299,-3.9033,-3.846,-3.846,-3.8179,-3.7615,-3.7615,-3.7516,-3.7367,-3.7367,-3.7052,-3.6555,-3.7119,-3.6704,-3.5727,-3.629,-3.5976,-3.5164,-3.5346,-3.5297,-3.5181,-3.5346,-3.5777,-3.634,-3.692,-3.6721,-3.6456,-3.7599,-3.7284,-3.6622,-3.7201,-3.788,-3.846,-3.846,-3.8858,-3.9299,-3.9299,-3.9299,-3.9299,-3.9299,-3.9299,-3.9299,-3.9299,-3.9299,-3.9299,-3.9299,-3.8228,-3.7549,-3.8129,0.0,-3.5611,-3.6174,-3.6257,-3.6539,-3.7284,-3.7218,-3.7695,-3.9219,-3.9198,-3.9264,-3.9691,-4.0551,-4.0889,-4.0551,-4.1447,-4.1687,-4.1089,-4.1469,-4.2103,-4.2901,-4.2901,-4.2901,-4.2901,-4.2901,-4.2901,-4.2901,-4.2901,-4.2901,-4.2901,-4.2901,-4.2901,-4.2901,-4.2901,-4.2901,-4.2901,-4.2901,-4.2901,-4.2901,-4.2901,-4.2901,-4.2937,-4.5748,-4.5864,-4.5632,-4.4903,-4.4752,-4.444,-4.3698,-4.3598,-4.3598,-4.3598,-4.3598,-4.3598,-4.3598,-4.3598,-4.3267,-4.2473,-4.1778,-4.1094,-4.0376,-3.968,-3.9299,-3.9299,-3.9299,-3.9299,-3.9299,-3.9299,-3.9282,-3.9232,-3.9232,-3.9199,-3.9133,-3.9133,-3.8758,-3.8103,-3.8103,-3.8096,-3.802,-3.8112,-3.8079,-3.7954,-3.803,-3.7201,-3.5992,-3.6688,-3.6522,-3.6009,-3.6688,-3.6986,-3.7036,-3.7085,-3.7069,-3.7052,-3.7152,-3.7582,-3.8063,-3.8086,-3.8642,-3.9232,-3.9232,-3.9265,-3.9299,-3.9299,-3.9299,-3.9299,-3.9299,-3.9299,-3.9299,-3.9299,-3.9299,-3.9299,-3.9299,-3.8642,-3.8146,-3.8195,0.0,0.0,-3.7019,-3.7036,-3.7301,-3.8046,-3.7533,-3.7911,-3.9925,-3.9974,-4.0464,-4.1771,-4.2393,-4.2719,-4.2663,-4.2774,-4.2774,-4.2738,-4.2067,-4.2103,-4.2901,-4.2901,-4.2901,-4.2901,-4.2901,-4.2901,-4.2901,-4.2901,-4.2901,-4.2901,-4.2901,-4.2901,-4.2901,-4.2901,-4.2901,-4.2901,-4.2901,-4.2901,-4.2901,-4.2901,-4.2901,-4.301,-4.5052,-4.5102,-4.5019,-4.4738,-4.4324,-4.3913,-4.3631,-4.3598,-4.3598,-4.3598,-4.3598,-4.3598,-4.3598,-4.3598,-4.33,-4.2555,-4.1839,-4.1127,-4.0442,-3.9713,-3.9299,-3.9299,-3.9299,-3.9299,-3.9299,-3.9299,-3.9299,-3.9299,-3.9299,-3.9299,-3.9299,-3.9299,-3.9149,-3.8874,-3.8874,-3.8626,-3.8219,-3.8692,-3.8344,-3.7566,-3.803,-3.7599,-3.6721,-3.7003,-3.6936,-3.6721,-3.7003,-3.74,-3.7798,-3.7798,-3.7798,-3.7864,-3.8311,-3.8344,-3.8295,-3.8742,-3.9083,-3.9299,-3.9299,-3.9299,-3.9299,-3.9299,-3.9299,-3.9299,-3.9299,-3.9299,-3.9299,-3.9299,-3.9299,-3.9299,-3.9299,-3.8692,-3.8361,-3.8808,0.0,-3.7268,-3.7731,-3.7798,-3.7897,-3.8179,-3.8361,-3.8913,-4.0102,-4.0403,-4.0814,-4.1415,-4.2315,-4.2709,-4.2414,-4.271,-4.2901,-4.2901,-4.2592,-4.2592,-4.2901,-4.2901,-4.2901,-4.2901,-4.2901,-4.2901,-4.2901,-4.2901,-4.2901,-4.2901,-4.2901,-4.2901,-4.2901,-4.2901,-4.2901,-4.2901,-4.2901,-4.2901,-4.2955,-4.3463,-4.3625,-4.3679,-4.4357,-4.4357,-4.4357,-4.4357,-4.3943,-4.3598,-4.3598,-4.3598,-4.3598,-4.3598,-4.3598,-4.3499,-4.3267,-4.3449,-4.33,-4.2555,-4.1839,-4.121,-4.0729,-3.9829,-3.9299,-3.9299,-3.9299,-3.9299,-3.9299,-3.9299,-3.9299,-3.9299,-3.9299,-3.9299,-3.9299,-3.9299,-3.9299,-3.9299,-3.9299,-3.9033,-3.8576,-3.91,-3.8718,-3.7831,-3.8344,-3.8112,-3.7483,-3.7698,-3.7649,-3.7483,-3.7715,-3.8112,-3.8543,-3.8543,-3.8543,-3.8626,-3.9149,-3.8941,-3.8642,-3.9149,-3.9464,-3.9647,-3.9647,-3.9812,-3.9862,-3.9415,-3.9481,-3.958,-3.9348,-3.9647,-3.9912,-3.9696,-3.9829,-3.9912,-3.968,-3.9222,-3.8974,-3.9265,-3.8444,-3.7963,-3.8477,-3.8543,-3.8543,-3.8543,-3.9,-3.953,-4.0153,-4.0535,-4.0938,-4.1366,-4.2172,-4.2532,-4.2353,-4.2691,-4.2901,-4.2901,-4.2901,-4.2901,-4.2901,-4.2901,-4.2901,-4.2901,-4.2901,-4.2901,-4.2901,-4.2901,-4.2901,-4.2901,-4.2901,-4.2901,-4.2901,-4.2901,-4.2901,-4.2901,-4.2901,-4.3064,-4.3318,-4.3607,-4.3878,-4.4095,-4.3598,-4.3598,-4.3598,-4.3598,-4.3598,-4.3598,-4.3598,-4.3598,-4.3598,-4.3598,-4.3598,-4.3317,-4.2572,-4.3151,-4.33,-4.2555,-4.1811,-4.1409,-4.1409,-4.0067,-3.9299,-3.9315,-3.9299,-3.9299,-3.9299,-3.9299,-3.9299,-3.9299,-3.9299,-3.9299,-3.9299,-3.9299,-3.9299,-3.9299,-3.9299,-3.9299,-3.9299,-3.9299,-3.9299,-3.9299,-3.9299,-3.8858,-3.8295,-3.9033,-3.8841,-3.8311,-3.905,-3.9299,-3.9299,-3.9299,-3.9299,-3.9299,-3.9299,-3.9299,-3.9315,-3.9315,-3.9829,-4.0426,-4.0426,-4.0895,-4.1077,-3.968,-3.9879,-4.0227,-3.9481,-4.0398,-4.1226,-4.0558,-4.0945,-4.121,-4.0542,-4.0426,-4.0177,-3.9448,-3.9315,-3.9315,-3.9315,-3.9299,-3.9299,-3.9299,-3.9299,-3.9547,-4.012,-4.0319,-4.0879,-4.2002,-4.2172,-4.2398,-4.2863,-4.2901,-4.2901,-4.2901,-4.2901,-4.2901,-4.2901,-4.2901,-4.2901,-4.2901,-4.2901,-4.2901,-4.2901,-4.2901,-4.2901,-4.2901,-4.2901,-4.2901,-4.2901,-4.2901,-4.2901,-4.2901,-4.2901,-4.339,-4.3987,-4.319,-4.3426,-4.4095,-4.3598,-4.3598,-4.3598,-4.3598,-4.3598,-4.3598,-4.3598,-4.3598,-4.3598,-4.3598,-4.3598,-4.3317,-4.2572,-4.3151,-4.3085,-4.1827,-4.1541,-4.121,-4.0713,-3.9829,-3.9531,-4.0061,-3.958,-3.9299,-3.9299,-3.9299,-3.9299,-3.9299,-3.9299,-3.9299,-3.9299,-3.9299,-3.9299,-3.9299,-3.9299,-3.9299,-3.9299,-3.9299,-3.9299,-3.9299,-3.9299,-3.9183,-3.9017,-3.9216,-3.9166,-3.9017,-3.9232,-3.9299,-3.9299,-3.9299,-3.9299,-3.9299,-3.9299,-3.9663,-4.0078,-4.0078,-4.0547,-4.111,-4.111,-4.1259,-4.1309,-4.0878,-4.0945,-4.1044,-4.0829,-4.111,-4.1359,-4.1143,-4.1276,-4.1359,-4.1143,-4.111,-4.1028,-4.0812,-4.0365,-4.0078,-4.0078,-3.963,-3.9299,-3.9299,-3.9299,-3.9379,-3.953,-3.9986,-4.0538,-4.1151,-4.1938,-4.253,-4.2804,-4.2823,-4.2823,-4.2823,-4.2881,-4.2901,-4.2901,-4.2901,-4.2901,-4.2901,-4.2901,-4.2901,-4.2901,-4.2901,-4.2901,-4.2901,-4.2901,-4.2901,-4.2901,-4.2901,-4.2901,-4.2901,-4.2901,-4.3064,-4.3299,-4.3607,-4.3878,-4.4095,-4.3598,-4.3598,-4.3598,-4.3598,-4.3598,-4.3598,-4.3598,-4.3598,-4.3598,-4.3598,-4.3598,-4.3317,-4.2572,-4.3151,-4.3118,-4.1926,-4.1562,-4.0994,-4.0044,-3.9547,-3.963,-4.0376,-3.9696,-3.9299,-3.9299,-3.9299,-3.9299,-3.9299,-3.9299,-3.9299,-3.9299,-3.9299,-3.9299,-3.9299,-3.9299,-3.9299,-3.9299,-3.9299,-3.9299,-3.9299,-3.9299,-3.9299,-3.9299,-3.9299,-3.9299,-3.9332,-3.963,-3.9547,-3.9348,-3.9647,-3.9746,-3.9746,-3.9746,-4.0227,-4.0796,-4.0796,-4.1293,-4.1827,-4.1827,-4.2042,-4.2258,-4.2258,-4.2042,-4.1744,-4.1475,-4.1844,-4.2175,-4.1893,-4.2088,-4.2175,-4.1877,-4.1827,-4.1728,-4.1458,-4.0829,-4.0409,-4.0409,-3.9779,-3.9299,-3.9299,-3.9299,-3.9325,-3.9379,-3.9876,-4.0473,-4.118,-4.2044,-4.2625,-4.2783,-4.2803,-4.2822,-4.2842,-4.2881,-4.2901,-4.2901,-4.2901,-4.2901,-4.2901,-4.2901,-4.2901,-4.2901,-4.2901,-4.2901,-4.2901,-4.2901,-4.3063,-4.3371,-4.3371,-4.3371,-4.3371,-4.3371,-4.3371,-4.3389,-4.3552,-4.3824,-4.4041,-4.3598,-4.3598,-4.3598,-4.3598,-4.3598,-4.3598,-4.3598,-4.3598,-4.3598,-4.3598,-4.3598,-4.3317,-4.2572,-4.3151,-4.3267,-4.2456,-4.1778,-4.0895,-3.968,-3.9481,-3.973,-4.0475,-3.973,-3.9332,-3.9398,-3.9332,-3.9299,-3.9299,-3.9299,-3.9299,-3.9299,-3.9299,-3.9299,-3.9299,-3.9299,-3.9299,-3.9299,-3.9299,-3.9299,-3.9299,-3.9299,-3.9299,-3.9299,-3.9299,-3.9348,-3.9497,-4.016,-4.0011,-3.9597,-4.0276,-4.0492,-4.0492,-4.0492,-4.0945,-4.1508,-4.1508,-4.2009,-4.2589,-4.2589,-4.3085,-4.3598,-4.3598,-4.3085,-4.2406,-4.1728,-4.2638,-4.34,-4.2738,-4.3118,-4.3383,-4.2704,-4.2589,-4.2373,-4.1723,-4.0961,-4.0492,-4.0492,-3.9812,-3.9299,-3.9299,-3.9299,-3.9352,-3.9475,-3.9969,-4.0721,-4.1776,-4.2391,-4.2733,-4.2725,-4.2836,-4.295,-4.3009,-4.2991,-4.301,-4.301,-4.3082,-4.3046,-4.2901,-4.2901,-4.2901,-4.2901,-4.2901,-4.2901,-4.2901,-4.2992,-4.3407,-4.4095,-4.4168,-4.415,-4.4095,-4.4095,-4.4059,-4.3896,-4.3173,-4.3372,-4.3878,-4.3598,-4.3598,-4.3598,-4.3598,-4.3598,-4.3598,-4.3598,-4.3598,-4.3598,-4.3598,-4.3598,-4.3317,-4.2572,-4.3151,-4.3069,-4.1728,-4.148,-4.1524,-4.1789,-4.0763,-4.0464,-4.116,-3.9951,-3.9564,-4.016,-3.9597,-3.9299,-3.9299,-3.9299,-3.9299,-3.9299,-3.9299,-3.9299,-3.9299,-3.9299,-3.9299,-3.9299,-3.9299,-3.9299,-3.9299,-3.9299,-3.9299,-3.9299,-3.9299,-3.9663,-4.0194,-4.0343,-4.0613,-4.0978,-4.1127,-4.1193,-4.1193,-4.1193,-4.169,-4.2258,-4.2258,-4.2771,-4.335,-4.335,-4.3466,-4.3598,-4.3598,-4.3466,-4.3317,-4.3151,-4.3367,-4.3549,-4.3383,-4.3482,-4.3549,-4.3383,-4.335,-4.33,-4.3135,-4.2038,-4.1193,-4.1193,-4.0083,-3.9299,-3.9299,-3.9299,-3.9299,-3.9325,-4.0294,-4.1087,-4.1543,-4.2905,-4.3239,-4.2142,-4.3124,-4.3742,-4.3761,-4.3803,-4.3824,-4.3824,-4.4458,-4.415,-4.2901,-4.2901,-4.2901,-4.2901,-4.2901,-4.2901,-4.2937,-4.357,-4.3932,-4.415,-4.4784,-4.4675,-4.4095,-4.4095,-4.3697,-4.3155,-4.2955,-4.3009,-4.3155,-4.3598,-4.3598,-4.3598,-4.3598,-4.3598,-4.3598,-4.3598,-4.3598,-4.3598,-4.3598,-4.3598,-4.3449,-4.3069,-4.3367,-4.3135,-4.2009,-4.191,-4.1926,-4.196,-4.1293,-4.1193,-4.1877,-4.0878,-4.0647,-4.1392,-4.068,-4.0133,-3.9829,-3.9481,-3.9299,-3.9299,-3.9299,-3.9299,-3.9299,-3.9299,-3.9299,-3.9299,-3.9299,-3.9497,-3.9829,-3.9829,-4.0028,-4.0299,-4.0299,-4.0531,-4.0912,-4.1276,-4.164,-4.186,-4.1513,-4.1612,-4.191,-4.191,-4.2423,-4.3019,-4.3019,-4.33,-4.3598,-4.3598,-4.3876,-4.4042,-4.3681,-4.3876,-4.4042,-4.3664,-4.3598,-4.3598,-4.3598,-4.3598,-4.3598,-4.3598,-4.3598,-4.3598,-4.3598,-4.2655,-4.191,-4.191,-4.0994,-4.0299,-4.0299,-4.0299,-4.0392,-4.0662,-4.1247,-4.1791,-4.22,-4.3107,-4.3419,-4.297,-4.3729,-4.4312,-4.4614,-4.4655,-4.4675,-4.4675,-4.5091,-4.4874,-4.4041,-4.4041,-4.4041,-4.4041,-4.4041,-4.4041,-4.4041,-4.4077,-4.4313,-4.4675,-4.4711,-4.4476,-4.4095,-4.4095,-4.3607,-4.2901,-4.2901,-4.2901,-4.2955,-4.3383,-4.34,-4.3449,-4.3582,-4.3598,-4.3598,-4.3598,-4.3598,-4.3598,-4.3598,-4.3598,-4.3598,-4.3598,-4.3598,-4.335,-4.2738,-4.2688,-4.2423,-4.1839,-4.1674,-4.1844,-4.2456,-4.1778,-4.1728,-4.2473,-4.1674,-4.0961,-4.0409,-3.9796,-3.9431,-3.9299,-3.9299,-3.9299,-3.9299,-3.9299,-3.9365,-3.9497,-3.9497,-3.9912,-4.0591,-4.0591,-4.0895,-4.1409,-4.1409,-4.1491,-4.1662,-4.2406,-4.2754,-4.28,-4.217,-4.2386,-4.2899,-4.2899,-4.3284,-4.3797,-4.3929,-4.388,-4.3813,-4.3929,-4.4423,-4.4738,-4.4111,-4.444,-4.4721,-4.4141,-4.3863,-4.378,-4.378,-4.388,-4.3929,-4.3797,-4.378,-4.3731,-4.3615,-4.2969,-4.2489,-4.2489,-4.186,-4.1409,-4.1409,-4.1409,-4.1627,-4.2213,-4.224,-4.2439,-4.2868,-4.3338,-4.3684,-4.3827,-4.4301,-4.4807,-4.5348,-4.5348,-4.5389,-4.5508,-4.5635,-4.5635,-4.5508,-4.5635,-4.5562,-4.5291,-4.5291,-4.5291,-4.5273,-4.4729,-4.4892,-4.5454,-4.4784,-4.4421,-4.4277,-4.415,-4.3679,-4.3137,-4.3263,-4.3318,-4.3426,-4.2506,-4.2638,-4.2837,-4.3482,-4.3598,-4.3598,-4.3598,-4.3598,-4.3598,-4.3598,-4.3598,-4.3598,-4.3598,-4.3598,-4.3549,-4.3449,-4.3449,-4.34,-4.33,-4.2704,-4.239,-4.2489,-4.1778,-4.1728,-4.2473,-4.121,-4.0492,-4.0409,-4.031,-3.9928,-3.9299,-3.9299,-3.9299,-3.9299,-3.9299,-3.9663,-4.026,-4.026,-4.063,-4.1276,-4.1276,-4.1326,-4.1409,-4.1409,-4.1806,-4.244,-4.3184,-4.3876,-4.4373,-4.4274,-4.4307,-4.439,-4.439,-4.4456,-4.4671,-4.5317,-4.5052,-4.4688,-4.5317,-4.5566,-4.5616,-4.5533,-4.5582,-4.5616,-4.5533,-4.5003,-4.4539,-4.4539,-4.5052,-4.5301,-4.4655,-4.4539,-4.434,-4.3698,-4.2969,-4.2489,-4.2489,-4.186,-4.1409,-4.1409,-4.1409,-4.1685,-4.2389,-4.2456,-4.2496,-4.2553,-4.4209,-4.45,-4.2894,-4.4294,-4.5328,-4.5636,-4.553,-4.5763,-4.6341,-4.7029,-4.7029,-4.6359,-4.7047,-4.6649,-4.5291,-4.5291,-4.5291,-4.5327,-4.5924,-4.625,-4.6341,-4.6214,-4.5761,-4.5073,-4.4367,-4.4023,-4.4023,-4.4711,-4.4983,-4.4983,-4.2357,-4.2489,-4.2721,-4.3466,-4.3598,-4.3598,-4.3598,-4.3598,-4.3598,-4.3598,-4.3598,-4.3598,-4.3598,-4.3598,-4.3598,-4.3598,-4.3598,-4.3598,-4.3598,-4.33,-4.3102,-4.3102,-4.2787,-4.2771,-4.3102,-4.2518,-4.1988,-4.1574,-4.0779,-4.0243,-3.9928,-4.0282,-4.0266,-3.9928,-4.0299,-4.0647,-4.0961,-4.0961,-4.1375,-4.1993,-4.1993,-4.2258,-4.2622,-4.2622,-4.282,-4.3201,-4.3959,-4.4688,-4.5301,-4.5301,-4.5301,-4.5301,-4.5301,-4.5301,-4.5367,-4.5698,-4.5566,-4.5384,-4.5698,-4.6096,-4.6311,-4.5897,-4.6096,-4.6295,-4.5881,-4.5864,-4.5798,-4.5384,-4.5566,-4.5698,-4.5367,-4.5301,-4.5202,-4.4887,-4.4556,-4.434,-4.434,-4.3711,-4.3098,-4.2671,-4.2999,-4.3214,-4.3118,-4.3495,-4.371,-4.3623,-4.4895,-4.5236,-4.4277,-4.5127,-4.5823,-4.6237,-4.6282,-4.6565,-4.7153,-4.7515,-4.7515,-4.7174,-4.7536,-4.7337,-4.6649,-4.6649,-4.6649,-4.6649,-4.654,-4.6504,-4.6468,-4.6015,-4.5617,-4.5254,-4.491,-4.4765,-4.4874,-4.5671,-4.5689,-4.5363]},{"header":{"parameterUnit":"m.s-1","parameterCategory":1,"la1":30.6,"la2":28.766,"lo1":-90.7593,"lo2":-88.6598,"dy":0.0162,"dx":0.0183,"nx":116,"ny":114,"refTime":"2024-04-13T06:00:00:Z","depth":0,"parameterNumber":3,"parameterNumberName":"V-component_of_WINDS"},"data":[0.0,0.0,0.0,0.0,0.0,0.0,0.0,0.0,0.0,0.0,0.0,0.0,0.0,0.0,0.0,0.0,0.0,0.0,0.0,0.0,0.0,0.0,0.0,0.0,0.0,0.0,0.0,0.0,0.0,0.0,0.0,0.0,0.0,0.0,0.0,0.0,0.0,0.0,0.0,0.0,0.0,0.0,0.0,0.0,0.0,0.0,0.0,0.0,0.0,0.0,0.0,0.0,0.0,0.0,0.0,0.0,0.0,0.0,0.0,0.0,0.0,0.0,0.0,0.0,0.0,0.0,0.0,0.0,0.0,0.0,0.0,0.0,0.0,0.0,0.0,0.0,0.0,0.0,0.0,0.0,0.0,0.0,0.0,0.0,0.0,0.0,0.0,0.0,0.0,0.0,0.0,0.0,0.0,0.0,0.0,0.0,0.0,0.0,0.0,0.0,0.0,0.0,0.0,0.0,0.0,0.0,0.0,0.0,0.0,0.0,0.0,0.0,0.0,0.0,0.0,0.0,0.0,0.0,0.0,0.0,0.0,0.0,0.0,0.0,0.0,0.0,0.0,0.0,0.0,0.0,0.0,0.0,0.0,0.0,0.0,0.0,0.0,0.0,0.0,0.0,0.0,0.0,0.0,0.0,0.0,0.0,0.0,0.0,0.0,0.0,0.0,0.0,0.0,0.0,0.0,0.0,0.0,0.0,0.0,0.0,0.0,0.0,0.0,0.0,0.0,0.0,0.0,0.0,0.0,0.0,0.0,0.0,0.0,0.0,0.0,0.0,0.0,0.0,0.0,0.0,0.0,0.0,0.0,0.0,0.0,0.0,0.0,0.0,0.0,0.0,0.0,0.0,0.0,0.0,0.0,0.0,0.0,0.0,0.0,0.0,0.0,0.0,0.0,0.0,0.0,0.0,0.0,0.0,0.0,0.0,0.0,0.0,0.0,0.0,0.0,0.0,0.0,0.0,0.0,0.0,0.0,0.0,0.0,0.0,0.0,0.0,0.0,0.0,0.0,0.0,0.0,0.0,0.0,0.0,0.0,0.0,0.0,0.0,0.0,0.0,0.0,0.0,0.0,0.0,0.0,0.0,0.0,0.0,0.0,0.0,0.0,0.0,0.0,0.0,0.0,0.0,0.0,0.0,0.0,0.0,0.0,0.0,0.0,0.0,0.0,0.0,0.0,0.0,0.0,0.0,0.0,0.0,0.0,0.0,0.0,0.0,0.0,0.0,0.0,0.0,0.0,0.0,0.0,0.0,0.0,0.0,0.0,0.0,0.0,0.0,0.0,0.0,0.0,0.0,0.0,0.0,0.0,0.0,0.0,0.0,0.0,0.0,0.0,0.0,0.0,0.0,0.0,0.0,0.0,0.0,0.0,0.0,0.0,0.0,0.0,0.0,0.0,0.0,0.0,0.0,0.0,0.0,0.0,0.0,0.0,0.0,0.0,0.0,0.0,0.0,0.0,0.0,0.0,0.0,0.0,0.0,0.0,0.0,0.0,0.0,0.0,0.0,0.0,0.0,0.0,0.0,0.0,0.0,0.0,0.0,0.0,0.0,0.0,0.0,0.0,0.0,0.0,0.0,0.0,0.0,0.0,0.0,0.0,0.0,0.0,0.0,0.0,0.0,0.0,0.0,0.0,0.0,0.0,0.0,0.0,0.0,0.0,0.0,0.0,0.0,0.0,0.0,0.0,0.0,0.0,0.0,0.0,0.0,0.0,0.0,0.0,0.0,0.0,0.0,0.0,0.0,0.0,0.0,0.0,0.0,0.0,0.0,0.0,0.0,0.0,0.0,0.0,0.0,0.0,0.0,0.0,0.0,0.0,0.0,0.0,0.0,0.0,0.0,0.0,0.0,0.0,0.0,0.0,0.0,0.0,0.0,0.0,0.0,0.0,0.0,0.0,0.0,0.0,0.0,0.0,0.0,0.0,0.0,0.0,0.0,0.0,0.0,0.0,0.0,0.0,0.0,0.0,0.0,0.0,0.0,0.0,0.0,0.0,0.0,0.0,0.0,0.0,0.0,0.0,0.0,0.0,0.0,0.0,0.0,0.0,0.0,0.0,0.0,0.0,0.0,0.0,0.0,0.0,0.0,0.0,0.0,0.0,0.0,0.0,0.0,0.0,0.0,0.0,0.0,0.0,0.0,0.0,0.0,0.0,0.0,0.0,0.0,0.0,0.0,0.0,0.0,0.0,0.0,0.0,0.0,0.0,0.0,0.0,0.0,0.0,0.0,0.0,0.0,0.0,0.0,0.0,0.0,0.0,0.0,0.0,0.0,0.0,0.0,0.0,0.0,0.0,0.0,0.0,0.0,0.0,0.0,0.0,0.0,0.0,0.0,0.0,0.0,0.0,0.0,0.0,0.0,0.0,0.0,0.0,0.0,0.0,0.0,0.0,0.0,0.0,0.0,0.0,0.0,0.0,0.0,0.0,0.0,0.0,0.0,0.0,0.0,0.0,0.0,0.0,0.0,0.0,0.0,0.0,0.0,0.0,0.0,0.0,0.0,0.0,0.0,0.0,0.0,0.0,0.0,0.0,0.0,0.0,0.0,0.0,0.0,0.0,0.0,0.0,0.0,0.0,0.0,0.0,0.0,0.0,0.0,0.0,0.0,0.0,0.0,0.0,0.0,0.0,0.0,0.0,0.0,0.0,0.0,0.0,0.0,0.0,0.0,0.0,0.0,0.0,0.0,0.0,0.0,0.0,0.0,0.0,0.0,0.0,0.0,0.0,0.0,0.0,0.0,0.0,0.0,0.0,0.0,0.0,0.0,0.0,0.0,0.0,0.0,0.0,0.0,0.0,0.0,0.0,0.0,0.0,0.0,0.0,0.0,0.0,0.0,0.0,0.0,0.0,0.0,0.0,0.0,0.0,0.0,0.0,0.0,0.0,0.0,0.0,0.0,0.0,0.0,0.0,0.0,0.0,0.0,0.0,0.0,0.0,0.0,0.0,0.0,0.0,0.0,0.0,0.0,0.0,0.0,0.0,0.0,0.0,0.0,0.0,0.0,0.0,0.0,0.0,0.0,0.0,0.0,0.0,0.0,0.0,0.0,0.0,0.0,0.0,0.0,0.0,0.0,0.0,0.0,0.0,0.0,0.0,0.0,0.0,0.0,0.0,0.0,0.0,0.0,0.0,0.0,0.0,0.0,0.0,0.0,0.0,0.0,0.0,0.0,0.0,0.0,0.0,0.0,0.0,0.0,0.0,0.0,0.0,0.0,0.0,0.0,0.0,0.0,0.0,0.0,0.0,0.0,0.0,0.0,0.0,0.0,0.0,0.0,0.0,0.0,0.0,0.0,0.0,0.0,0.0,0.0,0.0,0.0,0.0,0.0,0.0,0.0,0.0,0.0,0.0,0.0,0.0,0.0,0.0,0.0,0.0,0.0,0.0,0.0,0.0,0.0,0.0,0.0,0.0,0.0,0.0,0.0,0.0,0.0,0.0,0.0,0.0,0.0,0.0,0.0,0.0,0.0,0.0,0.0,0.0,0.0,0.0,0.0,0.0,0.0,0.0,0.0,0.0,0.0,0.0,0.0,0.0,0.0,0.0,0.0,0.0,0.0,0.0,0.0,0.0,0.0,0.0,0.0,0.0,0.0,0.0,0.0,0.0,0.0,0.0,0.0,0.0,0.0,0.0,0.0,0.0,0.0,0.0,0.0,0.0,0.0,0.0,0.0,0.0,0.0,0.0,0.0,0.0,0.0,0.0,0.0,0.0,0.0,0.0,0.0,0.0,0.0,0.0,0.0,0.0,0.0,0.0,0.0,0.0,0.0,0.0,0.0,0.0,0.0,0.0,0.0,0.0,0.0,0.0,0.0,0.0,0.0,0.0,0.0,0.0,0.0,0.0,0.0,0.0,0.0,0.0,0.0,0.0,0.0,0.0,0.0,0.0,0.0,0.0,0.0,0.0,0.0,0.0,0.0,0.0,0.0,0.0,0.0,0.0,0.0,0.0,0.0,0.0,0.0,0.0,0.0,0.0,0.0,0.0,0.0,0.0,0.0,0.0,0.0,0.0,0.0,0.0,0.0,0.0,0.0,0.0,0.0,0.0,0.0,0.0,0.0,0.0,0.0,0.0,0.0,0.0,0.0,0.0,0.0,0.0,0.0,0.0,0.0,0.0,0.0,0.0,0.0,0.0,0.0,0.0,0.0,0.0,0.0,0.0,0.0,0.0,0.0,0.0,0.0,0.0,0.0,0.0,0.0,0.0,0.0,0.0,0.0,0.0,0.0,0.0,0.0,0.0,0.0,0.0,0.0,0.0,0.0,0.0,0.0,0.0,0.0,0.0,0.0,0.0,0.0,0.0,0.0,0.0,0.0,0.0,0.0,0.0,0.0,0.0,0.0,0.0,0.0,0.0,0.0,0.0,0.0,0.0,0.0,0.0,0.0,0.0,0.0,0.0,0.0,0.0,0.0,0.0,0.0,0.0,0.0,0.0,0.0,0.0,0.0,0.0,0.0,0.0,0.0,0.0,0.0,0.0,0.0,0.0,0.0,0.0,0.0,0.0,0.0,0.0,0.0,0.0,0.0,0.0,0.0,0.0,0.0,0.0,0.0,0.0,0.0,0.0,0.0,0.0,0.0,0.0,0.0,0.0,0.0,0.0,0.0,0.0,0.0,0.0,0.0,0.0,0.0,0.0,0.0,0.0,0.0,0.0,0.0,0.0,0.0,0.0,0.0,0.0,0.0,0.0,0.0,0.0,0.0,0.0,0.0,0.0,0.0,0.0,0.0,0.0,0.0,0.0,0.0,0.0,0.0,0.0,0.0,0.0,0.0,0.0,0.0,0.0,0.0,0.0,0.0,0.0,0.0,0.0,0.0,0.0,0.0,0.0,0.0,0.0,0.0,0.0,0.0,0.0,0.0,0.0,0.0,0.0,0.0,0.0,0.0,0.0,0.0,0.0,0.0,0.0,0.0,0.0,0.0,0.0,0.0,0.0,0.0,0.0,0.0,0.0,0.0,0.0,0.0,0.0,0.0,0.0,0.0,0.0,0.0,0.0,0.0,0.0,0.0,0.0,0.0,0.0,0.0,0.0,0.0,0.0,0.0,0.0,0.0,0.0,0.0,0.0,0.0,0.0,0.0,0.0,0.0,0.0,0.0,0.0,0.0,0.0,0.0,0.0,0.0,0.0,0.0,0.0,0.0,0.0,0.0,0.0,0.0,0.0,0.0,0.0,0.0,0.0,0.0,0.0,0.0,0.0,0.0,0.0,0.0,0.0,0.0,0.0,0.0,0.0,0.0,0.0,0.0,0.0,0.0,0.0,0.0,0.0,0.0,0.0,0.0,0.0,0.0,0.0,0.0,0.0,0.0,0.0,0.0,0.0,0.0,0.0,0.0,0.0,0.0,0.0,0.0,0.0,0.0,0.0,0.0,0.0,0.0,0.0,0.0,0.0,0.0,0.0,0.0,0.0,0.0,0.0,0.0,0.0,0.0,0.0,0.0,0.0,0.0,0.0,0.0,0.0,0.0,0.0,0.0,0.0,0.0,0.0,0.0,0.0,0.0,0.0,0.0,0.0,0.0,0.0,0.0,0.0,0.0,0.0,0.0,0.0,0.0,0.0,0.0,0.0,0.0,0.0,0.0,0.0,0.0,0.0,0.0,0.0,0.0,0.0,0.0,0.0,0.0,0.0,0.0,0.0,0.0,0.0,0.0,0.0,0.0,0.0,0.0,0.0,0.0,0.0,0.0,0.0,0.0,0.0,0.0,0.0,0.0,0.0,0.0,0.0,0.0,0.0,0.0,0.0,0.0,0.0,0.0,0.0,0.0,0.0,0.0,0.0,0.0,0.0,0.0,0.0,0.0,0.0,0.0,0.0,0.0,0.0,0.0,0.0,0.0,0.0,0.0,0.0,0.0,0.0,0.0,0.0,0.0,0.0,0.0,0.0,0.0,0.0,0.0,0.0,0.0,0.0,0.0,0.0,0.0,0.0,0.0,0.0,0.0,0.0,0.0,0.0,0.0,0.0,0.0,0.0,0.0,0.0,0.0,0.0,0.0,0.0,0.0,0.0,0.0,0.0,0.0,0.0,0.0,0.0,0.0,0.0,0.0,0.0,0.0,0.0,0.0,0.0,0.0,1.0406,0.9381,0.0,0.0,0.0,0.0,0.0,0.0,0.0,0.0,0.0,0.0,0.0,0.0,0.0,0.0,0.0,0.0,0.0,0.0,0.0,0.0,0.0,0.0,0.0,0.9145,0.9318,0.9377,0.9084,0.8689,0.82,0.0,0.0,0.0,0.0,0.0,0.788,0.7951,0.8025,0.815,0.8421,0.8924,0.9612,1.0244,1.122,1.2484,0.0,0.0,0.0,0.0,0.0,0.0,0.0,0.0,0.0,0.0,0.0,0.0,0.0,0.0,0.0,0.0,0.0,0.0,0.0,0.0,0.0,0.0,0.0,0.0,0.0,0.0,0.0,0.0,0.0,0.0,0.0,0.0,0.0,0.0,0.0,0.0,0.0,0.0,0.0,0.0,0.0,0.0,0.0,0.0,0.0,0.0,0.0,0.0,0.0,0.0,0.0,0.0,0.0,0.0,0.0,0.0,0.0,0.0,0.0,0.0,0.0,0.0,0.0,0.0,0.0,0.0,0.0,0.0,0.0,0.0,1.2308,1.1397,0.0,0.0,0.0,0.0,0.0,0.0,0.0,0.0,0.0,0.0,0.0,0.0,0.0,0.0,0.0,0.0,0.0,0.0,0.0,0.0,0.0,0.727,0.7569,0.8503,0.9,0.8727,0.8907,0.8765,0.8231,0.8208,0.0,0.0,0.0,0.7904,0.7851,0.7924,0.8102,0.8231,0.8575,0.9515,1.0893,1.1092,1.1625,1.2535,0.0,0.0,0.0,0.0,0.0,0.0,0.0,0.0,0.0,0.0,0.0,0.0,0.0,0.0,0.0,0.0,0.0,0.0,0.0,0.0,0.0,0.0,0.0,0.0,0.0,0.0,0.0,0.0,0.0,0.0,0.0,0.0,0.0,0.0,0.0,0.0,0.0,0.0,0.0,0.0,0.0,0.0,0.0,0.0,0.0,0.0,0.0,0.0,0.0,0.0,0.0,0.0,0.0,0.0,0.0,0.0,0.0,0.0,0.0,0.0,0.0,0.0,0.0,0.0,1.4835,1.4941,1.482,1.4861,1.4826,1.4644,1.4181,1.3664,1.3048,1.2243,0.0,0.0,0.0,0.0,0.0,0.0,0.0,0.0,0.0,0.0,0.0,0.0,0.0,0.0,0.0,0.0,0.0,0.0,0.0,0.6805,0.7505,0.7325,0.7501,0.8292,0.7844,0.7566,0.7675,0.7799,0.7913,0.7958,0.7899,0.7892,0.7958,0.7978,0.8002,0.8019,0.8433,0.9102,1.0093,1.1032,1.237,1.3991,1.3937,0.0,0.0,0.0,0.0,0.0,0.0,0.0,0.0,0.0,0.0,0.0,0.0,0.0,0.0,0.0,0.0,0.0,0.0,0.0,0.0,0.0,0.0,0.0,0.0,0.0,0.0,0.0,0.0,0.0,0.0,0.0,0.0,0.0,0.0,0.0,0.0,0.0,0.0,0.0,0.0,0.0,0.0,0.0,1.5373,1.5351,0.0,0.0,0.0,0.0,0.0,0.0,0.0,0.0,0.0,0.0,0.0,0.0,0.0,1.5115,1.6136,1.5847,1.5565,1.5348,1.5837,1.6355,1.6762,1.6079,1.648,1.7709,1.6233,0.0,1.4161,1.2939,0.0,0.0,0.0,0.0,0.0,0.0,0.0,0.0,0.0,0.0,0.0,0.0,0.0,0.0,0.0,0.0,0.0,0.0,0.0,0.0,0.0,0.6943,0.7231,0.8097,0.8236,0.823,0.8243,0.8538,0.8459,0.7933,0.788,0.788,0.7913,0.7944,0.8211,0.8623,0.9057,0.9562,1.0092,1.0532,1.1625,1.3143,1.3029,1.4247,1.6362,1.5758,0.0,0.0,0.0,0.0,0.0,0.0,0.0,0.0,0.0,0.0,0.0,0.0,0.0,0.0,0.0,0.0,0.0,0.0,0.0,0.0,0.0,0.0,0.0,0.0,0.0,0.0,0.0,0.0,0.0,0.0,0.0,0.0,0.0,0.0,0.0,0.0,0.0,0.0,0.0,1.596,1.6272,1.5806,1.6321,1.6268,0.0,0.0,0.0,0.0,0.0,0.0,0.0,0.0,0.0,1.8268,1.6876,1.6693,1.7929,1.7047,1.6778,1.7258,1.69,1.6735,1.6702,1.6429,1.6609,1.6942,1.6205,1.5912,1.5894,1.4376,1.3829,1.3856,0.0,0.0,0.0,0.0,1.1788,1.1588,0.0,0.0,0.0,0.0,0.0,0.0,0.0,0.0,0.0,0.0,0.0,0.0,0.6499,0.6855,0.7357,0.8076,0.8595,0.894,0.914,0.9068,0.8864,0.8396,0.8108,0.7897,0.7872,0.8046,0.8484,0.9154,0.9577,0.998,1.0252,1.0252,1.1043,1.2392,1.2503,1.4179,1.6785,1.6214,1.5582,0.0,0.0,0.0,0.0,0.0,0.0,0.0,0.0,0.0,0.0,0.0,0.0,0.0,0.0,0.0,0.0,0.0,0.0,0.0,0.0,0.0,0.0,0.0,0.0,0.0,0.0,0.0,0.0,0.0,0.0,0.0,0.0,0.0,0.0,0.0,0.0,0.0,0.0,1.6876,1.7285,1.6587,1.7929,1.8335,0.0,0.0,0.0,0.0,0.0,0.0,1.9667,1.8949,1.9242,2.0918,1.9416,1.9251,2.0516,1.8858,1.8365,1.9048,1.8059,1.7397,1.7039,1.6968,1.6934,1.6836,1.629,1.6569,1.7238,1.5651,1.5073,1.5146,1.4199,1.3955,1.4023,1.36,1.3355,1.3159,0.0,0.0,0.0,0.0,0.0,0.0,0.0,0.0,0.0,0.0,0.0,0.6443,0.6747,0.7103,0.7528,0.8245,0.8244,0.8837,1.031,0.8954,0.8593,0.9839,0.8554,0.7885,0.7975,0.8455,0.8896,0.9405,0.9652,1.0056,1.0507,1.0507,1.1275,1.268,1.3173,1.4636,1.6687,1.5366,1.5491,1.6455,0.0,0.0,0.0,0.0,0.0,0.0,0.0,0.0,0.0,0.0,0.0,0.0,0.0,0.0,0.0,0.0,0.0,0.0,0.0,0.0,0.0,0.0,0.0,0.0,0.0,0.0,0.0,0.0,0.0,0.0,0.0,0.0,0.0,0.0,0.0,0.0,0.0,0.0,0.0,1.8098,2.0165,0.0,0.0,0.0,0.0,2.1278,2.1317,2.162,2.216,2.1913,2.2543,2.4315,2.3134,2.3126,2.4313,2.1884,2.051,2.0282,1.9266,1.8892,1.9023,1.8095,1.8343,1.9398,1.7443,1.7058,1.7772,1.6351,1.6219,1.6814,1.5159,1.4993,1.5539,1.4519,1.4768,1.5453,0.0,0.0,0.0,0.0,0.0,0.5688,0.5688,0.5863,0.5981,0.604,0.6448,0.6841,0.7046,0.7489,0.8074,0.8775,0.9136,0.9496,0.989,0.9365,0.9106,0.9291,0.8609,0.8404,0.8747,0.9008,0.9313,0.9663,0.9968,1.0156,1.0173,1.0173,1.0572,1.1383,1.1619,1.2768,1.4541,1.5595,1.6326,1.6646,1.5628,1.4991,0.0,0.0,0.0,0.0,0.0,0.0,0.0,0.0,0.0,0.0,0.0,0.0,0.0,0.0,0.0,0.0,0.0,0.0,0.0,0.0,0.0,0.0,0.0,0.0,0.0,0.0,0.0,0.0,0.0,0.0,0.0,0.0,0.0,0.0,0.0,0.0,0.0,2.1046,2.3403,0.0,2.3111,2.3677,2.3904,2.335,2.3524,2.4208,2.5394,2.4529,2.4641,2.6108,2.4703,2.4403,2.5466,2.3584,2.2773,2.304,2.1814,2.0878,2.0147,1.9009,1.8503,1.8316,1.681,1.6636,1.742,1.6975,1.7211,1.7661,1.6915,1.6387,1.608,1.6354,1.5969,1.5281,0.0,0.0,0.0,0.0,0.0,0.5688,0.5688,0.5863,0.5995,0.61,0.655,0.7001,0.7287,0.7777,0.8479,0.9307,0.952,0.9854,1.0279,0.9707,0.9317,0.9338,0.8852,0.8743,0.92,0.9452,0.9703,0.99,1.0202,1.0249,0.9987,0.9987,1.0146,1.0352,1.0692,1.1563,1.303,1.4766,1.5647,1.5813,1.557,1.5343,1.507,0.0,0.0,0.0,0.0,0.0,0.0,0.0,0.0,0.0,0.0,0.0,0.0,0.0,0.0,0.0,0.0,0.0,0.0,0.0,0.0,0.0,0.0,0.0,0.0,0.0,0.0,0.0,0.0,0.0,0.0,0.0,0.0,0.0,0.0,2.247,2.4153,2.3563,2.6227,2.754,2.6152,2.68,2.6929,2.6152,2.6269,2.6824,2.7744,2.6892,2.6771,2.7633,2.6624,2.6321,2.703,2.5291,2.4569,2.4819,2.3622,2.2474,2.1425,2.0537,1.9679,1.8782,1.774,1.7407,1.7692,1.7946,1.8182,1.8297,1.7875,1.7465,1.7117,1.7563,1.7021,1.6123,0.0,0.0,0.0,0.0,0.0,0.5688,0.5688,0.5688,0.5817,0.6053,0.6407,0.6864,0.7459,0.7956,0.8646,0.9752,0.9478,0.9943,1.1599,0.983,0.9126,1.012,0.9236,0.8882,0.9245,0.9761,1.0056,1.0122,1.0344,1.0331,0.998,0.998,0.9903,0.9832,1.0517,1.138,1.2336,1.2774,1.3336,1.3988,1.4919,1.5355,1.5427,0.0,0.0,0.0,0.0,0.0,0.0,0.0,0.0,0.0,0.0,0.0,0.0,0.0,0.0,0.0,0.0,0.0,0.0,0.0,0.0,0.0,0.0,0.0,0.0,0.0,0.0,0.0,0.0,0.0,0.0,0.0,0.0,0.0,2.2034,2.4166,2.5859,2.5675,2.8412,3.0031,2.9176,3.014,3.0488,2.9672,2.9659,2.9424,2.9039,2.8993,2.8984,2.8984,2.8984,2.8984,2.8984,2.7047,2.5891,2.5567,2.4509,2.3642,2.2982,2.2616,2.194,2.11,2.0323,1.9491,1.8678,1.9191,1.9177,1.8759,1.8025,1.8164,1.8681,1.7971,1.7987,1.8192,0.0,0.0,0.0,0.5551,0.5629,0.5688,0.5688,0.5688,0.5817,0.6053,0.6624,0.7173,0.7606,0.8155,0.8764,0.9429,0.9204,0.9343,1.0111,0.9208,0.9056,0.9787,0.0,0.0,1.0485,1.0311,1.0215,1.0282,1.0297,1.0181,0.9883,0.9883,0.9863,0.9836,1.0266,1.057,1.0913,1.1385,1.1666,1.2031,1.4435,1.6151,1.722,0.0,0.0,0.0,0.0,0.0,0.0,0.0,0.0,0.0,0.0,0.0,0.0,0.0,0.0,0.0,0.0,0.0,0.0,0.0,0.0,0.0,0.0,0.0,0.0,0.0,0.0,0.0,0.0,0.0,0.0,0.0,2.6041,2.6423,2.4879,2.6655,2.8272,2.8731,3.0419,3.1432,3.1176,3.1478,3.1332,3.0516,3.0185,2.9984,2.9874,2.9305,2.8984,2.8984,2.8984,2.8984,2.8984,2.8178,2.753,2.7167,2.656,2.5631,2.4484,2.3491,2.2523,2.1534,2.005,1.9617,1.9902,1.9121,1.913,1.9526,1.8785,1.8303,1.8025,1.8396,1.8249,1.7902,0.0,0.0,0.0,0.5499,0.5607,0.5688,0.5688,0.5688,0.5836,0.6124,0.6752,0.7222,0.7584,0.8068,0.8502,0.8915,0.8848,0.8875,0.9057,0.9037,0.9268,0.0,0.0,1.0475,1.0906,1.0636,1.0432,1.0368,1.031,1.0154,0.9856,0.9849,0.9822,0.9832,1.0076,1.0219,1.029,1.0626,1.1174,1.1953,1.4299,1.6043,1.7235,1.7229,1.7942,1.8747,1.7788,1.8074,1.8724,1.7951,0.0,0.0,0.0,0.0,0.0,0.0,0.0,0.0,0.0,0.0,0.0,0.0,0.0,0.0,0.0,0.0,0.0,0.0,0.0,0.0,0.0,0.0,0.0,0.0,2.7667,2.8273,2.8188,2.9245,3.0228,3.0768,3.1676,3.2249,3.2249,3.2102,3.1671,3.0855,3.0424,3.0121,2.9947,2.9333,2.8984,2.8984,2.8984,2.8984,2.8984,2.8416,2.8003,2.7813,2.7196,2.6518,2.5667,2.4651,2.3738,2.2923,2.1504,2.0913,2.0774,1.9872,1.9734,0.0,0.0,0.0,0.0,0.0,1.812,1.7743,0.0,0.0,0.0,0.5467,0.5586,0.5675,0.5686,0.5688,0.5858,0.6251,0.6665,0.7089,0.7421,0.779,0.8096,0.8297,0.8453,0.8564,0.8588,0.9213,0.0,0.9996,1.0444,1.0766,1.0863,1.0809,1.0663,1.049,1.0365,1.0226,1.0011,0.9937,0.9863,0.9856,0.996,1.0168,1.029,1.0449,1.1308,1.2738,1.4313,1.5493,1.6416,1.7679,1.9156,2.0403,1.9126,1.9094,1.9618,1.9254,0.0,0.0,0.0,0.0,0.0,0.0,0.0,0.0,0.0,0.0,0.0,0.0,0.0,0.0,0.0,0.0,0.0,0.0,0.0,0.0,0.0,0.0,0.0,0.0,2.9129,2.976,3.1176,3.1377,3.1552,3.2019,3.2377,3.2579,3.2533,3.2212,3.1671,3.0855,3.0424,3.002,2.9589,2.9195,0.0,0.0,0.0,2.8984,2.8984,2.8168,2.7822,2.7813,2.6967,2.6536,2.6426,2.5754,2.5109,2.4514,2.369,2.2617,2.1521,2.1006,2.0609,2.0201,1.9234,1.8874,1.8702,1.8081,1.7846,1.7719,0.0,0.0,0.0,0.5382,0.5504,0.5575,0.5675,0.5688,0.5825,0.6086,0.654,0.6902,0.707,0.7497,0.7821,0.7859,0.8119,0.8521,0.9004,0.9918,1.0442,1.0648,1.1188,1.1454,1.1351,1.1011,1.0768,1.049,1.0463,1.0378,1.0236,1.0205,1.0124,1.0081,1.0287,1.0358,1.0297,1.0565,1.0822,1.1306,1.3887,1.5702,1.7052,1.8501,1.941,1.9844,1.9611,2.0268,2.1095,2.0287,2.0244,2.0336,1.8991,0.0,0.0,0.0,0.0,0.0,0.0,0.0,0.0,0.0,0.0,0.0,0.0,0.0,0.0,0.0,0.0,0.0,0.0,0.0,0.0,2.9649,3.0395,3.0967,3.135,3.1377,3.1653,3.2395,3.2551,3.2469,3.2148,3.2047,3.1671,3.0855,3.0424,3.002,2.9589,2.9195,2.8984,2.8984,2.8984,2.8984,2.8984,2.8168,2.7822,2.7813,0.0,0.0,2.5653,2.5445,2.5014,2.4231,2.36,2.2973,2.2377,2.1581,2.0874,2.0246,1.9691,1.9188,1.8726,1.8351,1.8017,1.7759,0.0,0.0,0.0,0.5306,0.5428,0.5529,0.5588,0.565,0.5841,0.6138,0.6434,0.669,0.6874,0.7108,0.7203,0.7078,0.756,0.821,0.0,1.0035,1.0747,1.1116,1.1491,1.1617,1.1493,1.1083,1.0769,1.0605,1.0527,1.0456,1.0385,1.0314,1.0239,1.0238,1.0321,1.0385,1.0395,1.0541,1.0649,1.085,1.3013,1.4646,1.6002,1.8154,1.9497,2.0174,1.991,2.0527,2.136,2.0895,2.0852,2.08,1.9838,1.8991,1.8112,0.0,0.0,0.0,0.0,0.0,0.0,0.0,0.0,0.0,0.0,0.0,0.0,0.0,0.0,2.7217,2.8945,0.0,3.0348,3.1631,3.1725,3.1743,3.2227,3.1948,3.1845,3.2249,3.2111,3.1992,3.201,3.1818,3.1524,3.1112,3.0534,3.0103,2.9892,2.9314,2.8984,2.8984,2.8984,2.8984,2.8984,2.8168,2.7822,2.7813,2.6967,2.6261,2.5708,2.5515,2.5093,2.4445,2.3718,2.3174,2.2721,2.1886,2.104,2.0292,2.032,1.9866,1.9147,1.8791,1.8414,1.8006,0.0,0.0,0.0,0.5178,0.5368,0.5481,0.5502,0.5629,0.5871,0.6159,0.6317,0.6469,0.6643,0.6684,0.6627,0.6503,0.7157,0.8025,0.0,1.0073,1.092,1.1485,1.1659,1.1666,1.1517,1.1173,1.0958,1.0806,1.0683,1.0622,1.0619,1.0477,1.0395,1.03,1.0365,1.0412,1.0429,1.0524,1.0609,1.0853,1.2553,1.3739,1.4812,1.7551,1.9301,2.0196,1.9847,2.0144,2.0699,2.0872,2.0795,2.0621,2.0358,1.9761,1.8862,1.7796,1.7853,0.0,0.0,0.0,0.0,0.0,0.0,0.0,0.0,2.5537,2.5889,2.7549,2.8232,2.9362,3.1826,3.1828,3.1944,3.3389,3.2893,3.245,3.2814,3.2411,3.2048,3.1891,3.1653,3.1598,3.1863,3.1579,3.135,3.1267,3.0598,3.0167,3.0085,2.9379,2.8984,2.8984,2.8984,2.8984,2.8984,2.826,2.7904,2.7813,2.704,2.6399,2.5892,2.5571,2.5166,2.4611,2.3736,2.3151,2.273,2.1998,2.1239,2.0609,2.1006,2.0637,1.9832,1.9412,1.8986,1.8564,0.0,0.0,0.0,0.0,0.0,0.5426,0.5491,0.5696,0.5899,0.5937,0.6146,0.6255,0.6173,0.6263,0.6506,0.6836,0.7479,0.0,0.9305,1.0447,1.1174,1.1384,1.1913,1.1924,1.1415,1.1341,1.1267,1.1114,1.1166,1.1087,1.1152,1.0941,1.0602,1.0211,1.0541,1.0409,1.0048,1.0504,1.0704,1.0916,1.36,1.4581,1.4749,1.7377,1.8465,1.8696,1.9212,1.9163,1.8993,1.9709,2.0146,2.0489,2.0621,2.0248,1.9661,1.896,1.7918,1.7078,1.7757,1.9912,2.2667,2.5469,2.5791,2.6288,0.0,2.956,2.9375,3.0732,3.1357,3.1885,3.2598,3.2926,3.3209,3.3534,3.377,3.3489,3.2207,3.2339,3.2264,3.1561,3.1735,3.1808,3.1478,3.1405,3.1231,3.0882,3.0442,3.0039,2.9663,2.9223,2.8984,2.8984,2.8984,2.8984,2.8984,2.8544,2.8141,2.7813,2.7381,2.6527,2.5488,2.5442,2.5001,2.4229,2.3373,2.2739,2.2318,2.187,2.1642,2.1562,2.1597,2.132,2.0808,2.0331,1.992,1.9579,0.0,0.0,0.0,0.0,0.0,0.5427,0.5436,0.5648,0.5828,0.5893,0.5991,0.6037,0.5986,0.5966,0.6051,0.6309,0.7181,0.0,0.8865,1.0081,1.0961,1.1365,1.1681,1.1691,1.1396,1.1392,1.1314,1.1231,1.1231,1.1231,1.1227,1.1016,1.0708,1.0309,1.0648,1.0615,1.0295,1.0776,1.0928,1.092,1.2115,1.3257,1.4378,1.5299,1.6278,1.7275,1.7995,1.8167,0.0,0.0,1.8851,1.9329,1.9382,1.921,1.8875,1.8334,1.8268,1.86,1.9844,2.1618,2.3523,2.5181,2.6401,2.7734,2.9678,3.0019,3.0312,3.1631,3.2432,3.3027,3.3457,3.3877,3.4164,3.4209,3.3994,3.3656,3.303,3.2281,3.1678,3.112,3.0992,3.0974,3.1029,3.1038,3.0873,3.0479,3.0066,2.9755,2.958,2.9195,2.8984,2.8984,2.8984,2.8984,2.8984,2.859,2.8187,2.7822,2.7361,2.6545,2.5424,2.5424,2.4794,2.3767,2.3151,2.2666,2.2245,2.1851,2.1696,2.1696,2.1696,2.1597,2.1365,2.0871,2.0133,1.9367,0.0,0.0,0.0,0.0,0.0,0.5372,0.5449,0.5621,0.5763,0.5935,0.5928,0.589,0.5858,0.5737,0.5734,0.5893,0.6804,0.0,0.0,0.9607,1.059,1.1301,1.1514,1.1565,1.1457,1.1494,1.144,1.129,1.129,1.129,1.1287,1.1138,1.0861,1.0581,1.0818,1.0798,1.0457,1.0936,1.1043,1.0941,1.1256,1.2283,1.3622,1.3986,1.4777,1.5764,1.6703,1.694,0.0,0.0,1.7441,1.7839,1.8067,1.8059,1.7957,1.7696,1.8308,1.9409,2.0524,2.1954,2.3421,2.4519,2.6324,2.8157,2.9529,3.0197,3.0898,3.21,3.2822,3.335,3.3662,3.4062,3.4385,3.4502,3.4287,3.3941,3.3614,3.2512,3.1546,3.0881,3.0442,3.0268,3.0442,3.0561,3.0506,3.0222,2.981,2.9571,2.9571,2.9195,2.8984,2.8984,2.8984,2.8984,2.8984,2.859,2.8187,2.7822,2.7361,2.6545,2.5362,2.5185,2.4491,2.3471,2.3078,2.2666,2.2245,2.1851,2.1696,2.1696,2.1696,2.1696,2.1651,2.132,2.0597,1.9768,0.0,0.0,0.0,0.0,0.0,0.5314,0.5646,0.5708,0.5777,0.6044,0.5969,0.586,0.5704,0.5691,0.5734,0.5893,0.6529,0.7327,0.8317,0.9248,1.0141,1.1138,1.1457,1.1616,1.1613,1.1745,1.1748,1.1606,1.1606,1.1606,1.1603,1.145,1.1238,1.0879,1.1084,1.0948,1.0596,1.0808,1.0884,1.0988,1.2119,1.245,1.2474,1.4435,1.4681,1.4245,1.5515,0.0,0.0,1.569,1.5967,1.6149,1.6951,1.7231,1.7295,1.7539,1.7895,1.8284,1.8538,1.9837,2.1679,2.3791,2.5441,2.7238,2.9813,3.0917,3.1728,3.2598,3.2793,3.2822,3.2832,3.3174,3.3603,3.4023,3.4805,3.4793,3.331,3.3102,3.2512,3.1009,3.0442,3.0048,2.9644,2.9984,3.0213,3.0204,2.981,2.9571,2.9571,2.9195,2.8984,2.8984,2.8984,2.8984,2.8984,2.859,2.8187,2.7822,2.7361,2.6545,2.5396,2.4597,2.395,2.3471,2.3078,2.2666,2.2245,2.1851,2.1696,2.1696,2.1696,2.1696,2.1696,2.1696,2.1633,2.1514,0.0,0.0,0.0,0.0,0.0,0.0,0.552,0.5709,0.5869,0.5953,0.5847,0.0,0.0,0.0,0.0,0.0,0.6369,0.7021,0.7854,0.9549,1.0978,1.1957,1.2296,1.2573,1.2864,1.1903,1.1413,1.1467,1.1365,1.1314,1.1314,1.1263,1.1047,1.0613,1.1107,1.0994,1.0473,1.1037,1.1182,1.1125,1.1173,1.2059,1.3332,1.3609,1.4109,1.474,0.0,0.0,0.0,1.4682,1.4979,1.528,1.5576,1.5781,1.5952,1.6244,1.6773,1.7337,1.7995,1.9796,2.1907,2.4012,2.5556,2.7362,3.0135,3.0759,3.1004,3.1766,3.1728,3.1435,3.1123,3.1435,3.1973,3.2695,3.3525,3.3824,3.3186,3.3121,3.2343,3.0263,3.0112,2.9828,2.8883,2.9397,2.9672,2.9415,2.9259,2.9177,2.9177,2.9048,2.8984,2.8984,2.8984,2.8856,2.859,2.8462,2.8049,2.7361,2.6426,2.5628,2.4959,2.4459,2.3785,2.3096,2.2968,2.2666,2.2245,2.1851,2.1696,2.1696,2.1696,2.1696,2.1696,2.1696,2.1513,2.1245,0.0,0.0,0.0,0.0,0.0,0.0,0.0,0.0,0.0,0.0,0.0,0.0,0.0,0.0,0.0,0.0,0.0,0.6711,0.7442,0.0,1.0521,1.1861,1.2103,1.239,1.2813,1.1788,1.1063,1.0829,1.0894,1.0951,1.1006,1.1114,1.1042,1.0681,1.103,1.1013,1.0678,1.0988,1.0985,1.0809,1.0358,1.0943,1.2116,1.2264,1.279,0.0,0.0,0.0,0.0,1.3902,1.4226,1.4627,1.4736,1.5075,1.5483,1.5944,1.6528,1.7215,1.8062,1.9632,2.1387,2.3204,2.4843,2.6696,2.9154,2.9855,3.0123,3.0791,3.0411,2.9873,2.957,2.9639,3.0117,3.1279,3.206,3.2646,3.2963,3.2889,3.2188,3.0634,3.039,3.0015,2.9113,2.9498,2.9571,2.9021,2.8984,2.8984,2.8984,2.8984,2.8984,2.8984,2.8984,2.8792,2.8397,2.8242,2.7691,2.6783,2.5865,2.5139,2.4587,2.4125,2.3574,2.2895,2.2748,2.2529,2.2245,2.1851,2.1696,2.1696,2.1696,2.1696,2.1696,2.1696,2.1475,2.1044,0.0,0.0,0.0,0.0,0.0,0.0,0.0,0.0,0.0,0.0,0.0,0.0,0.0,0.0,0.0,0.0,0.0,0.0,0.0,0.0,0.0,1.1004,1.1101,1.1292,1.1607,1.1314,1.0717,0.9822,1.0249,1.0527,1.067,1.0965,1.1101,1.1087,1.0962,1.0972,1.1125,1.0629,1.0365,1.0195,0.9754,0.9313,0.915,1.0587,0.0,0.0,0.0,0.0,1.3313,1.3411,1.374,1.4202,1.4476,1.5144,1.5939,1.6573,1.7201,1.7822,1.8724,1.9412,2.0218,2.1663,2.3434,2.5291,2.7004,2.8232,2.9104,2.9536,2.8843,2.8184,2.8135,2.7842,2.8154,2.9853,3.0576,3.1394,3.2782,3.2652,3.2304,3.2001,3.1258,3.0658,3.0303,3.0213,2.9874,2.9076,2.9012,2.9003,2.8984,2.8984,2.8984,2.8984,2.8984,2.8783,2.837,2.793,2.7169,2.6012,2.5607,2.4983,2.4156,2.3721,2.3251,2.2821,2.2446,2.2272,2.2217,2.1851,2.1696,2.1696,2.1696,2.1696,2.1696,2.1696,2.1475,2.1053,0.0,0.0,0.0,0.0,0.0,0.0,0.0,0.0,0.0,0.0,0.0,0.0,0.0,0.0,0.0,0.0,0.0,0.0,0.0,0.0,0.0,0.0,0.0,0.0,0.0,0.0,0.0,0.0,0.0,0.9958,0.99,1.0195,1.0273,1.0168,1.0246,1.0178,0.9998,0.9883,0.9747,0.9581,0.0,0.9466,1.0122,0.0,0.0,0.0,0.0,0.0,1.2307,1.3324,1.4293,1.5122,1.537,1.5788,1.6307,1.712,1.793,1.872,1.939,2.016,2.1045,2.2148,2.3247,2.4432,2.5878,2.6908,2.7484,2.74,2.6952,2.6468,2.6016,2.6338,2.7275,2.8965,3.043,3.1832,3.3225,3.3854,3.3736,3.2562,3.2525,3.2088,3.0789,3.0369,2.9984,2.9461,2.9424,2.9296,2.9003,2.8984,2.8984,2.8984,2.8984,2.8645,2.793,2.7233,2.6573,2.6012,2.5607,2.4785,2.3694,2.3544,2.295,2.2016,2.2199,2.2117,2.1833,2.1733,2.1696,2.1696,2.1696,2.1696,2.1696,2.1696,2.1475,2.1089,0.0,0.0,0.0,0.0,0.0,0.0,0.0,0.0,0.0,0.0,0.0,0.0,0.0,0.0,0.0,0.0,0.0,0.0,0.0,0.0,0.0,0.0,0.0,0.0,0.0,0.0,0.0,0.0,0.0,0.0,0.0,0.9486,0.9574,0.9439,0.9523,0.9469,0.9306,0.0,0.0,0.0,0.0,0.0,0.0,0.0,0.0,0.0,0.0,0.0,1.257,1.4166,1.5219,1.5872,1.6368,1.6702,1.7095,1.8196,1.8802,1.9287,2.0006,2.0635,2.1252,2.1818,2.2625,2.3456,2.4235,2.5026,2.5569,2.5389,2.5014,2.4612,2.4161,2.48,2.5878,2.7445,2.9193,3.1054,3.2971,3.3769,3.3962,3.3378,3.3209,3.259,3.1194,3.069,3.0213,2.9617,2.9415,2.9223,2.8993,2.8984,2.8984,2.8984,2.8984,2.859,2.7831,2.6857,2.6105,2.5745,2.535,2.4473,2.3242,2.3242,2.2675,2.1714,2.2108,2.2053,2.1705,2.1879,2.1851,2.1696,2.1696,2.1696,2.1696,2.1696,2.154,2.1339,0.0,0.0,0.0,0.0,0.0,0.0,0.0,0.0,0.0,0.0,0.6383,0.6212,0.0,0.0,0.0,0.0,0.0,0.0,0.0,0.0,0.0,0.0,0.0,0.0,0.0,0.0,0.0,0.0,0.0,0.0,0.0,0.0,0.0,0.0,0.0,0.0,0.0,0.0,0.0,0.0,0.0,0.0,0.0,0.0,0.0,0.0,0.0,0.0,0.0,1.5046,1.6032,1.666,1.7472,1.7847,1.8252,1.955,1.9787,1.9832,2.0636,2.0975,2.1149,2.1069,2.1768,2.2438,2.2425,2.3017,2.3595,2.342,2.3161,2.2881,2.2696,2.3409,2.4542,2.604,2.7766,2.9824,3.237,3.3043,3.3514,3.4013,3.3463,3.2662,3.1534,3.1073,3.0521,2.9757,2.9333,2.9103,2.8984,2.9035,2.9016,2.8911,2.8847,2.8462,2.7748,2.6591,2.5819,2.5414,2.4968,2.4143,2.2904,2.2762,2.2317,2.1714,2.1971,2.1962,2.1723,2.2117,2.2053,2.1696,2.1696,2.1642,2.1553,2.1642,2.1642,2.1508,0.0,0.0,0.0,0.0,0.0,0.0,0.0,0.0,0.0,0.0,0.7041,0.6436,0.0,0.0,0.0,0.0,0.0,0.0,0.0,0.0,0.0,0.0,0.0,0.0,0.0,0.0,0.0,0.0,0.0,0.0,0.0,0.0,0.0,0.0,0.0,0.0,0.0,0.0,0.0,0.0,0.0,0.0,0.0,0.0,0.0,0.0,0.0,0.0,0.0,0.0,1.5857,1.7939,1.8719,1.9539,2.0269,2.0726,2.0971,2.1194,2.1417,2.1501,2.1356,2.0875,2.1299,2.1713,2.1372,2.1786,2.2197,2.1937,2.196,2.2025,2.1992,2.3011,2.4584,2.6734,2.8111,2.9721,3.2063,3.2675,3.2865,3.2742,3.2867,3.261,3.175,3.1274,3.078,3.0051,2.9871,2.9518,2.9044,2.9272,2.9124,2.8507,2.8159,2.7756,2.7288,2.6453,2.5819,2.5414,2.4968,2.4143,2.2857,2.212,2.1742,2.167,2.1322,0.0,2.1723,2.2117,2.2053,2.1696,2.1696,2.1221,2.0628,2.141,2.1221,2.0529,0.0,0.0,0.0,0.0,0.0,0.0,0.0,0.716,0.761,0.8107,0.7924,0.7496,0.6883,0.6337,0.5972,0.0,0.0,0.0,0.0,0.0,0.0,0.0,0.0,0.0,0.0,0.0,1.2199,1.1181,0.0,0.9571,0.9021,0.8128,0.7648,0.7526,0.0,0.0,0.0,0.0,0.0,0.0,0.0,0.0,0.0,0.0,0.0,0.0,0.0,0.0,0.0,0.0,1.5211,1.7203,1.8774,1.9819,2.0557,2.0948,2.1177,2.1359,2.1534,2.1614,2.1547,2.1266,2.0883,2.0528,2.0012,2.028,2.0481,1.9965,2.0545,2.094,2.0297,2.1966,2.3685,2.4502,2.6413,2.8542,3.0878,3.1411,3.1902,3.2606,3.2602,3.2243,3.1451,3.1035,3.0558,3.0024,3.0094,2.9922,2.9272,2.9186,2.8821,2.8134,2.7673,2.7427,2.7178,2.6214,2.5607,2.5362,2.4799,2.3668,2.2167,2.1731,2.1418,2.1271,2.0995,2.1338,2.2016,2.1695,2.1352,2.0907,2.0402,1.994,1.9567,2.0031,1.9894,1.9521,0.0,0.0,0.0,0.0,0.0,0.0,0.7098,0.758,0.8039,0.8502,0.8696,0.8546,0.7918,0.6921,0.6263,0.0,0.0,0.0,0.0,0.0,0.0,0.0,0.0,0.0,0.0,0.0,0.0,1.2154,1.0945,0.0,0.0,0.0,0.0,0.0,0.7282,0.7255,0.7098,0.0,0.0,0.0,0.0,0.775,0.0,0.0,0.0,0.0,0.0,0.0,0.0,0.0,1.3962,1.5695,1.7717,1.9246,2.0394,2.0728,2.1049,2.1336,2.1574,2.1708,2.171,2.1648,2.0668,1.9638,1.9039,1.8937,1.8863,1.8334,1.9176,1.9792,1.9089,2.1018,2.2638,2.2474,2.4675,2.7178,2.9461,3.0083,3.0808,3.22,3.2156,3.1767,3.1136,3.0794,3.0391,3.0068,3.0274,3.0109,2.9486,2.906,2.8429,2.7711,2.7334,2.7132,2.705,2.5931,2.5424,2.5414,2.4597,2.3269,2.1595,2.1278,2.104,2.0831,2.0645,2.1058,2.1825,2.1177,2.0516,1.9886,1.9109,1.865,1.8519,1.8703,1.865,1.8473,0.0,0.0,0.0,0.0,0.0,0.0,0.7299,0.7858,0.8489,0.9225,0.8997,0.879,0.8874,0.7886,0.6955,0.0,0.0,0.0,0.0,0.0,0.0,0.0,0.0,0.0,0.0,0.0,0.0,1.3709,1.1583,0.0,0.0,0.0,0.0,0.0,0.0,0.7109,0.7105,0.7288,0.0,0.0,0.0,0.0,0.0,0.0,0.0,0.0,0.0,0.8523,0.9202,1.0203,1.1905,1.3863,1.5024,1.7793,2.0541,2.006,2.0862,2.1857,2.1681,2.1937,2.2211,2.1748,2.0668,1.9638,1.9039,1.8086,1.7462,1.7944,1.8282,1.8753,1.9643,2.0643,2.1811,2.3056,2.4516,2.6179,2.8041,2.909,2.9925,3.0566,3.0839,3.0996,3.0957,3.085,3.0742,3.0392,3.0382,3.0092,2.9354,2.9017,2.8299,2.7307,2.7196,2.7004,2.6646,2.5793,2.5424,2.5414,2.4597,2.3354,2.1827,2.0662,2.0365,2.0666,1.987,1.9914,0.0,2.0787,2.0146,1.8926,1.8834,1.8241,1.7552,1.8473,1.8241,1.7419,0.0,0.0,0.0,0.0,0.0,0.0,0.7424,0.7862,0.8431,0.9273,0.935,0.9185,0.9039,0.8527,0.7833,0.6962,0.0,0.0,0.0,0.0,0.0,0.0,0.0,0.0,0.0,0.0,1.4016,1.4372,1.2774,0.0,0.0,0.0,0.0,0.0,0.0,0.8166,0.8087,0.7615,0.0,0.0,0.0,0.0,0.0,0.0,0.0,0.0,0.0,0.0,0.8398,0.9216,1.0708,1.2347,1.331,1.5548,1.802,1.8968,2.0187,2.1209,2.1269,2.1844,2.2278,2.1762,2.0541,1.9314,1.8357,1.7457,1.6921,1.7185,1.7706,1.8282,1.8829,1.9888,2.0657,2.0616,2.2086,2.3738,2.5208,2.634,2.7693,2.9325,2.9875,3.0303,3.084,3.0889,3.083,3.0704,3.0441,2.9872,2.8984,2.8795,2.8145,2.6903,2.682,2.6747,2.6591,2.5775,2.5424,2.5414,2.4597,2.3076,2.0999,2.0457,2.02,2.0069,1.8923,1.9288,0.0,1.9275,1.8411,1.7831,1.7225,1.6763,1.644,1.685,1.6756,1.6393,0.0,0.0,0.0,0.0,0.0,0.6888,0.7448,0.7862,0.8381,0.915,0.9422,0.9444,0.9162,0.8926,0.8549,0.7833,0.7465,0.0,0.0,0.0,0.0,0.0,0.0,0.0,0.0,0.0,1.4674,1.4956,1.3811,1.3169,0.0,0.0,1.0758,1.0564,0.0,0.0,0.0,0.0,0.0,0.0,0.0,0.0,0.0,0.0,0.0,0.0,0.0,0.0,0.0,0.0,0.0,1.1255,1.2286,0.0,0.0,1.7589,1.9098,2.0241,2.0621,2.1363,2.1917,2.148,2.0254,1.8898,1.7615,1.6801,1.6334,1.6338,1.7025,1.7755,1.8126,1.9163,1.9817,1.9349,2.0654,2.2258,2.3801,2.4983,2.646,2.8506,2.8896,2.946,3.04,3.0732,3.0889,3.0889,3.0586,2.9928,2.887,2.8841,2.8069,2.6489,2.6408,2.6344,2.6233,2.5546,2.5197,2.5188,2.4542,2.293,2.0562,2.0458,2.0014,1.9269,1.823,1.8561,0.0,1.7976,1.7138,1.677,1.6062,1.5784,1.5784,1.5784,1.5784,1.5784,0.0,0.0,0.0,0.0,0.0,0.6851,0.7351,0.7931,0.8431,0.8828,0.9201,0.9384,0.9381,0.9117,0.8881,0.8875,0.799,0.0,0.0,0.0,0.0,0.0,0.0,0.0,0.0,0.0,1.521,1.549,1.4486,1.384,1.3483,1.1964,1.1268,1.1239,0.0,0.0,0.0,0.0,0.0,0.0,0.0,0.0,0.0,0.0,0.0,0.0,0.0,0.0,0.0,0.0,0.0,0.0,0.0,1.3239,1.4494,0.0,1.7555,1.9072,1.9653,2.0454,2.1049,2.0762,1.98,1.8537,1.7054,1.6032,1.5409,1.5423,1.6124,1.6984,1.7836,1.8631,1.9401,2.0343,2.1113,2.2386,2.4675,2.5788,2.6865,2.8144,2.7939,2.8237,2.9518,3.0371,3.0889,3.0889,3.0889,3.0392,2.917,2.9076,2.8159,2.6058,2.6021,2.5828,2.5442,2.4986,2.4785,2.4785,2.4404,2.302,2.0869,2.0562,1.9625,1.822,1.7906,1.7633,0.0,1.7333,1.6716,1.5825,1.5784,1.5784,1.5784,1.5784,1.5784,1.5784,0.0,0.0,0.0,0.0,0.0,0.0,0.716,0.7465,0.7903,0.8408,0.8564,0.8832,0.9238,0.896,0.8712,0.8647,0.8133,0.0,0.0,0.0,0.0,0.0,0.0,0.0,0.0,1.5497,1.6035,1.6323,1.6019,1.5731,1.5474,1.4378,1.3705,1.3307,1.1958,1.0946,0.0,0.0,0.0,0.0,0.0,0.0,0.8084,0.0,0.0,0.0,0.0,0.0,0.0,0.0,0.0,0.0,0.0,0.0,0.0,1.484,1.6326,1.7796,1.8176,1.8938,1.9446,1.8738,1.7983,1.7181,1.6306,1.5424,1.5088,1.6073,1.6049,1.6453,1.8527,1.8609,1.8661,1.9611,2.0923,2.1935,2.2419,2.4469,2.6309,2.7295,2.8867,3.0029,3.043,3.0723,3.0889,3.0889,3.0332,2.975,2.9141,2.8574,2.7669,2.6305,2.6277,2.5986,2.5433,2.4977,2.4785,2.4776,2.3583,2.2266,2.0869,1.9813,1.8885,1.8171,1.7176,1.6964,1.7232,1.6581,1.6109,1.5784,1.5784,1.5784,1.5784,1.5784,1.5784,1.5832,0.0,0.0,0.0,0.0,0.0,0.0,0.7051,0.7322,0.7611,0.8041,0.8197,0.8507,0.8933,0.8821,0.8737,0.8772,0.8464,0.0,0.0,0.0,0.0,0.0,0.0,0.0,1.4997,1.595,1.6629,1.7016,1.7025,1.6956,1.6831,1.5968,1.5275,1.4677,1.3295,1.204,0.0,0.0,0.0,0.0,0.0,0.0,0.8619,0.0,0.0,0.0,0.0,0.0,0.0,0.0,0.0,0.0,0.0,0.0,0.0,0.0,1.5297,1.6342,1.6921,1.7575,1.7956,1.7395,1.6807,1.6219,1.5638,1.5208,1.5155,1.5627,1.5801,1.6288,1.7594,1.7743,1.8078,1.9288,2.0533,2.1565,2.2242,2.4173,2.5869,2.6894,2.9014,3.0322,3.0156,3.0596,3.082,3.0644,3.0117,2.9544,2.8836,2.8313,2.7516,2.6319,2.619,2.5838,2.5066,2.4716,2.4546,2.4546,2.3151,2.1887,2.0678,1.9398,1.8318,1.7464,1.664,1.6484,0.0,1.6062,1.5784,1.5784,1.5784,1.5784,1.5784,1.5784,1.5879,1.5981,0.0,0.0,0.0,0.0,0.0,0.0,0.0,0.7377,0.7617,0.7763,0.8038,0.834,0.8645,0.8686,0.8808,0.9096,0.8879,0.0,0.0,0.0,0.0,0.0,0.0,0.0,1.5484,1.6311,1.6987,1.7657,1.7642,1.7665,1.7665,1.6837,1.6156,1.5523,1.3817,1.2381,1.1086,0.9194,0.887,0.962,0.9778,0.9735,0.0,0.0,0.0,0.0,0.0,0.0,0.0,0.0,0.0,0.0,0.0,0.0,0.0,0.0,0.0,0.0,0.0,1.6326,1.6547,1.6526,1.6106,1.5558,1.4997,1.5299,0.0,1.4355,1.544,1.6388,1.5748,1.6499,1.78,1.9443,2.0242,2.1433,2.375,2.4742,2.5713,2.6963,2.8584,2.9434,2.8965,3.0059,3.0625,3.0185,3.0127,2.957,2.8359,2.8262,2.7571,2.6066,2.5903,2.5409,2.4489,2.4291,2.4202,2.4202,2.2987,2.167,2.0353,1.9177,1.7789,0.0,1.6301,1.6134,1.5832,1.5832,1.5832,1.5784,1.5784,1.5784,1.5784,1.5784,1.5981,1.6224,0.0,0.0,0.0,0.0,0.0,0.0,0.0,0.0,0.0,0.0,0.7638,0.7916,0.833,0.8472,0.8558,0.0,0.0,0.0,0.0,0.0,0.0,0.0,0.0,0.0,1.5484,1.6311,1.709,1.7935,1.8095,1.8317,1.8597,1.773,1.6999,1.6456,1.5167,1.3331,1.1126,0.985,0.9401,0.9649,1.0281,1.0521,0.0,0.0,0.0,0.0,1.0109,1.0825,0.0,0.0,0.0,0.0,0.0,0.0,0.0,0.0,1.4188,1.4249,1.4522,0.0,1.4977,1.4756,1.4596,1.4402,0.0,1.4019,0.0,0.0,0.0,1.5861,1.7548,1.8221,1.9078,2.0756,2.2017,2.2957,2.3479,2.5586,2.7285,2.792,2.9209,2.9746,2.8994,2.9502,2.9834,2.9726,2.9414,2.8945,2.833,2.7988,2.7373,2.6316,2.6073,2.5462,2.4489,2.443,2.4341,2.4202,2.2215,2.0956,2.0345,1.8146,1.6961,1.6614,1.6334,1.6191,1.6123,1.6123,1.5981,1.5784,1.5784,1.5784,1.5784,1.5784,1.5981,1.6224,0.0,0.0,0.0,0.0,0.0,0.0,0.0,0.0,0.0,0.0,0.7506,0.7743,0.8123,0.8353,0.849,0.0,0.0,0.0,0.0,0.0,0.0,0.0,0.0,1.5418,1.573,1.6509,1.7415,1.8395,1.8456,1.8656,1.9057,1.8059,1.7241,1.6564,1.4781,1.2974,1.1126,1.014,0.9929,1.0382,1.0718,0.0,0.0,0.0,0.0,0.0,1.1203,1.1932,0.0,1.2918,1.359,1.433,0.0,0.0,0.0,0.0,1.3881,1.3854,1.3831,1.4273,1.4689,1.4529,1.4489,1.4409,1.4073,0.0,0.0,0.0,0.0,1.6246,1.7504,1.8488,1.9615,2.1004,2.2303,2.3464,2.4328,2.5791,2.7158,2.8174,2.8906,2.9297,2.9228,2.9434,2.9482,2.9287,2.9053,2.8564,2.7754,2.749,2.6973,2.6113,2.5936,2.5524,2.4883,2.4115,2.3768,2.3746,2.1285,1.9948,1.9613,1.7718,1.6726,1.6457,1.6428,1.6359,1.6359,1.6265,1.617,1.6157,1.592,1.5879,1.5981,1.5832,1.6069,1.6407,0.0,0.0,0.0,0.0,0.0,0.0,0.0,0.0,0.0,0.0,0.0,0.0,0.0,0.0,0.0,0.0,0.0,0.0,0.0,0.0,0.0,0.0,1.4261,1.5884,1.6081,1.6777,1.7669,1.8858,1.8698,1.8904,1.9351,1.8384,1.7406,1.6293,1.4087,1.2487,1.138,1.0567,1.069,1.1409,1.1206,0.0,0.0,0.0,0.0,0.0,0.0,0.0,0.0,1.4021,1.4353,1.4609,1.4799,0.0,0.0,0.0,0.0,0.0,1.3647,1.4367,1.5087,1.499,1.503,1.5003,1.4573,0.0,0.0,0.0,0.0,1.6861,1.7122,1.8431,1.9847,2.1074,2.2397,2.3902,2.5742,2.6035,2.6641,2.8037,2.831,2.8623,2.9219,2.9391,2.9219,2.8848,2.876,2.8223,2.708,2.6953,2.6562,2.5713,2.5693,2.5586,2.5333,2.3809,2.3111,2.3279,2.0613,1.9146,1.8811,1.7704,1.6841,1.6319,0.0,0.0,1.6636,1.6407,1.6407,1.6494,1.6021,1.5981,1.6177,1.5927,1.6211,1.6683,0.0,0.0,0.0,0.0,0.0,0.0,0.0,0.0,0.0,0.0,0.0,0.0,0.0,0.0,0.0,0.0,0.0,0.0,0.0,0.0,0.0,1.1602,1.4136,1.5832,1.6311,1.6627,1.7355,1.8557,1.9011,1.9426,1.974,1.9561,1.8384,1.6371,1.5487,1.4116,1.2441,1.2332,1.2322,1.2453,1.1973,0.0,0.0,0.0,0.0,0.0,0.0,0.0,0.0,1.3506,1.3987,1.4499,1.4302,0.0,0.0,0.0,0.0,0.0,1.4145,1.5003,1.5545,1.4905,1.5193,1.5385,1.4689,1.449,0.0,0.0,0.0,1.654,1.8962,1.9813,2.0796,2.2704,2.4282,2.5771,2.7178,2.7676,2.7861,2.7826,2.8389,2.8594,2.8018,2.8281,2.8457,2.8398,2.8057,2.7617,2.7041,2.668,2.626,2.5703,2.5693,2.5684,2.5635,2.4282,2.3479,2.3279,2.1038,1.9677,1.9079,1.7945,1.7225,1.6885,0.0,1.6932,1.6932,1.6885,1.6643,1.6265,1.617,1.6177,1.6224,1.617,1.6461,1.6972,0.0,0.0,0.0,0.0,0.0,0.0,0.0,0.0,0.0,0.0,0.0,0.0,0.0,0.0,0.0,0.0,0.0,0.0,0.0,0.0,1.1576,1.1816,1.3889,1.5371,1.6158,1.7154,1.8016,1.8724,1.9472,1.982,1.9786,1.9003,1.7841,1.6292,1.561,1.4421,1.2926,1.2775,1.2678,1.2641,0.0,0.0,0.0,0.0,0.0,0.0,0.0,0.0,0.0,0.0,1.3613,1.4134,1.4086,0.0,0.0,0.0,0.0,0.0,1.3524,1.4421,1.5271,1.5319,1.5892,1.6253,1.5541,1.5201,1.5099,0.0,1.6121,1.7507,1.9236,2.0634,2.2178,2.4318,2.5246,2.6054,2.7168,2.708,2.71,2.766,2.7803,2.7832,2.7738,2.7894,2.7851,2.7617,2.7422,2.7129,2.6699,2.6494,2.6182,2.5703,2.5693,2.5693,2.5693,2.3967,2.3003,2.2852,2.0237,1.8803,1.8447,1.778,1.7264,1.7026,0.0,1.7153,1.7153,1.7019,1.6925,1.6777,1.6494,1.6501,1.665,1.665,1.6791,1.7026,0.0,0.0,0.0,0.0,0.0,0.0,0.0,0.0,0.0,0.0,0.0,0.0,0.0,0.0,0.0,0.0,0.0,0.0,0.0,0.9968,1.1037,1.1961,1.3741,1.5192,1.626,1.7581,1.849,1.8925,1.9666,1.9953,1.978,1.8579,1.7471,1.6503,1.5702,1.466,1.3463,1.327,1.3119,1.3032,0.0,0.0,0.0,0.0,0.0,0.0,0.0,0.0,0.0,0.0,0.0,0.0,0.0,0.0,0.0,1.3467,1.3046,1.284,1.313,1.401,1.4993,1.5705,1.6433,1.6848,1.6532,1.6123,1.5883,1.5842,1.7141,1.8641,1.9626,2.1537,2.3535,2.5293,2.5791,2.6299,2.706,2.6689,2.6699,2.7695,2.7432,2.7305,2.7689,2.762,2.7373,2.7041,2.6924,2.6728,2.6406,2.6299,2.6035,2.5596,2.5586,2.5382,2.5083,2.3175,2.227,2.2355,1.953,1.8074,1.7845,1.7601,1.7313,1.7066,1.7239,1.7279,1.7286,1.7106,1.7106,1.7192,1.6824,1.6831,1.7026,1.7066,1.7066,1.7113,0.0,0.0,0.0,0.0,0.0,0.0,0.0,0.0,0.0,0.0,0.0,0.0,0.0,0.0,0.0,0.0,0.0,0.0,0.0,0.985,1.0963,1.1951,1.3901,1.5624,1.7054,1.7476,1.807,1.8925,1.9265,1.9559,1.9793,1.9128,1.8196,1.7134,1.6503,1.5614,1.4592,1.4544,1.4394,1.4172,1.3849,0.0,0.0,0.0,0.0,0.0,0.0,0.0,0.0,0.0,0.0,0.0,0.0,0.0,1.4021,1.3666,1.32,1.3013,1.3954,1.4502,1.4993,1.5705,1.6199,1.6606,1.726,1.6842,1.6699,1.7835,1.8515,1.9451,2.106,2.2936,2.4463,2.5077,2.6133,2.709,2.7559,2.79,2.8144,2.8232,2.7881,2.7679,2.7718,2.7305,2.7051,2.7012,2.665,2.6426,2.6387,2.6006,2.5576,2.5174,2.5117,2.4535,2.3223,2.2069,2.1667,2.201,1.9783,1.841,1.7804,1.7775,1.7592,1.7279,1.7279,1.7279,1.7279,1.7279,1.72,1.7026,1.6979,1.6979,1.7026,1.7192,1.7279,1.7279,0.0,0.0,0.0,0.0,0.0,0.0,0.0,0.0,0.0,0.0,0.0,0.852,0.8615,0.0,0.0,0.0,0.0,0.0,0.0,0.8991,1.0035,1.1808,1.2898,1.4495,1.6575,1.7996,1.8858,1.9199,1.9492,1.9693,1.9786,1.901,1.8112,1.7152,1.6554,1.5995,1.5409,1.4906,1.4739,1.4753,1.4128,1.3749,0.0,0.0,0.0,0.0,0.0,0.0,0.0,0.0,1.258,1.3061,1.3234,1.3507,1.3714,1.3227,1.2965,1.2867,1.3175,1.3989,1.4902,1.5282,1.5908,1.6572,1.7239,1.7184,1.7079,1.7593,1.8411,1.9627,2.1571,2.3529,2.4971,2.541,2.6348,2.707,2.7236,2.7402,2.75,2.75,2.7363,2.7158,2.6904,2.6475,2.6103,2.582,2.54,2.5283,2.5605,2.5156,2.4961,2.5116,2.4805,2.4151,2.299,2.1942,2.108,2.0358,1.8893,1.8057,1.7808,1.7604,1.7395,1.7279,1.7279,1.7279,1.7279,1.7279,1.7239,1.72,1.72,1.72,1.72,1.7286,1.7279,1.7279,0.0,0.0,0.0,0.0,0.0,0.0,0.0,0.0,0.8676,0.0,0.0,0.0,0.0,0.8598,0.0,0.0,0.0,0.0,0.8343,0.8387,0.9469,1.1686,1.2239,1.366,1.6265,1.8,1.8888,1.8951,1.9245,1.9386,1.9372,1.8677,1.8016,1.7408,1.6823,1.6439,1.6123,1.5405,1.5069,1.5053,1.4398,1.3874,0.0,0.0,0.0,0.0,0.0,0.0,0.0,0.0,1.2075,1.2537,1.2777,1.3134,1.3387,1.3013,1.2864,1.2782,1.2723,1.3616,1.4564,1.4869,1.5697,1.6609,1.7311,1.7399,1.7395,1.786,1.8904,2.0192,2.1695,2.3457,2.4662,2.4622,2.5751,2.6611,2.6611,2.6846,2.6963,2.6836,2.6816,2.6592,2.6025,2.5703,2.5342,2.4893,2.459,2.4551,2.4844,2.458,2.4492,2.4658,2.4088,2.3204,2.2131,2.1105,1.9944,1.8722,1.7988,1.7662,1.7655,1.7381,1.7279,1.7279,1.7279,1.7279,1.7279,1.7279,1.7279,1.7279,1.7279,1.7279,1.7279,1.7279,1.7279,1.7279,0.0,0.0,0.0,0.0,0.0,0.0,0.0,0.0,1.0311,0.8312,0.9071,0.0,0.0,0.0,0.0,0.0,0.0,0.0,0.7988,0.818,0.9343,1.1672,1.2047,1.3488,1.6246,1.719,1.7766,1.8002,1.8343,1.849,1.8477,1.8129,1.7975,1.7983,1.746,1.7052,1.6768,1.6173,1.5575,1.5066,1.4799,1.4225,1.3459,0.0,0.0,0.0,0.0,0.0,0.0,0.0,1.2042,1.2286,1.2759,1.3048,1.3213,1.32,1.3025,1.2822,1.2968,1.3431,1.4026,1.4498,1.5495,1.6668,1.7596,1.7567,1.7699,1.9001,2.0279,2.1227,2.1371,2.2714,2.3464,2.2473,2.4241,2.5674,2.5674,2.6455,2.6836,2.6416,2.6367,2.6025,2.5194,2.5106,2.4873,2.4443,2.4404,2.4404,2.4414,2.4404,2.4219,2.3799,2.2801,2.1626,2.0195,1.9239,1.8288,1.7279,1.7279,1.7279,1.7279,1.7279,1.7279,1.7279,1.7279,1.7279,1.7279,1.7279,1.7279,1.7279,1.7279,1.7279,1.7279,1.7279,1.7279,1.7279,0.0,0.0,0.0,0.0,0.0,0.0,0.0,0.0,1.0953,1.0333,1.0662,0.0,0.0,0.0,0.0,0.0,0.0,0.0,0.7879,0.7828,0.8821,1.1127,1.1427,1.2782,1.5396,1.6301,1.7356,1.8608,1.8337,1.8129,1.8115,1.7862,1.7609,1.7454,1.728,1.7034,1.6662,1.6131,1.582,1.5605,1.5191,1.4512,1.3779,0.0,0.0,0.0,0.0,0.0,0.0,0.0,0.0,0.0,1.2233,1.285,1.3347,1.2759,1.2806,1.3018,1.262,1.3347,1.4263,1.4662,1.5734,1.7013,1.7933,1.7904,1.7911,1.876,1.9625,2.054,2.1576,2.2657,2.352,2.399,2.4736,2.5282,2.5282,2.5501,2.562,2.5491,2.534,2.5194,2.4927,2.4484,2.4111,2.3984,2.3647,2.3608,2.3965,2.3682,2.3271,2.2747,2.2196,2.1041,1.9247,1.8926,1.8288,1.7279,1.7279,1.7279,1.7279,1.7279,1.7279,1.7279,1.7279,1.7279,1.7279,1.7279,1.7279,1.7279,1.7279,1.7279,1.7279,1.7279,1.7279,1.7279,0.0,0.0,0.0,0.0,0.0,0.0,1.2158,1.2205,1.1968,1.1149,1.1453,1.1368,0.0,0.0,0.0,0.0,0.0,0.0,0.7729,0.7699,0.8665,1.0896,1.1158,1.2537,1.5194,1.6055,1.6967,1.8043,1.7636,1.7463,1.7463,1.7442,1.7434,1.7373,1.7373,1.7273,1.7027,1.6464,1.6072,1.5843,1.5425,1.474,1.3986,0.0,0.0,0.0,0.0,0.0,0.0,0.0,0.0,0.0,1.1875,1.2368,1.2863,1.2281,1.2392,1.2625,1.2371,1.3135,1.4177,1.4986,1.617,1.7334,1.8138,1.835,1.8553,1.9052,1.9889,2.0718,2.1475,2.2614,2.3582,2.404,2.4534,2.4852,2.4852,2.5002,2.5042,2.4872,2.4921,2.48,2.4451,2.4108,2.3855,2.3688,2.3335,2.3208,2.3516,2.3237,2.2802,2.2088,2.1446,2.0376,1.8834,1.8427,1.7924,1.7279,1.7279,1.7279,1.7279,1.7279,1.7279,1.7279,1.7279,1.7279,1.7279,1.7279,1.7279,1.7279,1.7279,1.7279,1.7279,1.7279,1.7279,1.7279,0.0,0.0,1.3187,1.3486,0.0,0.0,1.2137,1.3078,1.3239,1.1342,1.1858,1.2131,0.0,0.0,0.0,0.9176,0.0,0.0,0.0,0.7685,0.8663,1.073,1.1211,1.2725,1.5479,1.6298,1.6667,1.6667,1.664,1.6653,1.6707,1.7005,1.7293,1.7542,1.7542,1.7515,1.7428,1.686,1.6292,1.578,1.5566,1.4942,1.4123,1.3638,0.0,0.0,0.0,0.0,0.0,0.0,0.0,0.0,1.1632,1.1837,1.2027,1.1955,1.1904,1.2007,1.2265,1.2885,1.3842,1.5392,1.6668,1.7644,1.8191,1.876,1.928,1.9597,2.0654,2.1473,2.1416,2.2686,2.3628,2.3332,2.3964,2.4499,2.4499,2.4786,2.4887,2.4539,2.4796,2.4726,2.3921,2.3983,2.3875,2.3533,2.3232,2.3091,2.3091,2.3062,2.2604,2.1606,2.0657,1.9662,1.865,1.7708,1.7235,1.7235,1.7206,1.7238,1.7198,1.725,1.7279,1.7279,1.722,1.726,1.7235,1.7235,1.7235,1.7289,1.7271,1.7279,1.7279,1.7279,1.7279,1.7279,0.0,0.0,1.3256,1.3753,0.0,0.0,1.3148,1.3598,1.376,1.3286,1.3426,1.3162,1.212,1.098,0.0,0.9133,0.8088,0.0,0.0,0.7336,0.7935,0.9495,1.2002,1.412,1.5764,1.6206,1.6366,1.6366,1.6132,1.6253,1.67,1.654,1.679,1.7293,1.7293,1.7038,1.6533,1.6172,1.5671,1.5192,1.5132,1.4751,1.4176,1.3782,1.3178,0.0,0.0,0.0,0.0,0.0,0.0,0.0,1.1446,1.1872,1.2347,1.2077,1.2095,1.2271,1.261,1.2891,1.3543,1.5366,1.7007,1.8189,1.83,1.8408,1.8728,1.946,2.0031,2.0948,2.2704,2.3183,2.3543,2.4296,2.4476,2.4512,2.4512,2.4551,2.4625,2.4522,2.4431,2.4323,2.413,2.3801,2.3602,2.3513,2.3232,2.3091,2.3091,2.2779,2.1995,2.0584,2.0002,1.9052,1.7645,1.7215,1.7005,1.6998,1.6696,1.6572,1.6594,1.7099,1.7279,1.725,1.6791,1.6718,1.7005,1.7005,1.7005,1.7027,1.723,1.7279,1.7279,1.7279,1.7279,1.7279,0.0,0.0,0.0,0.0,0.0,0.0,0.0,0.0,1.4055,1.3939,1.3771,1.3482,1.2922,1.1771,0.0,0.0,0.9042,0.0,0.0,0.0,0.856,0.9981,1.2459,1.4248,1.5263,1.5783,1.5925,1.5692,1.5351,1.5645,1.65,1.6486,1.672,1.7192,1.7052,1.6693,1.6295,1.5805,1.5364,1.5008,1.5008,1.4739,1.4295,1.3824,1.3267,1.2679,1.2088,0.0,0.0,0.0,0.0,0.0,0.0,0.0,1.2073,1.1855,1.1946,1.2158,1.2489,1.2822,1.3581,1.5705,1.7331,1.8361,1.8138,1.8083,1.8308,1.9168,1.9745,2.0665,2.2644,2.3078,2.355,2.4785,2.471,2.4497,2.4497,2.4497,2.4497,2.4497,2.4411,2.4325,2.4325,2.4024,2.3674,2.3378,2.3341,2.3055,2.2559,2.2116,2.1185,1.9701,1.9075,1.8149,1.6865,1.6749,1.6668,1.6668,1.6492,1.6411,1.6426,1.6718,1.6952,1.7077,1.6624,1.6507,1.6668,1.6668,1.6756,1.6917,1.7033,1.7194,1.7279,1.7279,1.7279,1.7279,0.0,0.0,0.0,0.0,0.0,0.0,0.0,0.0,0.0,1.3944,1.3656,1.3519,1.3559,1.2333,1.1159,0.0,0.0,0.0,0.0,0.0,0.0,1.1117,1.2681,1.3874,1.457,1.5303,1.5445,1.5008,1.4716,1.517,1.6279,1.6466,1.6767,1.7186,1.6787,1.6473,1.6152,1.5518,1.5077,1.4861,1.4861,1.4669,1.4389,1.3806,1.3372,1.2923,1.2296,1.1864,1.159,1.1465,0.0,0.0,0.0,0.0,1.1736,1.1686,1.1761,1.198,1.2285,1.2933,1.4005,1.5959,1.7281,1.8053,1.7782,1.769,1.7885,1.8651,1.9513,2.0594,2.2222,2.2938,2.367,2.4872,2.4745,2.4476,2.4394,2.4383,2.4352,2.428,2.427,2.4301,2.4373,2.4141,2.3764,2.3259,2.3245,2.2883,2.1965,2.1311,2.0409,1.9127,1.8194,1.7293,1.6411,1.636,1.6287,1.6287,1.6279,1.6279,1.6287,1.6235,1.6455,1.6793,1.6419,1.6279,1.6338,1.6389,1.6573,1.6829,1.6939,1.7099,1.7279,1.7279,1.7279,1.7279,0.0,0.0,0.0,0.0,0.0,0.0,0.0,0.0,0.0,0.0,1.3656,1.361,1.3837,1.2352,1.1203,1.0831,1.0297,0.9803,0.9412,0.0,0.0,1.1916,1.2582,1.3461,1.457,1.4974,1.5107,1.5008,1.4968,1.5417,1.6266,1.6052,1.6373,1.7179,1.6623,1.6166,1.5832,1.4945,1.4469,1.4202,1.4202,1.4182,1.4108,1.3733,1.358,1.3426,1.2693,1.2407,1.2292,1.1833,1.1632,0.0,0.0,0.0,1.1959,1.1957,1.1919,1.2027,1.2576,1.3728,1.4878,1.5365,1.6189,1.6961,1.7085,1.712,1.7211,1.7473,1.9134,2.0951,2.2403,2.3412,2.4173,2.4537,2.4538,2.4363,2.4022,2.3971,2.3815,2.3412,2.337,2.3525,2.3929,2.3392,2.3042,2.3167,2.2687,2.2251,2.1936,2.0724,1.9758,1.911,1.7914,1.7017,1.6411,1.6111,1.5979,1.5972,1.5687,1.5701,1.5965,1.5687,1.5877,1.6448,1.5811,1.5716,1.6001,1.6265,1.6441,1.6536,1.7047,1.7296,1.7279,1.7279,1.7279,1.7279,0.0,0.0,0.0,0.0,0.0,0.0,0.0,0.0,0.0,0.0,0.0,1.3685,1.3691,1.2847,1.1969,1.1182,1.1181,1.0931,1.0115,1.0525,1.1082,1.1623,1.2093,1.2874,1.3907,1.4311,1.4429,1.4222,1.4389,1.5003,1.6019,1.5892,1.6386,1.7414,1.6656,1.6106,1.5724,1.489,1.4355,1.4088,1.4088,1.3988,1.378,1.3653,1.35,1.3327,1.2995,1.2712,1.2471,1.2233,1.1959,1.1706,1.1706,0.0,0.0,0.0,1.2065,1.2204,1.267,1.3507,1.4342,1.4963,1.5654,1.6278,1.6501,1.669,1.6725,1.6598,1.7908,1.9617,2.139,2.2199,2.3018,2.4272,2.4333,2.4105,2.3908,2.365,2.3412,2.3215,2.3184,2.3267,2.3474,2.3216,2.292,2.2656,2.2462,2.2078,2.1391,1.9942,1.895,1.8494,1.6974,1.5985,1.557,1.5396,1.533,1.533,1.5367,1.5462,1.56,1.5455,1.5679,1.6089,1.5628,1.5469,1.5608,1.5789,1.6052,1.6441,1.6682,1.7011,1.7279,1.7279,1.7279,1.7279,0.0,0.0,0.0,0.0,0.0,0.0,0.0,0.0,0.0,0.0,0.0,1.3685,1.3667,0.0,0.0,0.0,1.2188,1.2076,1.1128,1.1508,1.1714,1.1671,1.2057,1.2553,1.314,1.3642,1.3786,1.3493,1.3828,1.4609,1.5784,1.5784,1.646,1.7549,1.674,1.6219,1.5885,1.5003,1.4509,1.4289,1.4062,1.38,1.3593,1.352,1.336,1.3213,1.3213,1.2981,1.266,1.26,1.2309,1.1951,1.1874,1.1966,0.0,0.0,0.0,1.2351,1.261,1.3126,1.374,1.4369,1.5089,1.5659,1.5841,1.6063,1.6218,1.5986,1.6736,1.8029,2.005,2.0988,2.2083,2.3927,2.4053,2.3836,2.3598,2.3225,2.2967,2.2853,2.2832,2.2884,2.2998,2.2904,2.267,2.2246,2.219,2.179,2.0946,1.9267,1.8175,1.786,1.6102,1.5065,1.4783,1.4783,1.482,1.4907,1.5148,1.5309,1.5389,1.5389,1.552,1.5782,1.5491,1.5389,1.5396,1.5476,1.5877,1.6419,1.6507,1.6835,1.7279,1.7279,1.7279,1.7279,0.0,0.0,0.0,0.0,0.0,0.0,0.0,0.0,0.0,0.0,0.0,0.0,1.4091,1.3692,1.3248,1.2946,1.3023,1.2942,1.262,1.2863,1.2875,1.2619,1.2875,0.0,1.2536,1.3074,1.3318,1.3233,1.3487,1.4366,1.5784,1.5784,1.646,1.7555,1.6947,1.652,1.6241,1.5357,1.4975,1.4894,1.3959,1.362,1.3573,1.334,1.3227,1.3213,1.3213,1.32,1.31,1.2884,1.2777,1.2672,1.2354,1.2268,1.2268,0.0,0.0,0.0,1.2318,1.2966,1.3547,1.336,1.4148,1.5051,1.4986,1.5188,1.5425,1.5672,1.5901,1.6735,1.8793,2.0653,2.2235,2.3385,2.3762,2.3567,2.2687,2.2542,2.2366,2.1932,2.188,2.2056,2.249,2.2128,2.1968,2.2195,2.1614,2.1139,2.0906,1.8779,1.7553,1.7536,1.5599,1.4548,1.4533,1.4533,1.4648,1.49,1.4922,1.509,1.5389,1.5389,1.5396,1.5411,1.5396,1.5389,1.5411,1.5717,1.6082,1.6448,1.6756,1.7033,1.7279,1.7279,1.7279,1.7138,0.0,0.0,0.0,0.0,0.0,0.0,0.0,0.0,0.0,0.0,0.0,0.0,0.0,1.3711,1.348,1.33,1.3298,1.3119,1.2638,1.295,1.2977,1.272,1.2923,1.2871,1.2525,1.2987,1.3234,1.3213,1.346,1.4159,1.5277,1.5464,1.5879,1.646,1.644,1.6266,1.5932,1.505,1.4569,1.4355,1.3806,1.3493,1.3313,1.3253,1.3086,1.2978,1.314,1.3213,1.3193,1.308,1.3046,1.2993,1.2723,1.2623,1.2589,1.2358,1.2305,1.2305,1.2305,1.2538,1.2852,1.314,1.3527,1.3903,1.4018,1.4451,1.473,1.4648,1.5091,1.6132,1.8179,1.9551,2.095,2.2795,2.2941,2.2553,2.177,2.1881,2.1791,2.1031,2.1189,2.1549,2.2004,2.1631,2.1521,2.1909,2.1489,2.1046,2.0737,1.8674,1.7398,1.7119,1.5397,1.4408,1.4196,1.4196,1.4216,1.4326,1.4538,1.4809,1.5068,1.4904,1.4926,1.5075,1.5075,1.5192,1.5396,1.5513,1.5789,1.6089,1.6206,1.6565,1.7026,1.7026,1.6725,1.6278,0.0,0.0,0.0,1.5095,0.0,1.4536,1.4148,1.4088,1.4088,1.4088,0.0,0.0,0.0,0.0,1.3737,1.3525,1.3568,1.3413,1.2911,1.3153,1.3182,1.2964,1.3124,1.3028,1.2651,1.3101,1.3307,1.3213,1.346,1.4095,1.5015,1.5164,1.5504,1.5927,1.5779,1.5738,1.5738,1.5104,1.4649,1.4329,1.3734,1.34,1.3307,1.3247,1.308,1.2985,1.3247,1.3293,1.32,1.3093,1.3053,1.2999,1.273,1.2636,1.2596,1.2365,1.2305,1.2305,1.2305,1.2378,1.2545,1.2953,1.3133,1.3233,1.332,1.3801,1.413,1.3791,1.4365,1.5539,1.7606,1.8471,1.9653,2.2028,2.23,2.1888,2.0996,2.1081,2.0928,2.0168,2.0232,2.0607,2.1288,2.1093,2.1165,2.1738,2.1436,2.1084,2.084,1.8585,1.686,1.5781,1.4736,1.4078,1.3821,1.3821,1.3872,1.3989,1.424,1.4472,1.4779,1.4567,1.4582,1.4787,1.4856,1.5024,1.5236,1.5345,1.5621,1.5913,1.5913,1.6235,1.6749,1.6859,1.6614,1.6093,1.6186,1.5785,1.5304,1.5068,1.5015,1.4814,1.4202,1.4108,1.4102,1.4115,0.0,0.0,0.0,0.0,0.0,1.3763,1.3975,1.3926,1.344,1.361,1.361,1.3434,1.361,1.3435,1.2915,1.3366,1.3453,1.3213,1.3453,1.4075,1.4968,1.4988,1.5388,1.6129,1.4993,1.499,1.5758,1.5471,1.5184,1.4881,1.3687,1.3353,1.3573,1.3273,1.32,1.3286,1.352,1.3447,1.3213,1.2936,1.2849,1.2808,1.2499,1.2392,1.2348,1.2378,1.2342,1.2342,0.0,0.0,0.0,1.2808,1.2998,1.3106,1.2837,1.3193,1.3493,1.3253,1.3804,1.4983,1.6903,1.7463,1.8518,2.1024,2.1839,2.1688,2.0342,2.0071,1.9831,1.9319,1.8985,1.9257,2.0362,2.0508,2.0865,2.1721,2.1425,2.1205,2.1146,1.8485,1.5877,1.3587,1.3492,1.3492,1.3492,1.3492,1.3653,1.4005,1.4005,1.4181,1.4489,1.4482,1.4482,1.4511,1.4754,1.4885,1.4915,1.525,1.5571,1.5906,1.5913,1.6104,1.6455,1.6778,1.6903,1.6627,1.5585,1.5511,1.5371,1.5291,1.5149,1.4955,1.4787,1.4536,1.4476,0.0,0.0,0.0,1.4689,1.4767,1.4716,1.4628,1.4479,1.4266,1.3926,1.3779,1.3695,1.361,1.3652,1.3526,1.3202,1.3273,1.3287,1.3213,1.3287,1.3642,1.4302,1.4708,1.501,1.5121,1.4993,1.4957,1.4971,1.4377,1.4208,1.4282,1.37,1.3533,1.3547,1.3073,1.3427,1.4109,1.4012,1.4152,1.4377,1.4134,1.4335,1.4695,1.4727,1.4148,1.3532,1.3849,1.36,1.3171,1.3171,0.0,0.0,0.0,0.0,0.0,1.2445,1.2757,1.3012,1.2931,1.3364,1.4294,1.6053,1.6674,1.7651,1.9841,2.0799,2.0752,1.9253,1.9701,1.9551,1.7966,1.8561,1.9387,2.0077,2.0316,2.0814,0.0,2.154,2.0929,1.9879,1.7168,1.4967,1.3543,1.3492,1.3492,1.3492,1.3492,1.3543,1.3631,1.3631,1.3799,1.4144,1.3872,1.3894,1.4174,1.4457,1.4596,1.464,1.5204,1.544,1.5542,1.5826,1.6104,1.6455,1.6778,1.6575,1.602,1.5364,1.5398,1.5438,1.5558,1.5438,1.5324,1.5324,1.5177,1.5084,0.0,0.0,0.0,1.4988,1.5115,1.5089,1.4803,1.4623,1.4396,1.4108,1.3955,1.387,1.387,1.387,1.3732,1.3443,1.3519,1.3514,1.3353,1.3514,1.3777,1.4186,1.4508,1.4753,1.4866,1.4657,1.4664,1.4796,1.4035,1.3899,1.4216,1.3878,1.3995,1.431,1.4109,1.459,1.5399,1.5248,1.53,1.546,1.5156,1.5269,1.5601,1.5715,1.5256,1.4713,1.4825,1.454,1.4181,1.4,1.339,1.284,1.2929,0.0,0.0,1.2151,1.2388,1.2529,1.2281,1.2638,1.3418,1.4877,1.5399,1.6294,1.8388,1.9033,1.9101,1.8563,1.8743,1.8421,1.7013,1.7493,1.84,1.9573,1.9847,2.0452,2.1728,2.155,2.0484,1.8449,1.6434,1.4791,1.3543,1.3492,1.3492,1.3492,1.3492,1.3492,1.3492,1.3492,1.3594,1.377,1.3579,1.3601,1.3806,1.4306,1.4511,1.4555,1.5167,1.5389,1.5411,1.5643,1.5906,1.6221,1.658,1.6524,1.6199,0.0,1.5424,1.5538,1.5825,1.5879,1.5885,1.5919,1.5851,1.5798,0.0,1.5317,1.5202,1.5202,1.5357,1.5271,1.4665,1.4609,1.4442,1.4155,1.4108,1.4088,1.4088,1.4088,1.3968,1.366,1.3921,1.3908,1.36,1.3908,1.4154,1.4392,1.4426,1.4678,1.5052,1.4243,1.4306,1.5038,1.4189,1.4105,1.4532,1.4296,1.4728,1.5511,1.5722,1.6265,1.6854,1.6854,1.667,1.6428,1.6152,1.5976,1.5906,1.6059,1.6059,1.5918,1.5608,1.5465,1.5319,1.4953,0.0,0.0,1.3872,1.3234,0.0,1.2027,1.2118,1.2144,1.1555,1.1864,1.2533,1.3606,1.3973,1.478,1.6893,1.6954,1.7102,1.8042,1.7618,1.6947,1.6341,1.6268,1.7025,1.8888,1.9231,2.0003,2.152,2.1185,1.9765,1.7113,1.6087,1.4941,1.3601,1.3514,1.3492,1.3492,1.3492,1.3492,1.3492,1.3492,1.3492,1.3492,1.3492,1.3492,1.3536,1.4225,1.4511,1.4555,1.5167,1.5389,1.5389,1.5425,1.5679,1.6001,1.6309,1.6675,1.6854,1.5398,1.5585,1.5838,1.6139,1.6186,1.6266,1.65,1.6333,1.6246,1.6426,1.64,1.6366,1.6366,1.6206,1.5959,1.5558,1.5144,1.475,1.4456,1.4215,1.4088,1.4088,1.4088,1.4062,1.4001,1.378,1.366,1.36,1.366,1.3933,1.4336,1.4539,1.4732,1.494,1.4554,1.4598,1.4892,1.4302,1.4576,1.5443,1.5572,1.5741,1.5928,1.6485,1.7229,1.7977,1.7756,1.7689,1.7677,1.7601,1.6946,1.6433,1.7733,1.7647,1.7145,1.7428,1.7127,1.6623,1.6538,1.595,1.5139,1.4268,1.4068,0.0,1.2486,1.2265,1.2204,1.185,1.1683,1.1908,1.2981,1.3349,1.4041,1.5836,1.5626,1.577,1.7371,1.7279,1.6645,1.5562,1.6269,1.7052,1.7543,1.8913,2.0061,2.0711,1.9728,1.8487,1.6996,1.5514,1.4474,1.3939,1.3631,1.3492,1.3492,1.3492,1.3492,1.3492,1.3492,1.3492,1.3492,1.3492,1.3492,1.3536,1.4225,1.4511,1.4555,1.5167,1.5389,1.5411,1.5716,1.6009,1.6316,1.6683,1.6967,1.7198,1.5424,1.5752,1.6139,1.644,1.6486,1.664,1.7074,1.6894,1.6811,1.6907,1.68,1.6707,1.6707,1.6446,1.6092,1.5651,1.5344,1.493,1.4342,1.4302,1.4242,1.4095,1.4088,1.4088,1.4088,1.3941,1.3868,1.3868,1.3937,1.4379,1.5153,1.5403,1.5464,1.5301,1.5348,1.5348,1.5262,1.4731,1.542,1.6806,1.639,1.6514,1.7078,1.7697,1.8413,1.9097,1.8937,1.8843,1.8816,1.8816,1.8364,1.7921,1.8725,1.8686,1.8362,1.8379,1.8147,1.779,1.7603,1.6977,1.616,1.5156,1.4584,0.0,0.0,1.2191,1.2044,1.1933,1.1516,1.1397,1.2068,1.2238,1.275,1.4284,1.4114,1.4332,1.6071,1.6079,1.5698,1.5055,1.5623,1.6359,1.712,1.8023,1.8843,1.9513,1.8572,1.7529,1.6586,1.5368,1.4487,1.3996,1.3821,1.366,1.3492,1.3492,1.3492,1.3492,1.3492,1.3492,1.3492,1.3492,1.3492,1.3536,1.4225,1.4511,1.4555,1.5167,1.5389,1.5403,1.5606,1.5862,1.6177,1.6543,1.6859,1.7113,1.5371,1.5738,1.6192,1.6486,1.6627,1.6887,1.7422,1.74,1.7286,1.7286,1.7027,1.6854,1.68,1.648,1.6106,1.5685,1.5391,1.4997,1.4456,1.4429,1.4335,1.4095,1.4088,1.4062,1.4001,1.4055,1.4166,1.4334,1.4566,1.5213,1.6239,1.6542,1.6485,1.6158,1.6281,1.6257,1.6128,1.5519,1.6373,1.8054,1.7253,1.7466,1.8339,1.9037,1.9569,1.9981,1.9902,1.9794,1.9645,1.9597,1.9478,1.9341,1.9301,1.9301,1.9237,1.8916,1.8825,1.8751,1.8402,1.7886,1.7213,1.6286,1.541,1.4381,0.0,0.0,0.0,1.1955,1.1443,1.1169,1.1456,1.1371,1.166,1.2972,1.289,1.315,1.4547,1.4598,1.4558,1.479,1.4894,1.5436,1.6702,1.6952,1.7341,1.8114,1.7563,1.683,1.6071,1.5328,1.4666,1.4179,1.4048,1.3857,1.3594,1.3528,1.3492,1.3492,1.3558,1.3558,1.3499,1.3558,1.3558,1.3528,1.4159,1.4416,1.446,1.5031,1.5294,1.5301,1.536,1.5586,1.5943,1.6191,1.6529,1.6806,1.5115,1.5277,1.5591,1.5879,1.6359,1.6814,1.7199,1.744,1.7528,1.7528,1.7502,1.7388,1.7179,1.6656,1.6346,1.654,1.5371,1.4903,1.5538,1.4696,1.4122,1.4088,1.4088,1.3968,1.366,1.3955,1.4496,1.5235,1.5462,1.6108,1.718,1.7423,1.7616,1.7723,1.7102,1.717,1.7706,1.6978,1.7388,1.8556,1.8831,1.9027,1.9237,2.0109,2.0333,2.0225,1.999,1.9902,1.9824,1.9676,1.9566,1.9518,1.9341,1.9301,1.9292,1.9246,1.9237,1.9228,1.9182,1.9085,1.8758,1.7661,1.72,1.6478,1.4381,0.0,1.3042,1.2102,0.0,1.147,1.1764,0.0,0.0,1.2558,1.2584,1.2678,1.3096,1.33,1.3766,1.4779,1.4602,1.4675,1.5427,1.6099,1.6534,1.6644,1.6612,1.623,1.5448,1.5094,1.4871,1.4798,1.4282,1.3967,1.3923,1.3638,1.3492,1.3499,1.3784,1.3777,1.3506,1.3799,1.377,1.3514,1.3879,1.4078,1.4084,1.4688,1.4958,1.4988,1.5272,1.5586,1.5921,1.595,1.6162,1.6373,1.4961,1.5331,1.5685,1.5758,1.6172,1.6613,1.7132,1.7542,1.7829,1.7826,1.7546,1.74,1.7447,1.6777,1.6386,1.668,1.5992,1.5551,1.5578,1.5117,1.477,1.4646,1.4436,1.4282,1.4113,1.4108,1.4573,1.5587,1.5786,1.6683,1.831,1.8519,1.8478,1.8157,1.7982,1.7991,1.8118,1.7483,1.816,1.9725,1.9425,1.9618,2.0089,2.045,2.0566,2.045,2.0333,2.0216,2.0108,2.0029,1.9912,1.9754,1.9666,1.9666,1.9627,1.9508,1.9469,1.9429,1.9341,1.9301,1.9058,1.8087,1.7682,1.7013,1.5038,1.4532,1.4273,1.347,0.0,0.0,0.0,0.0,0.0,0.0,1.2086,1.2137,1.2449,1.2326,1.2657,1.3793,1.3775,0.0,1.4666,1.5296,1.5589,1.5474,1.5677,1.5608,1.5094,1.5157,1.5097,1.4907,1.4637,1.4355,1.3989,1.4033,1.3967,1.3777,1.3916,1.3946,1.3777,1.3718,1.3623,1.3514,1.3843,1.3982,1.4071,1.4637,1.49,1.4936,1.5265,1.5469,1.5615,1.5848,1.6001,1.6133,1.501,1.5389,1.5705,1.5792,1.6121,1.6594,1.7106,1.7596,1.7872,1.8011,1.7946,1.7997,1.8433,1.7684,1.7485,1.8174,1.7281,1.6573,1.6206,1.5858,1.542,1.478,1.4669,1.4609,1.4617,1.4562,1.5189,1.6429,1.6601,1.7626,1.9362,1.9569,1.9408,1.8911,1.8957,1.8929,1.8883,1.8337,1.9071,2.0527,1.9893,2.005,2.0605,2.0605,2.0605,2.0605,2.0605,2.0489,2.0381,2.0303,2.0186,1.9981,1.9902,1.9902,1.9863,1.9715,1.9676,1.9636,1.9499,1.942,1.9222,1.8616,1.8167,1.748,1.5984,1.5675,1.5506,1.4865,1.4223,0.0,0.0,0.0,1.2502,1.2502,0.0,1.2025,1.2208,1.1964,1.2144,1.3078,1.3315,1.3601,0.0,1.4426,1.4607,1.4447,1.476,1.4912,1.4809,1.5075,1.5185,1.5039,1.4944,1.4681,1.4253,1.4438,1.4394,1.4152,1.4201,1.4157,1.3975,1.3828,1.3667,1.3514,1.3843,1.3982,1.4071,1.4637,1.49,1.4936,1.5265,1.5389,1.5418,1.5652,1.5739,1.5827,1.5294,1.5308,1.5424,1.5739,1.6286,1.6778,1.7036,1.7341,1.7652,1.7946,1.8911,1.9788,2.0497,1.9962,2.0179,2.1993,1.9449,1.7888,1.8213,1.7054,1.569,1.4184,1.4693,1.4927,1.4881,1.5456,1.6564,1.8221,1.843,1.9125,2.0264,2.045,2.0547,2.0508,2.006,2.0099,2.0498,2.0012,2.0128,2.0605,2.0566,2.0566,2.0605,2.0605,2.0605,2.0605,2.0605,2.0605,2.0566,2.0381,2.0303,0.0,0.0,0.0,1.9902,1.9902,1.9902,1.9902,1.9863,1.9754,1.9566,1.9566,1.9095,1.8475,1.7683,1.7235,1.6724,1.5926,1.5741,1.5725,1.5733,1.4782,1.4043,1.4043,1.3216,0.0,0.0,1.2462,1.2718,1.3156,1.3658,1.385,1.3543,1.3557,1.3565,0.0,1.3866,1.4188,1.4511,1.4787,1.5053,1.536,1.5068,1.4893,1.4871,1.4618,1.4504,1.4496,1.4765,1.4589,1.3996,1.4335,1.4092,1.3514,1.3843,1.3982,1.4071,1.4637,1.49,1.4936,1.5265,1.5389,1.5389,1.5396,1.5403,1.5365,1.5735,1.5966,1.6053,1.6021,1.6329,1.7103,1.8491,1.8167,1.8658,2.1222,2.0919,2.0984,2.2465,2.2221,2.2138,2.2648,2.1374,2.041,2.0216,1.9342,1.8645,1.8098,1.7663,1.7172,1.6577,1.6687,1.7074,1.7658,1.827,1.9244,2.0489,2.0566,2.0605,2.0586,2.0107,2.0156,2.0576,2.0098,2.0166,2.0605,2.0605,2.0605,2.0605,2.0605,2.0605,2.0605,2.0605,2.0605,0.0,2.0527,2.0489,2.0489,2.0411,2.0372,2.0333,2.0216,2.0147,2.0147,0.0,0.0,1.9794,1.9794,1.9534,1.907,1.8246,1.8112,1.7885,1.702,1.6711,1.6581,1.6581,1.5379,1.4212,1.3822,1.3103,1.2426,0.0,1.2395,1.2856,1.3171,1.3366,1.3469,1.3506,1.3301,0.0,0.0,1.3477,0.0,1.4166,1.4608,1.5053,1.5374,1.5279,1.5119,1.4907,1.5009,1.4992,1.4787,1.4849,1.4721,1.4342,1.4232,1.3909,1.3514,1.3843,1.3982,1.4071,1.4637,1.49,1.4936,1.5265,1.5389,1.5389,1.5389,1.5528,1.5755,1.6813,1.711,1.7117,1.6526,1.6954,1.7787,1.8923,1.8897,1.9776,2.2781,2.2394,2.2585,2.4499,2.4355,2.4227,2.4606,2.3609,2.2653,2.1796,2.1331,2.0649,1.9617,1.9336,1.884,1.8073,1.8454,1.8549,1.835,1.9236,1.9968,2.0605,2.0605,2.0605,2.0595,2.0273,2.0303,2.0586,2.0264,2.0312,2.0605,2.0605,2.0605,2.0586,2.0391,2.0468,2.0605,0.0,2.0507,2.0332,2.0332,2.0273,2.0175,2.0331,2.0234,2.0146,2.0139,2.0043,1.9889,1.9726,1.9621,0.0,1.9763,1.9646,0.0,1.897,1.8943,1.8848,1.8293,1.7972,1.7835,1.792,1.6597,1.5312,1.4708,1.3785,1.2908,0.0,1.2551,1.2935,1.3171,1.3273,1.3302,1.3338,1.3236,1.3133,0.0,0.0,0.0,0.0,1.4553,1.4977,1.5374,1.5389,1.5287,1.5075,1.5279,1.5279,1.5075,1.5075,1.4889,1.4504,1.437,1.4084,1.3697,1.4136,1.4326,1.437,1.4856,1.5075,1.5097,1.5309,1.5389,1.5389,1.5389,1.5709,1.6148,1.8357,1.8711,1.8542,1.7347,1.8141,1.8843,1.8566,1.9516,2.0838,2.2593,2.3332,2.4464,2.658,2.6332,2.6474,2.7643,2.6044,2.4445,2.3088,2.3021,2.1781,1.8987,1.9778,2.0039,1.9457,2.049,2.0839,2.0312,2.1101,2.1184,2.0635,2.0615,2.0605,2.0605,2.0605,2.0605,2.0605,2.0605,2.0605,2.0605,2.0605,2.0605,2.0556,2.0098,2.0205,2.0605,2.0576,2.0273,1.9912,1.9912,1.9639,1.9355,1.9756,1.9609,1.9365,1.9766,1.96,1.9287,1.9287,1.9141,1.9101,1.9495,1.9411,0.0,0.0,0.0,1.9578,1.9597,1.9469,1.939,1.9597,1.8442,1.723,1.6572,1.5213,1.3955,1.3103,1.2943,1.3024,1.3243,1.3404,1.3375,1.306,1.3301,1.3338,1.3031,0.0,0.0,0.0,1.4496,1.4765,1.5367,1.5389,1.5389,1.5389,1.5389,1.5389,1.5389,1.5389,1.5101,1.454,1.4761,1.4596,1.404,1.463,1.49,1.4929,1.525,1.5389,1.5389,1.5389,1.5389,1.5389,1.5425,1.5855,1.6463,1.9716,2.005,2.0151,1.9471,2.0184,2.0779,2.0685,2.0492,2.1419,2.4458,2.4492,2.5245,2.8045,2.8218,2.8134,2.8164,2.712,2.6164,2.5525,2.4881,2.405,2.2957,2.3046,2.2548,2.1472,2.1891,2.1671,2.0739,2.0939,2.1059,2.1055,2.0723,2.0605,2.0605,2.0605,2.0605,2.0605,2.0605,2.0605,2.0605,2.0605,2.0605,2.0595,0.0,2.0507,2.0556,2.0195,2.001,1.9912,1.9912,1.9639,1.9307,1.9414,1.9375,1.9307,1.9414,1.9375,1.9287,1.9287,1.9251,1.9243,1.935,1.9232,1.9162,0.0,0.0,0.0,0.0,0.0,0.0,0.0,0.0,1.8167,1.7781,1.6062,1.4739,1.4572,1.3851,1.3564,1.4081,1.3754,1.3462,1.3375,1.3228,1.3097,1.3016,0.0,0.0,1.407,0.0,1.4765,1.5367,1.5389,1.5389,1.5389,1.5389,1.5389,1.5389,1.5389,1.5177,1.4783,1.4863,1.4721,1.4408,1.4765,1.49,1.4929,1.525,1.5389,1.5389,1.5389,1.5389,1.5447,1.5957,1.6228,1.6492,2.1107,2.1995,2.2592,2.2144,2.293,2.3308,2.2289,2.1824,2.2626,2.5552,2.5398,2.581,2.815,2.8535,2.8555,2.831,2.7685,2.7041,2.6426,2.5928,2.5195,2.418,2.4188,2.3547,2.2086,2.2507,2.2131,2.0748,2.1166,2.1188,2.0937,2.0723,2.0605,2.0605,2.0605,2.0605,2.0605,2.0605,2.0605,2.0605,2.0605,2.0605,0.0,2.0352,2.0439,2.0546,2.0068,1.9795,1.9668,1.9853,1.9385,1.8799,1.917,1.9033,1.8769,1.8945,1.8877,1.873,1.873,1.873,1.8769,1.8955,1.9078,1.9221,1.9637,1.9736,1.9783,0.0,1.9981,1.9942,0.0,0.0,1.8704,1.8143,1.6493,1.5326,1.5356,1.4539,1.41,1.4467,1.4181,1.3865,1.3718,1.3411,1.3162,1.3023,1.3272,0.0,0.0,0.0,1.4904,1.5374,1.5528,1.5535,1.5389,1.5528,1.5528,1.5389,1.5389,1.5214,1.4907,1.5046,1.4944,1.4692,1.498,1.5112,1.5126,1.5309,1.5389,1.5389,1.5389,1.5389,1.5462,1.6133,1.6411,1.6507,2.2419,2.3849,2.4824,2.4336,2.5342,2.5595,2.3644,2.3444,2.4159,2.6068,2.6022,2.6315,2.7639,2.8027,2.8213,2.8213,2.7826,2.7187,2.6435,2.6279,2.5518,2.3935,2.4219,2.3672,2.209,2.2764,2.2383,2.086,2.1475,2.1406,2.0693,2.0635,2.0605,2.0605,2.0605,2.0605,2.0605,2.0605,2.0605,2.0605,2.0605,2.0605,2.0566,2.0146,2.0234,2.0556,2.0137,1.9727,1.9424,1.9785,1.9102,1.8223,1.8965,1.8652,1.8086,1.8412,1.8256,1.8008,1.8008,1.8008,1.8096,1.8432,1.8838,1.9228,1.9648,1.9897,2.013,2.0236,2.0061,1.9983,0.0,0.0,1.9089,1.8294,1.7011,1.6089,1.6089,1.5281,1.4689,1.4771,1.4633,0.0,1.4128,1.3777,1.3426,1.3097,1.3594,0.0,0.0,0.0,1.5009,1.5374,1.5659,1.5738,1.5455,1.5688,1.5731,1.5455,1.5411,1.5236,1.4973,1.5258,1.5236,1.498,1.5265,1.5389,1.5389,1.5389,1.5389,1.5389,1.5389,1.5389,1.5462,1.6089,1.6382,1.6507,2.3664,2.4088,2.4287,2.3452,2.4434,2.5294,2.5237,2.5339,2.5497,2.5727,2.6081,2.6805,2.8067,2.7939,2.7826,2.7826,2.706,2.6553,2.6396,2.5703,2.5,2.4336,2.4375,2.3955,2.3002,2.3129,2.2832,2.2168,2.158,2.1229,2.1073,2.0781,2.0605,2.0605,2.0605,2.0605,2.0605,2.0605,2.0605,2.0605,2.0605,2.0605,2.0595,2.0517,2.0537,2.0595,2.0517,2.0166,1.9814,1.9893,1.926,1.852,1.8666,1.8373,1.8027,1.8096,1.8066,1.8008,1.8008,1.8008,1.8027,1.8105,1.8174,1.834,1.8734,1.8844,1.9107,1.9808,1.9916,1.9916,1.9954,0.0,0.0,1.9589,1.8805,1.8233,1.8109,1.6604,1.5678,1.625,1.5249,1.4553,1.4718,1.4245,1.3762,1.3433,1.3514,1.3843,1.4474,0.0,1.4823,0.0,1.5447,0.0,0.0,0.0,1.5621,1.5826,1.5513,1.536,1.5301,1.536,1.5352,1.5309,1.536,1.5389,1.5389,1.5389,1.5389,1.5389,1.5389,1.5389,1.5433,1.5855,1.6155,1.6507,2.4834,2.4775,2.4697,2.4475,2.5185,2.5898,2.6328,2.682,2.6945,2.6412,2.6385,2.6664,2.7253,2.7314,2.7334,2.7334,2.6543,2.6055,2.6055,2.5225,2.4541,2.4111,2.4092,2.3594,2.2572,2.2542,2.2168,2.1504,2.1094,2.0889,2.0879,2.0703,2.0605,2.0605,2.0605,2.0605,2.0605,2.0605,0.0,2.0605,2.0605,2.0605,2.0605,2.0605,2.0605,2.0605,2.0605,2.0468,2.0254,2.0254,1.9678,1.9014,1.9192,1.9014,1.8633,1.8364,1.8295,1.8256,1.8066,1.8008,1.8008,1.8008,1.8174,1.8354,1.8559,1.8939,1.9377,1.9824,2.0088,2.0254,2.0254,2.0254,0.0,0.0,1.959,1.9047,1.8969,1.7364,1.6357,1.6659,1.5509,1.4772,1.4885,1.4509,1.4137,1.377,1.3901,1.4174,1.4489,0.0,1.4933,0.0,0.0,0.0,1.5622,0.0,0.0,1.5657,1.5462,1.5389,1.5389,1.5389,1.5389,1.5396,1.5564,1.5679,1.5679,1.5679,1.5542,1.5403,1.5571,1.5679,1.5695,1.6228,1.6543,1.6712,2.5625,2.5449,2.5322,2.5625,2.6172,2.6631,2.6963,2.7744,2.8047,2.7373,2.6924,2.666,2.666,2.6797,2.6885,2.6885,2.6094,2.5596,2.5596,2.4775,2.4141,2.3809,2.3701,2.3096,2.1914,2.1885,2.1486,2.0605,2.0605,2.0605,2.0605,2.0605,2.0605,2.0605,0.0,0.0,0.0,0.0,2.0654,2.0654,2.0654,2.0654,2.0654,2.0605,2.0605,2.0605,2.0605,2.0644,2.0654,2.0605,2.0096,1.9482,1.9814,1.9619,1.9219,1.8877,1.8676,1.8529,1.8198,1.8076,1.8008,1.8008,1.8227,1.8471,1.8471,1.9056,1.9631,1.9756,2.0127,2.0488,2.0586,2.0527,0.0,0.0,0.0,1.9578,1.9578,1.8078,1.6952,1.6879,1.5789,1.4951,1.4812,1.4735,1.4509,1.4152,1.4232,1.4386,1.456,1.4677,1.4915,0.0,0.0,1.5681,1.5491,0.0,1.5716,1.5491,1.5418,1.5389,1.5389,1.5389,1.5389,1.5403,1.5732,1.595,1.6009,1.5943,1.5804,1.5657,1.5913,1.6009,1.6074,1.6617,1.6837,1.6903,2.5684,2.5654,2.5635,2.5684,2.6416,2.6973,2.7012,2.7744,2.8262,2.8184,2.7803,2.7601,2.7601,2.6885,2.6445,2.6445,2.5644,2.5174,2.5174,2.4326,2.3828,2.3789,2.3408,2.2783,2.1904,2.1885,2.1486,2.0605,2.0605,2.0605,2.0605,2.0605,2.0605,0.0,0.0,0.0,0.0,2.078,2.0867,2.0867,2.0867,2.0867,2.0867,2.0654,2.0605,2.0605,2.0605,2.0731,2.0829,2.0654,2.0244,1.9863,1.9902,1.9619,1.9277,1.9238,1.8945,1.8588,1.8559,1.8266,1.8008,1.8008,1.8037,1.8066,1.8066,1.8393,1.8831,1.9268,1.9678,2.0098,2.0537,2.0244,2.0098,0.0,0.0,2.0489,2.0489,1.8997,1.7749,1.7448,1.6209,1.5153,1.4607,1.5013,1.5087,1.4511,1.3901,1.3967,1.4812,1.4377,1.4487,1.536,1.5418,1.5564,1.587,1.5564,1.5564,1.587,1.5528,1.5389,1.5389,1.5389,1.5389,1.5403,1.5732,1.6074,1.6353,1.603,1.606,1.6323,1.636,1.6367,1.6375,1.6433,1.6646,1.6903,2.6504,2.6299,2.6289,2.6807,2.6963,2.7187,2.7705,2.8076,2.8203,2.7949,2.7539,2.7275,2.7275,2.6514,2.5996,2.5996,2.5185,2.4678,2.4678,2.3877,2.3398,2.3398,2.3188,2.2818,2.2275,2.2012,2.1582,2.0967,2.0742,2.0605,2.0605,2.0731,0.0,0.0,0.0,2.078,2.078,2.0867,2.0984,2.1099,2.1099,2.1099,2.1051,2.1012,2.0964,2.0925,2.0819,2.0896,2.1012,2.0722,2.0575,2.0476,2.0351,2.0233,2.0038,1.9736,1.9541,1.9346,1.9092,1.8711,1.8354,1.8354,1.8354,1.8354,1.8354,1.888,1.9416,1.9629,2.001,2.04,2.0576,2.0458,2.0361,2.0576,0.0,0.0,2.0605,1.9569,1.8624,1.8223,1.663,1.5465,1.5204,1.4969,1.4823,1.4757,1.4509,1.4491,1.4878,1.4659,0.0,1.5367,0.0,1.5447,1.5579,1.5455,1.5455,1.5579,1.5447,1.5389,1.5389,1.5389,1.5491,1.5738,1.6052,1.6301,1.6419,1.6492,1.6477,1.6433,1.6631,1.6705,1.6727,1.6872,1.7026,1.7135,2.7178,2.6963,2.6992,2.7777,2.7598,2.7598,2.8203,2.8193,2.7998,2.7757,2.7178,2.6836,2.6836,2.6172,2.5635,2.5557,2.4853,2.4365,2.4238,2.35,2.3144,2.3232,2.3144,2.2983,2.2689,2.2225,2.1793,2.1401,2.0987,2.077,0.0,0.0,0.0,0.0,2.0984,2.0984,2.0984,2.1061,2.1177,2.1282,2.1282,2.1282,2.1282,2.1205,2.1205,2.1167,2.1022,2.1138,2.1244,2.0886,2.0925,2.1012,2.0683,2.0644,2.0624,2.0233,2.0019,1.9853,1.9551,1.916,1.8828,1.8828,1.8828,1.8828,1.8828,1.9358,1.9951,2.0078,2.0352,2.0605,2.0605,2.0605,2.0605,2.0605,0.0,0.0,2.0245,1.9584,1.8813,1.7972,1.6652,1.5692,1.5296,1.498,1.4801,1.4893,1.4988,1.5046,1.5046,1.4863,0.0,0.0,0.0,0.0,1.5389,1.5389,1.5389,1.5389,1.5389,1.5389,1.5389,1.5389,1.5657,1.6052,1.6177,1.6396,1.666,1.6844,1.6815,1.6674,1.6947,1.7042,1.7018,1.7245,1.7279,1.7279,2.762,2.7708,2.7783,2.8213,2.8281,2.8281,2.8291,2.7939,2.7728,2.7718,2.6975,2.6396,2.6396,2.6006,2.5557,2.5165,2.4668,2.4238,2.3828,2.3379,2.3232,2.3503,2.3232,2.3113,2.3207,2.2557,2.2119,2.1879,2.1426,0.0,2.1205,0.0,2.1205,2.1205,2.1205,2.1205,2.1205,2.1397,2.1502,2.1502,2.1502,2.1502,2.1474,2.1282,2.1205,2.1205,2.1205,2.132,2.1474,2.1244,2.132,2.1387,2.0799,2.0731,2.0867,2.0644,2.0254,1.9912,1.9902,1.96,1.9277,1.9277,1.9277,1.9277,1.9277,1.9609,2.0039,2.0507,2.0595,2.0605,2.0605,2.0605,2.0605,2.0605,0.0,0.0,0.0,1.8914,1.8023,1.6403,1.6134,1.5661,1.4611,1.5043,1.5243,1.4922,0.0,0.0,0.0,0.0,0.0,1.5367,1.5389,0.0,1.5389,1.5389,1.5389,1.5389,1.5389,1.5389,1.5389,1.5389,1.5774,1.6389,1.6052,1.641,1.7296,1.7027,1.7033,1.7271,1.7271,1.7279,1.7279,1.7279,1.7279,1.7279,2.8066,2.8096,2.8047,2.7891,2.8105,2.8096,2.751,2.7559,2.7513,2.6875,2.6743,2.6547,2.6251,2.6044,2.5778,2.5334,2.5096,2.475,2.4322,2.3829,2.3624,2.3711,2.3624,2.3607,2.3596,2.2822,2.2381,2.2322,0.0,0.0,0.0,2.1387,2.1387,2.1387,2.1387,2.1387,2.1397,2.1474,2.1578,2.1693,2.1693,2.1693,2.1693,2.1617,2.1617,2.1578,2.1464,2.154,2.1655,2.132,2.1436,2.1617,2.1156,2.1051,2.1089,2.1051,2.0903,2.0765,2.0611,2.0238,1.9893,1.9754,1.9717,1.9717,1.9717,2.0049,2.0477,2.075,2.0693,2.0644,2.078,2.0693,2.0605,2.0605,2.0605,0.0,2.0245,1.9765,1.9069,1.7976,1.7132,1.6286,1.5335,1.5118,1.5017,1.4907,0.0,0.0,0.0,0.0,0.0,0.0,1.5389,0.0,1.5389,1.5389,1.5389,1.5389,1.5389,1.5389,1.5396,1.5657,1.587,1.6082,1.6411,1.6771,1.7011,1.7128,1.7238,1.7279,1.7279,1.7279,1.7279,1.7279,1.7279,1.7279,2.8451,2.8451,2.8373,2.8107,2.8147,2.8019,2.7489,2.7361,2.7186,2.6595,2.6626,2.6554,2.6275,2.6352,0.0,2.5398,2.5237,2.4917,2.4293,2.3958,2.3841,2.3937,2.3841,2.3884,2.4057,2.3262,0.0,2.2768,2.1873,2.1512,2.1617,2.1617,2.1617,2.1617,2.1617,2.1617,2.1617,2.1617,2.1693,2.1807,2.1807,2.1807,2.1807,2.1807,2.1807,2.1769,2.1655,2.1693,2.1769,2.1502,2.1578,2.1769,2.1502,2.1436,2.1397,2.1244,2.1205,2.1167,2.1061,2.0803,2.0546,2.0432,2.0394,2.0434,2.0602,2.073,2.0897,2.1192,2.1044,2.0848,2.0974,2.0858,2.0731,2.0809,2.077,2.0556,2.0072,1.9951,1.9475,1.8285,1.7725,1.7063,0.0,1.5742,1.5434,0.0,0.0,0.0,0.0,0.0,0.0,1.5382,1.5506,1.5513,1.5389,1.5506,1.5506,1.5389,1.5513,1.5571,1.5579,1.5943,1.6155,1.6294,1.6727,1.6969,1.7047,1.7245,1.7279,1.7279,1.7279,1.7279,1.7279,1.7279,1.7279,1.7279,2.8737,2.8737,2.8717,2.8648,2.8363,2.8075,2.7986,2.7311,2.6794,2.6765,2.6612,2.6554,2.6554,2.6747,2.6486,2.5351,0.0,0.0,2.3901,2.3841,2.398,2.4206,2.398,2.4057,2.4497,2.3842,2.3433,2.3184,2.2263,2.1828,2.1859,2.1818,2.1807,2.1807,2.1807,2.1807,2.1807,2.1807,2.1807,2.1807,2.1807,2.1807,2.1807,2.1807,2.1807,2.1807,2.1807,2.1807,2.1807,2.1807,2.1807,2.1807,2.1807,2.1807,2.1731,2.1359,2.1244,2.1244,2.1205,2.1205,2.1205,2.1205,2.1235,2.1376,2.1819,2.1607,2.1416,2.1878,2.1626,2.1296,2.1306,2.1131,2.1023,2.1217,2.1081,2.0517,1.9297,1.959,1.9372,1.7717,0.0,0.0,1.683,1.6739,1.6337,0.0,0.0,0.0,0.0,0.0,1.5053,1.5374,1.5681,1.5745,1.5425,1.5725,1.5774,1.5455,1.5804,1.595,1.5957,1.6265,1.6609,1.6903,1.6925,1.7055,1.7279,1.7279,1.7279,1.7279,1.7279,1.7279,1.7279,1.7279,1.7279,1.7279,0.0,0.0,2.8825,2.8144,2.8224,2.8034,2.7021,2.6971,2.6931,2.66,2.6721,2.6805,2.6805,2.7034,2.6795,2.5832,2.575,2.5324,2.4387,2.4315,2.4368,2.4411,2.4368,2.4411,2.4497,2.4063,2.3608,2.3184,2.2263,2.1983,2.2325,2.1973,2.1807,2.1807,2.1807,2.1807,2.1807,2.1807,2.1807,2.1807,2.1807,2.1807,2.1807,2.1807,2.1807,2.1807,2.1807,2.1807,2.1807,2.1807,2.1807,2.1807,2.1807,2.1807,2.1769,2.1693,2.1655,2.1617,2.1474,2.1436,2.1397,2.1244,2.1467,2.1878,2.2332,2.2352,2.2342,2.2605,2.2463,2.2312,2.2473,2.2029,2.1689,2.1718,2.1387,2.0891,2.0254,2.0302,2.0001,0.0,1.8929,1.8484,1.7082,1.6927,1.6486,0.0,0.0,1.5126,1.5374,1.5082,1.5053,1.5374,1.5462,1.5586,1.5796,1.5877,1.5994,1.6148,1.6221,1.6265,1.6272,1.6639,1.6829,1.691,1.7113,1.726,1.7279,1.7279,1.7279,1.7279,1.7279,1.7279,1.7279,1.7279,1.7279,1.7279,2.9343,2.9343,2.913,2.84,2.836,2.8056,2.7124,2.7023,2.6913,2.6729,2.6938,2.7081,2.7081,2.7214,2.6936,2.5958,2.5875,2.5492,2.4559,2.4497,2.4497,2.4497,2.4497,2.4497,2.4497,2.4312,2.3857,2.3184,2.247,2.2149,2.217,2.1921,2.1807,2.1807,2.1807,2.1807,2.1807,2.1807,2.1807,2.1807,2.1807,2.1807,2.1807,2.1807,2.1807,2.1807,2.1807,2.1807,2.1838,2.2056,2.1983,2.1849,2.2056,2.1973,2.1807,2.1807,2.1807,2.1811,2.1912,2.1973,2.1986,2.2073,2.2318,2.2614,2.3074,2.3023,2.2971,2.3299,2.3094,2.291,2.3032,2.2502,2.2077,2.2146,2.1692,2.1159,2.0751,2.0775,2.0639,2.0156,2.0057,1.9631,1.8744,1.7993,1.7172,1.6214,1.5494,0.0,1.5382,1.536,1.536,1.5389,1.5709,1.5877,1.5913,1.6052,1.6206,1.6411,1.6565,1.6639,1.6646,1.6923,1.7069,1.7077,1.7252,1.7279,1.7279,1.7279,1.7279,1.7279,1.7279,1.7279,1.7279,1.7279,1.7279,1.7279,2.9649,2.9659,2.9505,2.8952,2.8523,2.8123,2.7611,2.7232,2.6948,2.6948,2.7177,2.7309,2.7309,2.7309,2.6936,2.5958,2.5875,2.5492,2.4559,2.4497,2.4497,2.4497,2.4497,2.4497,2.4497,2.4435,2.4095,2.3391,2.2863,2.2439,2.2118,2.2045,2.1973,2.1911,2.1911,2.1911,2.1911,2.1911,2.1911,2.1911,2.1911,2.1869,2.1807,2.1807,2.1807,2.1807,2.1807,2.1807,2.1869,2.2263,2.2128,2.188,2.2273,2.217,2.1911,2.1911,2.1963,2.2087,2.2408,2.2542,2.2708,2.3174,2.3298,2.3412,2.3877,2.367,2.3505,2.3898,2.367,2.3391,2.3391,2.2836,2.2407,2.2565,2.2004,2.1387,2.0984,0.0,2.125,2.1278,2.1069,2.0887,2.0709,1.9304,1.8042,1.7204,1.6168,1.5528,1.5528,1.5833,1.5855,1.5577,1.6089,1.6272,1.606,1.636,1.6558,1.6558,1.6837,1.6969,1.6983,1.7208,1.7279,1.7279,1.7279,1.7279,1.7279,1.7279,1.7279,1.7279,1.7279,1.7279,1.7279,1.7279,1.7279,1.7279,2.9859,2.9942,2.9673,2.8826,2.8609,2.8278,2.7489,2.7303,2.7214,2.7214,2.7262,2.7309,2.7309,2.7309,2.6936,2.5958,2.5875,2.5492,2.4559,2.4497,2.4497,2.4497,2.4497,2.4497,2.4497,2.4178,2.4095,2.429,2.3494,2.3246,2.3587,2.3153,2.277,2.2387,2.2387,2.2387,2.2387,2.2387,2.2387,2.2387,2.2387,2.2159,2.1807,2.1807,2.1807,2.1807,2.1807,2.1807,2.1818,2.189,2.1859,2.1818,2.189,2.2128,2.2387,2.2387,2.2666,2.2904,2.2584,2.278,2.3194,2.366,2.3774,2.3888,2.429,2.4342,2.4311,2.4383,2.4342,2.429,2.429,2.3598,2.304,2.308,2.2327,2.1604,2.1149,0.0,2.1687,2.1721,2.1669,2.1494,2.1129,1.9825,1.8612,1.7763,1.6773,1.6221,1.6221,1.6272,1.6316,1.6272,1.6367,1.6521,1.6756,1.7018,1.7179,1.7179,1.723,1.7252,1.726,1.7257,1.7279,1.7279,1.7279,1.7279,1.7279,1.7279,1.7279,1.7279,1.7279,1.7279,1.7279,1.7279,1.7279,1.7279,2.958,2.9622,2.9415,2.8731,2.8411,2.8017,2.7403,2.7309,2.7309,2.7309,2.7309,2.7309,2.7309,2.7309,2.6936,2.5958,2.5875,2.5492,2.4559,2.4497,2.4497,2.4497,2.4497,2.4497,2.4497,2.4301,2.4219,2.4188,2.3764,2.3536,2.3505,2.3287,2.307,2.2873,2.2873,2.2729,2.2511,2.276,2.2584,2.2149,2.2397,2.2221,2.1807,2.1807,2.1807,2.1807,2.1807,2.1963,2.2211,2.247,2.2387,2.2263,2.277,2.2729,2.2542,2.2801,2.3194,2.3515,2.3298,2.3567,2.3971,2.4188,2.4229,2.4291,2.4456,2.4497,2.4497,2.4497,2.4497,2.4497,2.4497,2.3795,2.3267,2.3525,2.2573,0.0,2.1859,2.2045,2.2273,2.2522,2.2542,2.2311,2.1755,2.0327,1.9242,1.8699,1.7267,1.6624,1.7136,1.684,1.6595,1.6419,1.6587,1.6829,1.7106,1.7252,1.7279,1.7279,1.7279,1.7279,1.7279,1.7279,1.7279,1.7279,1.7279,1.7279,1.7279,1.7279,1.7279,1.7279,1.7279,1.7279,1.7279,1.7279,1.7279,1.7279,2.9125,2.9145,2.9001,2.8535,2.8162,2.7769,2.7372,2.7309,2.7309,2.7309,2.7309,2.7309,2.7309,2.7309,2.6978,2.6159,2.5937,2.5544,2.4714,2.4559,2.4497,2.4497,2.4497,2.4497,2.4497,2.4497,2.4332,2.4033,2.4033,2.3857,2.3505,2.3505,2.3443,2.335,2.335,2.3153,2.2842,2.3194,2.2936,2.2325,2.2677,2.248,2.1973,2.2087,2.2056,2.1983,2.2087,2.2356,2.2708,2.307,2.2946,2.278,2.3494,2.3298,2.2884,2.3246,2.367,2.4033,2.4033,2.4281,2.4497,2.4497,2.4497,2.4497,2.4497,2.4497,2.4497,2.4497,2.4497,2.4497,2.4497,2.3888,2.3463,2.3826,0.0,2.2252,2.2604,2.2656,2.2832,2.3298,2.3256,2.293,2.2302,2.0842,1.9737,1.9358,1.7632,1.6937,1.7632,1.7221,1.6895,1.6601,1.6807,1.7011,1.7279,1.7279,1.7279,1.7279,1.7279,1.7279,1.7279,1.7279,1.7279,1.7279,1.7279,1.7279,1.7279,1.7279,1.7279,1.7279,1.7279,1.7279,1.7279,1.7279,1.7279,1.7293,2.8587,2.8659,2.8514,2.8059,2.7896,2.7769,2.7372,2.7309,2.7309,2.7309,2.7309,2.7309,2.7309,2.7309,2.7102,2.6604,2.6169,2.5678,2.5168,2.4735,2.4497,2.4497,2.4497,2.4497,2.4497,2.4497,2.4487,2.4456,2.4456,2.4435,2.4394,2.4394,2.4219,2.3867,2.3867,2.3805,2.3815,2.3815,2.3795,2.3774,2.3764,2.3246,2.249,2.2925,2.2822,2.2501,2.2925,2.3111,2.3143,2.3174,2.3163,2.3153,2.3215,2.3484,2.3784,2.3857,2.4146,2.4456,2.4456,2.4476,2.4497,2.4497,2.4497,2.4497,2.4497,2.4497,2.4497,2.4497,2.4497,2.4497,2.4497,2.4146,2.3836,2.3867,0.0,0.0,2.3132,2.3143,2.3308,2.3774,2.3453,2.3062,2.2761,2.1255,1.9955,1.9257,1.7995,1.726,1.7345,1.7282,1.7282,1.7213,1.6996,1.7011,1.7279,1.7279,1.7279,1.7279,1.7279,1.7279,1.7279,1.7279,1.7279,1.7279,1.7279,1.7279,1.7279,1.7279,1.7279,1.7279,1.7279,1.7279,1.7279,1.7279,1.7279,1.7323,2.8152,2.8183,2.8131,2.7955,2.7696,2.7506,2.733,2.7309,2.7309,2.7309,2.7309,2.7309,2.7309,2.7309,2.7123,2.6656,2.6144,2.5699,2.521,2.4755,2.4497,2.4497,2.4497,2.4497,2.4497,2.4497,2.4497,2.4497,2.4497,2.4497,2.4497,2.4497,2.4404,2.4291,2.4291,2.4136,2.394,2.4178,2.396,2.3474,2.3764,2.3494,2.2946,2.3122,2.308,2.2946,2.3122,2.337,2.3619,2.3619,2.3619,2.366,2.3939,2.396,2.3929,2.4209,2.4363,2.4497,2.4497,2.4497,2.4497,2.4497,2.4497,2.4497,2.4497,2.4497,2.4497,2.4497,2.4497,2.4497,2.4497,2.4178,2.3971,2.425,0.0,2.3287,2.3577,2.3619,2.3681,2.3857,2.3971,2.3671,2.2804,2.1653,2.074,2.0367,1.8619,1.78,1.8442,1.7746,1.7279,1.7279,1.7208,1.7208,1.7279,1.7279,1.7279,1.7279,1.7279,1.7279,1.7279,1.7279,1.7279,1.7279,1.7279,1.7279,1.7279,1.7279,1.7279,1.7279,1.7279,1.7279,1.7355,1.7505,1.7625,1.7647,2.7717,2.7717,2.7717,2.7717,2.7458,2.7309,2.7309,2.7309,2.7309,2.7309,2.7309,2.7247,2.7102,2.7216,2.7123,2.6656,2.6144,2.5751,2.5451,2.4828,2.4497,2.4497,2.4497,2.4497,2.4497,2.4497,2.4497,2.4497,2.4497,2.4497,2.4497,2.4497,2.4497,2.4497,2.4497,2.4332,2.4105,2.4373,2.4135,2.3639,2.396,2.3815,2.3422,2.3557,2.3525,2.3422,2.3567,2.3815,2.4084,2.4084,2.4084,2.4136,2.4404,2.4333,2.4146,2.4404,2.46,2.4714,2.4714,2.4817,2.4848,2.4569,2.4611,2.4673,2.4528,2.4714,2.4879,2.4745,2.4828,2.4879,2.4735,2.4509,2.4353,2.4476,2.4022,2.3722,2.4043,2.4084,2.4084,2.4084,2.4311,2.4046,2.2833,2.2066,2.1311,2.0512,1.8942,1.8218,1.8581,1.7792,1.7279,1.7279,1.7279,1.7279,1.7279,1.7279,1.7279,1.7279,1.7279,1.7279,1.7279,1.7279,1.7279,1.7279,1.7279,1.7279,1.7279,1.7279,1.7279,1.7279,1.7279,1.7344,1.7447,1.7618,1.7728,1.7816,2.7309,2.7309,2.7309,2.7309,2.7309,2.7309,2.7309,2.7309,2.7309,2.7309,2.7309,2.7133,2.6667,2.7029,2.7123,2.6656,2.619,2.5875,2.5875,2.5037,2.4497,2.4507,2.4497,2.4497,2.4497,2.4497,2.4497,2.4497,2.4497,2.4497,2.4497,2.4497,2.4497,2.4497,2.4497,2.4497,2.4497,2.4497,2.4497,2.4497,2.4497,2.4281,2.3929,2.4332,2.4271,2.3939,2.4342,2.4497,2.4497,2.4497,2.4497,2.4497,2.4497,2.4497,2.4507,2.4507,2.4828,2.5199,2.5199,2.5554,2.5668,2.4735,2.4859,2.5075,2.4611,2.5244,2.5761,2.5282,2.5585,2.5751,2.5272,2.5199,2.5044,2.459,2.4507,2.4507,2.4507,2.4497,2.4497,2.4497,2.4497,2.4057,2.2931,2.258,2.1507,1.9363,1.8942,1.838,1.7372,1.7279,1.7279,1.7279,1.7279,1.7279,1.7279,1.7279,1.7279,1.7279,1.7279,1.7279,1.7279,1.7279,1.7279,1.7279,1.7279,1.7279,1.7279,1.7279,1.7279,1.7279,1.7279,1.7476,1.7772,1.745,1.749,1.7816,2.7309,2.7309,2.7309,2.7309,2.7309,2.7309,2.7309,2.7309,2.7309,2.7309,2.7309,2.7133,2.6667,2.7029,2.6988,2.62,2.5958,2.5751,2.544,2.4828,2.4642,2.4972,2.4673,2.4497,2.4497,2.4497,2.4497,2.4497,2.4497,2.4497,2.4497,2.4497,2.4497,2.4497,2.4497,2.4497,2.4497,2.4497,2.4497,2.4497,2.4497,2.4425,2.4321,2.4445,2.4414,2.4321,2.4456,2.4497,2.4497,2.4497,2.4497,2.4497,2.4497,2.4724,2.4983,2.4983,2.5337,2.5689,2.5689,2.5782,2.5813,2.5544,2.5585,2.5647,2.5513,2.5689,2.5844,2.5709,2.5792,2.5844,2.5709,2.5689,2.5637,2.5502,2.5223,2.4983,2.4983,2.4704,2.4497,2.4497,2.4497,2.4368,2.4046,2.3202,2.2183,2.1024,1.95,1.8272,1.7621,1.7574,1.7574,1.7574,1.738,1.7279,1.7279,1.7279,1.7279,1.7279,1.7279,1.7279,1.7279,1.7279,1.7279,1.7279,1.7279,1.7279,1.7279,1.7279,1.7279,1.7279,1.7279,1.7344,1.7494,1.7618,1.7728,1.7816,2.7309,2.7309,2.7309,2.7309,2.7309,2.7309,2.7309,2.7309,2.7309,2.7309,2.7309,2.7133,2.6667,2.7029,2.7009,2.6262,2.6034,2.5616,2.4962,2.4652,2.4704,2.5168,2.4745,2.4497,2.4497,2.4497,2.4497,2.4497,2.4497,2.4497,2.4497,2.4497,2.4497,2.4497,2.4497,2.4497,2.4497,2.4497,2.4497,2.4497,2.4497,2.4497,2.4497,2.4497,2.4497,2.4518,2.4704,2.4652,2.4528,2.4714,2.4776,2.4776,2.4776,2.5075,2.5492,2.5492,2.5802,2.62,2.62,2.6335,2.647,2.647,2.6335,2.6148,2.5916,2.621,2.6418,2.6241,2.6299,2.6418,2.6231,2.62,2.6138,2.5906,2.5513,2.5189,2.5189,2.4797,2.4497,2.4497,2.4497,2.4454,2.4368,2.343,2.2262,2.0926,1.9271,1.8148,1.7721,1.7675,1.7628,1.7527,1.738,1.7279,1.7279,1.7279,1.7279,1.7279,1.7279,1.7279,1.7279,1.7279,1.7279,1.7279,1.7279,1.7399,1.7523,1.7523,1.7523,1.7523,1.7523,1.7523,1.753,1.7596,1.7706,1.7794,2.7309,2.7309,2.7309,2.7309,2.7309,2.7309,2.7309,2.7309,2.7309,2.7309,2.7309,2.7133,2.6667,2.7029,2.7102,2.6594,2.6169,2.5554,2.4735,2.4611,2.4766,2.523,2.4766,2.4518,2.4559,2.4518,2.4497,2.4497,2.4497,2.4497,2.4497,2.4497,2.4497,2.4497,2.4497,2.4497,2.4497,2.4497,2.4497,2.4497,2.4497,2.4497,2.4497,2.4497,2.4528,2.4621,2.5034,2.4941,2.4683,2.5106,2.5241,2.5241,2.5241,2.5585,2.5937,2.5937,2.6314,2.6677,2.6677,2.6988,2.7309,2.7309,2.6988,2.6563,2.6138,2.6708,2.7185,2.677,2.7009,2.7175,2.675,2.6677,2.6542,2.6072,2.5595,2.5241,2.5241,2.4817,2.4497,2.4497,2.4497,2.4411,2.4249,2.3426,2.2052,1.9982,1.8929,1.8194,1.7861,1.7798,1.7626,1.7377,1.7369,1.7323,1.7323,1.7352,1.7337,1.7279,1.7279,1.7279,1.7279,1.7279,1.7279,1.7279,1.7315,1.7538,1.7816,1.7845,1.7838,1.7816,1.7816,1.7801,1.7735,1.7388,1.7468,1.7728,2.7309,2.7309,2.7309,2.7309,2.7309,2.7309,2.7309,2.7309,2.7309,2.7309,2.7309,2.7133,2.6667,2.7029,2.6978,2.6138,2.5982,2.5947,2.6113,2.5471,2.5285,2.572,2.4964,2.4662,2.5034,2.4683,2.4497,2.4497,2.4497,2.4497,2.4497,2.4497,2.4497,2.4497,2.4497,2.4497,2.4497,2.4497,2.4497,2.4497,2.4497,2.4497,2.4497,2.4497,2.4724,2.5055,2.5148,2.5378,2.5606,2.5699,2.574,2.574,2.574,2.6051,2.647,2.647,2.6791,2.7154,2.7154,2.7226,2.7309,2.7309,2.7226,2.7133,2.7029,2.7164,2.7278,2.7175,2.7237,2.7278,2.7175,2.7154,2.7123,2.7019,2.6268,2.574,2.574,2.5047,2.4497,2.4497,2.4497,2.4497,2.4454,2.3913,2.3246,2.238,2.11,1.9991,1.915,1.8472,1.8062,1.8015,1.7809,1.7706,1.7706,1.7962,1.7838,1.7279,1.7279,1.7279,1.7279,1.7279,1.7279,1.7293,1.7604,1.775,1.7838,1.8094,1.805,1.7816,1.7816,1.7655,1.7381,1.7355,1.7377,1.7381,2.7309,2.7309,2.7309,2.7309,2.7309,2.7309,2.7309,2.7309,2.7309,2.7309,2.7309,2.7216,2.6978,2.7164,2.7019,2.6314,2.6252,2.6262,2.6283,2.5802,2.574,2.6231,2.5544,2.5399,2.5865,2.542,2.5078,2.4828,2.4611,2.4497,2.4497,2.4497,2.4497,2.4497,2.4497,2.4497,2.4497,2.4497,2.4621,2.4828,2.4828,2.4952,2.5181,2.5181,2.5326,2.5564,2.5792,2.602,2.6221,2.6003,2.6065,2.6252,2.6252,2.6573,2.6946,2.6946,2.7123,2.7309,2.7309,2.7417,2.7521,2.7361,2.7417,2.7521,2.7351,2.7309,2.7309,2.7309,2.7309,2.7309,2.7309,2.7309,2.7309,2.7309,2.6718,2.6252,2.6252,2.5616,2.5181,2.5181,2.5181,2.4995,2.4553,2.4296,2.3825,2.3092,2.2261,2.1294,2.0152,1.9527,1.8924,1.8252,1.8099,1.805,1.805,1.8218,1.813,1.7794,1.7794,1.7794,1.7794,1.7794,1.7794,1.7794,1.7808,1.7904,1.805,1.8064,1.7969,1.7816,1.7816,1.7618,1.7279,1.7279,1.7279,1.7301,2.7175,2.7185,2.7216,2.7299,2.7309,2.7309,2.7309,2.7309,2.7309,2.7309,2.7309,2.7309,2.7309,2.7309,2.7154,2.677,2.6739,2.6573,2.6144,2.6041,2.621,2.6594,2.6169,2.6138,2.6604,2.6041,2.5595,2.5189,2.4807,2.458,2.4497,2.4497,2.4497,2.4497,2.4497,2.4538,2.4621,2.4621,2.4879,2.5303,2.5303,2.5554,2.5875,2.5875,2.5927,2.6096,2.6563,2.6781,2.6744,2.6351,2.6486,2.6806,2.6806,2.7112,2.7434,2.7517,2.7486,2.7444,2.7517,2.7759,2.7955,2.7631,2.7769,2.7945,2.7583,2.7475,2.7423,2.7423,2.7486,2.7517,2.7434,2.7423,2.7392,2.732,2.6915,2.6615,2.6615,2.6221,2.5875,2.5875,2.5875,2.5634,2.4927,2.4881,2.4502,2.3701,2.3165,2.2378,2.1258,2.0717,1.9891,1.8726,1.8726,1.8627,1.8386,1.8438,1.8438,1.8386,1.8438,1.8408,1.8299,1.8299,1.8299,1.8291,1.8072,1.8138,1.8364,1.8094,1.7947,1.7889,1.7838,1.7647,1.7374,1.7425,1.7447,1.749,2.6625,2.6708,2.6832,2.7237,2.7309,2.7309,2.7309,2.7309,2.7309,2.7309,2.7309,2.7309,2.7309,2.7309,2.7278,2.7216,2.7216,2.7185,2.7123,2.675,2.6553,2.6615,2.6169,2.6138,2.6604,2.5751,2.5241,2.5189,2.5127,2.489,2.4497,2.4497,2.4497,2.4497,2.4497,2.4724,2.5096,2.5096,2.5388,2.5792,2.5792,2.5823,2.5875,2.5875,2.6123,2.6584,2.705,2.7417,2.7728,2.7665,2.7686,2.7738,2.7738,2.7779,2.7914,2.8317,2.8152,2.7924,2.8317,2.8473,2.8504,2.8452,2.8483,2.8504,2.8452,2.8121,2.7831,2.7831,2.8152,2.8307,2.7903,2.7831,2.7707,2.7372,2.6915,2.6615,2.6615,2.6221,2.5875,2.5875,2.5875,2.5985,2.6295,2.6336,2.6233,2.6141,2.4506,2.3475,2.3289,2.1904,2.0777,2.014,2.0331,1.9898,1.8723,1.9001,1.9001,1.873,1.9008,1.8847,1.8299,1.8299,1.8299,1.8313,1.8555,1.8686,1.8723,1.8672,1.8489,1.8211,1.7925,1.7786,1.7786,1.8064,1.8174,1.8174,2.6532,2.6615,2.676,2.7226,2.7309,2.7309,2.7309,2.7309,2.7309,2.7309,2.7309,2.7309,2.7309,2.7309,2.7309,2.7309,2.7309,2.7309,2.7309,2.7123,2.6998,2.6998,2.6801,2.6791,2.6998,2.6568,2.6237,2.5978,2.5482,2.5086,2.489,2.5171,2.5161,2.489,2.5181,2.5399,2.5595,2.5595,2.5854,2.6304,2.6304,2.647,2.6698,2.6698,2.6822,2.7061,2.7469,2.7924,2.8307,2.8307,2.8307,2.8307,2.8307,2.8307,2.8349,2.8556,2.8473,2.8359,2.8556,2.8804,2.8938,2.868,2.8804,2.8928,2.8669,2.8659,2.8618,2.8359,2.8473,2.8556,2.8349,2.8307,2.8245,2.8048,2.7841,2.7707,2.7707,2.7314,2.6931,2.6729,2.6868,2.7003,2.7009,2.7179,2.6982,2.6147,2.54,2.4625,2.3729,2.2684,2.1795,2.095,2.0849,2.0308,1.9111,1.9258,1.9258,1.906,1.9206,1.9125,1.8847,1.8847,1.8847,1.8847,1.8803,1.8789,1.8774,1.8591,1.843,1.8284,1.8145,1.8086,1.813,1.8452,1.846,1.8328]}]]